<?xml version="1.0" encoding="UTF-8" standalone="no" ?><gpx xmlns="http://www.topografix.com/GPX/1/1" xmlns:gpxx="http://www.garmin.com/xmlschemas/GpxExtensions/v3" xmlns:wptx1="http://www.garmin.com/xmlschemas/WaypointExtension/v1" xmlns:gpxtpx="http://www.garmin.com/xmlschemas/TrackPointExtension/v1" creator="GuideVTT.com" version="1.1" xmlns:xsi="http://www.w3.org/2001/XMLSchema-instance" xsi:schemaLocation="http://www.topografix.com/GPX/1/1 http://www.topografix.com/GPX/1/1/gpx.xsd http://www.garmin.com/xmlschemas/GpxExtensions/v3 http://www8.garmin.com/xmlschemas/GpxExtensionsv3.xsd http://www.garmin.com/xmlschemas/WaypointExtension/v1 http://www8.garmin.com/xmlschemas/WaypointExtensionv1.xsd http://www.garmin.com/xmlschemas/TrackPointExtension/v1 http://www.garmin.com/xmlschemas/TrackPointExtensionv1.xsd">
<metadata><link href="http://www.garmin.com"><text>Garmin International</text></link><time>2013-06-22T15:13:50Z</time></metadata>
<trk><name>heremence-grimentz_2007.gpx</name><extensions><gpxx:TrackExtension><gpxx:DisplayColor>Cyan</gpxx:DisplayColor></gpxx:TrackExtension></extensions><trkseg>
<trkpt lat="46.18035846" lon="7.40489244"><ele></ele><time>2014-4-30T13:5:40Z</time></trkpt>
<trkpt lat="46.18028604" lon="7.40488163"><ele></ele><time>2014-4-30T13:5:43Z</time></trkpt>
<trkpt lat="46.18023450" lon="7.40477434"><ele></ele><time>2014-4-30T13:5:46Z</time></trkpt>
<trkpt lat="46.18012788" lon="7.40480376"><ele></ele><time>2014-4-30T13:5:49Z</time></trkpt>
<trkpt lat="46.17980685" lon="7.40481257"><ele></ele><time>2014-4-30T13:5:52Z</time></trkpt>
<trkpt lat="46.17974323" lon="7.40476537"><ele></ele><time>2014-4-30T13:5:55Z</time></trkpt>
<trkpt lat="46.17944274" lon="7.40461526"><ele></ele><time>2014-4-30T13:5:58Z</time></trkpt>
<trkpt lat="46.17862836" lon="7.40433672"><ele></ele><time>2014-4-30T13:6:1Z</time></trkpt>
<trkpt lat="46.17799116" lon="7.40417428"><ele></ele><time>2014-4-30T13:6:4Z</time></trkpt>
<trkpt lat="46.17727107" lon="7.40397203"><ele></ele><time>2014-4-30T13:6:7Z</time></trkpt>
<trkpt lat="46.17704099" lon="7.40387714"><ele></ele><time>2014-4-30T13:6:10Z</time></trkpt>
<trkpt lat="46.17650916" lon="7.40349527"><ele></ele><time>2014-4-30T13:6:13Z</time></trkpt>
<trkpt lat="46.17634345" lon="7.40338337"><ele></ele><time>2014-4-30T13:6:16Z</time></trkpt>
<trkpt lat="46.17618813" lon="7.40328480"><ele></ele><time>2014-4-30T13:6:19Z</time></trkpt>
<trkpt lat="46.17586702" lon="7.40301364"><ele></ele><time>2014-4-30T13:6:22Z</time></trkpt>
<trkpt lat="46.17558639" lon="7.40317608"><ele></ele><time>2014-4-30T13:6:25Z</time></trkpt>
<trkpt lat="46.17551607" lon="7.40324305"><ele></ele><time>2014-4-30T13:6:28Z</time></trkpt>
<trkpt lat="46.17520007" lon="7.40314943"><ele></ele><time>2014-4-30T13:6:31Z</time></trkpt>
<trkpt lat="46.17521726" lon="7.40289638"><ele></ele><time>2014-4-30T13:6:34Z</time></trkpt>
<trkpt lat="46.17503185" lon="7.40242884"><ele></ele><time>2014-4-30T13:6:37Z</time></trkpt>
<trkpt lat="46.17486455" lon="7.40200245"><ele></ele><time>2014-4-30T13:6:40Z</time></trkpt>
<trkpt lat="46.17459306" lon="7.40167924"><ele></ele><time>2014-4-30T13:6:43Z</time></trkpt>
<trkpt lat="46.17451167" lon="7.40156868"><ele></ele><time>2014-4-30T13:6:46Z</time></trkpt>
<trkpt lat="46.17427798" lon="7.40133240"><ele></ele><time>2014-4-30T13:6:49Z</time></trkpt>
<trkpt lat="46.17412467" lon="7.40103266"><ele></ele><time>2014-4-30T13:6:52Z</time></trkpt>
<trkpt lat="46.17410934" lon="7.40091096"><ele></ele><time>2014-4-30T13:6:55Z</time></trkpt>
<trkpt lat="46.17405812" lon="7.40063779"><ele></ele><time>2014-4-30T13:6:58Z</time></trkpt>
<trkpt lat="46.17397757" lon="7.40041483"><ele></ele><time>2014-4-30T13:7:1Z</time></trkpt>
<trkpt lat="46.17357767" lon="7.40019288"><ele></ele><time>2014-4-30T13:7:4Z</time></trkpt>
<trkpt lat="46.17320719" lon="7.40059739"><ele></ele><time>2014-4-30T13:7:7Z</time></trkpt>
<trkpt lat="46.17314776" lon="7.40065757"><ele></ele><time>2014-4-30T13:7:10Z</time></trkpt>
<trkpt lat="46.17292380" lon="7.40085857"><ele></ele><time>2014-4-30T13:7:13Z</time></trkpt>
<trkpt lat="46.17272766" lon="7.40097256"><ele></ele><time>2014-4-30T13:7:16Z</time></trkpt>
<trkpt lat="46.17260629" lon="7.40104197"><ele></ele><time>2014-4-30T13:7:19Z</time></trkpt>
<trkpt lat="46.17201746" lon="7.40125529"><ele></ele><time>2014-4-30T13:7:22Z</time></trkpt>
<trkpt lat="46.17182493" lon="7.40115319"><ele></ele><time>2014-4-30T13:7:25Z</time></trkpt>
<trkpt lat="46.17168286" lon="7.40089738"><ele></ele><time>2014-4-30T13:7:28Z</time></trkpt>
<trkpt lat="46.17164506" lon="7.40071264"><ele></ele><time>2014-4-30T13:7:31Z</time></trkpt>
<trkpt lat="46.17152335" lon="7.40045766"><ele></ele><time>2014-4-30T13:7:34Z</time></trkpt>
<trkpt lat="46.17137382" lon="7.40028676"><ele></ele><time>2014-4-30T13:7:37Z</time></trkpt>
<trkpt lat="46.17123032" lon="7.40016866"><ele></ele><time>2014-4-30T13:7:40Z</time></trkpt>
<trkpt lat="46.17095028" lon="7.39998082"><ele></ele><time>2014-4-30T13:7:43Z</time></trkpt>
<trkpt lat="46.17084257" lon="7.39991074"><ele></ele><time>2014-4-30T13:7:46Z</time></trkpt>
<trkpt lat="46.17082246" lon="7.39990178"><ele></ele><time>2014-4-30T13:7:49Z</time></trkpt>
<trkpt lat="46.17061886" lon="7.39976792"><ele></ele><time>2014-4-30T13:7:52Z</time></trkpt>
<trkpt lat="46.17051786" lon="7.39959114"><ele></ele><time>2014-4-30T13:7:55Z</time></trkpt>
<trkpt lat="46.17028845" lon="7.39934765"><ele></ele><time>2014-4-30T13:7:58Z</time></trkpt>
<trkpt lat="46.17009675" lon="7.39910482"><ele></ele><time>2014-4-30T13:8:1Z</time></trkpt>
<trkpt lat="46.16995694" lon="7.39899578"><ele></ele><time>2014-4-30T13:8:4Z</time></trkpt>
<trkpt lat="46.16984010" lon="7.39886653"><ele></ele><time>2014-4-30T13:8:7Z</time></trkpt>
<trkpt lat="46.16975712" lon="7.39851625"><ele></ele><time>2014-4-30T13:8:10Z</time></trkpt>
<trkpt lat="46.16956769" lon="7.39838960"><ele></ele><time>2014-4-30T13:8:13Z</time></trkpt>
<trkpt lat="46.16920374" lon="7.39815390"><ele></ele><time>2014-4-30T13:8:16Z</time></trkpt>
<trkpt lat="46.16918614" lon="7.39813219"><ele></ele><time>2014-4-30T13:8:19Z</time></trkpt>
<trkpt lat="46.16881809" lon="7.39787336"><ele></ele><time>2014-4-30T13:8:22Z</time></trkpt>
<trkpt lat="46.16869848" lon="7.39761092"><ele></ele><time>2014-4-30T13:8:25Z</time></trkpt>
<trkpt lat="46.16857594" lon="7.39753087"><ele></ele><time>2014-4-30T13:8:28Z</time></trkpt>
<trkpt lat="46.16831107" lon="7.39724748"><ele></ele><time>2014-4-30T13:8:31Z</time></trkpt>
<trkpt lat="46.16795576" lon="7.39708822"><ele></ele><time>2014-4-30T13:8:34Z</time></trkpt>
<trkpt lat="46.16749006" lon="7.39687013"><ele></ele><time>2014-4-30T13:8:37Z</time></trkpt>
<trkpt lat="46.16700458" lon="7.39672445"><ele></ele><time>2014-4-30T13:8:40Z</time></trkpt>
<trkpt lat="46.16635499" lon="7.39646444"><ele></ele><time>2014-4-30T13:8:43Z</time></trkpt>
<trkpt lat="46.16592575" lon="7.39665463"><ele></ele><time>2014-4-30T13:8:46Z</time></trkpt>
<trkpt lat="46.16584394" lon="7.39667558"><ele></ele><time>2014-4-30T13:8:49Z</time></trkpt>
<trkpt lat="46.16561746" lon="7.39660878"><ele></ele><time>2014-4-30T13:8:52Z</time></trkpt>
<trkpt lat="46.16557983" lon="7.39658548"><ele></ele><time>2014-4-30T13:8:55Z</time></trkpt>
<trkpt lat="46.16591536" lon="7.39648959"><ele></ele><time>2014-4-30T13:8:58Z</time></trkpt>
<trkpt lat="46.16629128" lon="7.39625707"><ele></ele><time>2014-4-30T13:9:1Z</time></trkpt>
<trkpt lat="46.16681213" lon="7.39624106"><ele></ele><time>2014-4-30T13:9:4Z</time></trkpt>
<trkpt lat="46.16690643" lon="7.39623989"><ele></ele><time>2014-4-30T13:9:7Z</time></trkpt>
<trkpt lat="46.16668104" lon="7.39616127"><ele></ele><time>2014-4-30T13:9:10Z</time></trkpt>
<trkpt lat="46.16589457" lon="7.39628423"><ele></ele><time>2014-4-30T13:9:13Z</time></trkpt>
<trkpt lat="46.16567857" lon="7.39634248"><ele></ele><time>2014-4-30T13:9:16Z</time></trkpt>
<trkpt lat="46.16528839" lon="7.39625464"><ele></ele><time>2014-4-30T13:9:19Z</time></trkpt>
<trkpt lat="46.16498714" lon="7.39570705"><ele></ele><time>2014-4-30T13:9:22Z</time></trkpt>
<trkpt lat="46.16479059" lon="7.39546364"><ele></ele><time>2014-4-30T13:9:25Z</time></trkpt>
<trkpt lat="46.16450133" lon="7.39489987"><ele></ele><time>2014-4-30T13:9:28Z</time></trkpt>
<trkpt lat="46.16420754" lon="7.39472503"><ele></ele><time>2014-4-30T13:9:31Z</time></trkpt>
<trkpt lat="46.16414317" lon="7.39481404"><ele></ele><time>2014-4-30T13:9:34Z</time></trkpt>
<trkpt lat="46.16374570" lon="7.39517673"><ele></ele><time>2014-4-30T13:9:37Z</time></trkpt>
<trkpt lat="46.16365216" lon="7.39524236"><ele></ele><time>2014-4-30T13:9:40Z</time></trkpt>
<trkpt lat="46.16323516" lon="7.39561980"><ele></ele><time>2014-4-30T13:9:43Z</time></trkpt>
<trkpt lat="46.16299569" lon="7.39571460"><ele></ele><time>2014-4-30T13:9:46Z</time></trkpt>
<trkpt lat="46.16288773" lon="7.39571149"><ele></ele><time>2014-4-30T13:9:49Z</time></trkpt>
<trkpt lat="46.16253485" lon="7.39557068"><ele></ele><time>2014-4-30T13:9:52Z</time></trkpt>
<trkpt lat="46.16237869" lon="7.39548510"><ele></ele><time>2014-4-30T13:9:55Z</time></trkpt>
<trkpt lat="46.16209757" lon="7.39540312"><ele></ele><time>2014-4-30T13:9:58Z</time></trkpt>
<trkpt lat="46.16193789" lon="7.39526306"><ele></ele><time>2014-4-30T13:10:1Z</time></trkpt>
<trkpt lat="46.16186472" lon="7.39515628"><ele></ele><time>2014-4-30T13:10:4Z</time></trkpt>
<trkpt lat="46.16168065" lon="7.39502954"><ele></ele><time>2014-4-30T13:10:7Z</time></trkpt>
<trkpt lat="46.16134613" lon="7.39494774"><ele></ele><time>2014-4-30T13:10:10Z</time></trkpt>
<trkpt lat="46.16119928" lon="7.39483508"><ele></ele><time>2014-4-30T13:10:13Z</time></trkpt>
<trkpt lat="46.16081430" lon="7.39434684"><ele></ele><time>2014-4-30T13:10:16Z</time></trkpt>
<trkpt lat="46.16021113" lon="7.39376882"><ele></ele><time>2014-4-30T13:10:19Z</time></trkpt>
<trkpt lat="46.15981568" lon="7.39372029"><ele></ele><time>2014-4-30T13:10:22Z</time></trkpt>
<trkpt lat="46.15969565" lon="7.39373462"><ele></ele><time>2014-4-30T13:10:25Z</time></trkpt>
<trkpt lat="46.15938334" lon="7.39374954"><ele></ele><time>2014-4-30T13:10:28Z</time></trkpt>
<trkpt lat="46.15924604" lon="7.39372825"><ele></ele><time>2014-4-30T13:10:31Z</time></trkpt>
<trkpt lat="46.15917605" lon="7.39368509"><ele></ele><time>2014-4-30T13:10:34Z</time></trkpt>
<trkpt lat="46.15900607" lon="7.39350848"><ele></ele><time>2014-4-30T13:10:37Z</time></trkpt>
<trkpt lat="46.15898956" lon="7.39349649"><ele></ele><time>2014-4-30T13:10:40Z</time></trkpt>
<trkpt lat="46.15892703" lon="7.39343304"><ele></ele><time>2014-4-30T13:10:43Z</time></trkpt>
<trkpt lat="46.15878596" lon="7.39326809"><ele></ele><time>2014-4-30T13:10:46Z</time></trkpt>
<trkpt lat="46.15877314" lon="7.39325082"><ele></ele><time>2014-4-30T13:10:49Z</time></trkpt>
<trkpt lat="46.15873106" lon="7.39317220"><ele></ele><time>2014-4-30T13:10:52Z</time></trkpt>
<trkpt lat="46.15870189" lon="7.39287984"><ele></ele><time>2014-4-30T13:10:55Z</time></trkpt>
<trkpt lat="46.15873273" lon="7.39284547"><ele></ele><time>2014-4-30T13:10:58Z</time></trkpt>
<trkpt lat="46.15895536" lon="7.39303054"><ele></ele><time>2014-4-30T13:11:1Z</time></trkpt>
<trkpt lat="46.15912383" lon="7.39320229"><ele></ele><time>2014-4-30T13:11:4Z</time></trkpt>
<trkpt lat="46.15950194" lon="7.39337244"><ele></ele><time>2014-4-30T13:11:7Z</time></trkpt>
<trkpt lat="46.15956455" lon="7.39318863"><ele></ele><time>2014-4-30T13:11:10Z</time></trkpt>
<trkpt lat="46.15948300" lon="7.39315015"><ele></ele><time>2014-4-30T13:11:13Z</time></trkpt>
<trkpt lat="46.15925375" lon="7.39314722"><ele></ele><time>2014-4-30T13:11:16Z</time></trkpt>
<trkpt lat="46.15884438" lon="7.39298478"><ele></ele><time>2014-4-30T13:11:19Z</time></trkpt>
<trkpt lat="46.15866099" lon="7.39294178"><ele></ele><time>2014-4-30T13:11:22Z</time></trkpt>
<trkpt lat="46.15850265" lon="7.39296986"><ele></ele><time>2014-4-30T13:11:25Z</time></trkpt>
<trkpt lat="46.15835194" lon="7.39310548"><ele></ele><time>2014-4-30T13:11:28Z</time></trkpt>
<trkpt lat="46.15818162" lon="7.39301277"><ele></ele><time>2014-4-30T13:11:31Z</time></trkpt>
<trkpt lat="46.15799429" lon="7.39274145"><ele></ele><time>2014-4-30T13:11:34Z</time></trkpt>
<trkpt lat="46.15716733" lon="7.39250097"><ele></ele><time>2014-4-30T13:11:37Z</time></trkpt>
<trkpt lat="46.15629192" lon="7.39209487"><ele></ele><time>2014-4-30T13:11:40Z</time></trkpt>
<trkpt lat="46.15570955" lon="7.39179857"><ele></ele><time>2014-4-30T13:11:43Z</time></trkpt>
<trkpt lat="46.15547259" lon="7.39167955"><ele></ele><time>2014-4-30T13:11:46Z</time></trkpt>
<trkpt lat="46.15444195" lon="7.39117144"><ele></ele><time>2014-4-30T13:11:49Z</time></trkpt>
<trkpt lat="46.15377962" lon="7.39075737"><ele></ele><time>2014-4-30T13:11:52Z</time></trkpt>
<trkpt lat="46.15359739" lon="7.39069342"><ele></ele><time>2014-4-30T13:11:55Z</time></trkpt>
<trkpt lat="46.15337125" lon="7.39052620"><ele></ele><time>2014-4-30T13:11:58Z</time></trkpt>
<trkpt lat="46.15267379" lon="7.39040726"><ele></ele><time>2014-4-30T13:12:1Z</time></trkpt>
<trkpt lat="46.15189545" lon="7.39036233"><ele></ele><time>2014-4-30T13:12:4Z</time></trkpt>
<trkpt lat="46.15124853" lon="7.39037633"><ele></ele><time>2014-4-30T13:12:7Z</time></trkpt>
<trkpt lat="46.15061344" lon="7.39060700"><ele></ele><time>2014-4-30T13:12:10Z</time></trkpt>
<trkpt lat="46.14964969" lon="7.39077497"><ele></ele><time>2014-4-30T13:12:13Z</time></trkpt>
<trkpt lat="46.14917259" lon="7.39073122"><ele></ele><time>2014-4-30T13:12:16Z</time></trkpt>
<trkpt lat="46.14886187" lon="7.39067389"><ele></ele><time>2014-4-30T13:12:19Z</time></trkpt>
<trkpt lat="46.14840212" lon="7.39058127"><ele></ele><time>2014-4-30T13:12:22Z</time></trkpt>
<trkpt lat="46.14809199" lon="7.39053047"><ele></ele><time>2014-4-30T13:12:25Z</time></trkpt>
<trkpt lat="46.14770165" lon="7.39049359"><ele></ele><time>2014-4-30T13:12:28Z</time></trkpt>
<trkpt lat="46.14751356" lon="7.39057096"><ele></ele><time>2014-4-30T13:12:31Z</time></trkpt>
<trkpt lat="46.14731818" lon="7.39070674"><ele></ele><time>2014-4-30T13:12:34Z</time></trkpt>
<trkpt lat="46.14690713" lon="7.39088293"><ele></ele><time>2014-4-30T13:12:37Z</time></trkpt>
<trkpt lat="46.14651594" lon="7.39082602"><ele></ele><time>2014-4-30T13:12:40Z</time></trkpt>
<trkpt lat="46.14621679" lon="7.39070314"><ele></ele><time>2014-4-30T13:12:43Z</time></trkpt>
<trkpt lat="46.14616776" lon="7.39068353"><ele></ele><time>2014-4-30T13:12:46Z</time></trkpt>
<trkpt lat="46.14578797" lon="7.39058194"><ele></ele><time>2014-4-30T13:12:49Z</time></trkpt>
<trkpt lat="46.14542194" lon="7.39060247"><ele></ele><time>2014-4-30T13:12:52Z</time></trkpt>
<trkpt lat="46.14513477" lon="7.39064539"><ele></ele><time>2014-4-30T13:12:55Z</time></trkpt>
<trkpt lat="46.14479749" lon="7.39065654"><ele></ele><time>2014-4-30T13:12:58Z</time></trkpt>
<trkpt lat="46.14455852" lon="7.39064120"><ele></ele><time>2014-4-30T13:13:1Z</time></trkpt>
<trkpt lat="46.14420698" lon="7.39055176"><ele></ele><time>2014-4-30T13:13:4Z</time></trkpt>
<trkpt lat="46.14418108" lon="7.39054522"><ele></ele><time>2014-4-30T13:13:7Z</time></trkpt>
<trkpt lat="46.14381387" lon="7.39040944"><ele></ele><time>2014-4-30T13:13:10Z</time></trkpt>
<trkpt lat="46.14345437" lon="7.39023426"><ele></ele><time>2014-4-30T13:13:13Z</time></trkpt>
<trkpt lat="46.14319185" lon="7.39012915"><ele></ele><time>2014-4-30T13:13:16Z</time></trkpt>
<trkpt lat="46.14282858" lon="7.39005052"><ele></ele><time>2014-4-30T13:13:19Z</time></trkpt>
<trkpt lat="46.14253504" lon="7.39001817"><ele></ele><time>2014-4-30T13:13:22Z</time></trkpt>
<trkpt lat="46.14221108" lon="7.38997400"><ele></ele><time>2014-4-30T13:13:25Z</time></trkpt>
<trkpt lat="46.14198938" lon="7.38989512"><ele></ele><time>2014-4-30T13:13:28Z</time></trkpt>
<trkpt lat="46.14163122" lon="7.38975557"><ele></ele><time>2014-4-30T13:13:31Z</time></trkpt>
<trkpt lat="46.14155553" lon="7.38971466"><ele></ele><time>2014-4-30T13:13:34Z</time></trkpt>
<trkpt lat="46.14161965" lon="7.38965222"><ele></ele><time>2014-4-30T13:13:37Z</time></trkpt>
<trkpt lat="46.14195929" lon="7.38963847"><ele></ele><time>2014-4-30T13:13:40Z</time></trkpt>
<trkpt lat="46.14224863" lon="7.38956588"><ele></ele><time>2014-4-30T13:13:43Z</time></trkpt>
<trkpt lat="46.14263336" lon="7.38926288"><ele></ele><time>2014-4-30T13:13:46Z</time></trkpt>
<trkpt lat="46.14295875" lon="7.38906045"><ele></ele><time>2014-4-30T13:13:49Z</time></trkpt>
<trkpt lat="46.14323719" lon="7.38910245"><ele></ele><time>2014-4-30T13:13:52Z</time></trkpt>
<trkpt lat="46.14358949" lon="7.38912089"><ele></ele><time>2014-4-30T13:13:55Z</time></trkpt>
<trkpt lat="46.14392929" lon="7.38893548"><ele></ele><time>2014-4-30T13:13:58Z</time></trkpt>
<trkpt lat="46.14415208" lon="7.38888309"><ele></ele><time>2014-4-30T13:14:1Z</time></trkpt>
<trkpt lat="46.14417932" lon="7.38887857"><ele></ele><time>2014-4-30T13:14:4Z</time></trkpt>
<trkpt lat="46.14465893" lon="7.38890866"><ele></ele><time>2014-4-30T13:14:7Z</time></trkpt>
<trkpt lat="46.14499345" lon="7.38888863"><ele></ele><time>2014-4-30T13:14:10Z</time></trkpt>
<trkpt lat="46.14533837" lon="7.38874429"><ele></ele><time>2014-4-30T13:14:13Z</time></trkpt>
<trkpt lat="46.14563660" lon="7.38859224"><ele></ele><time>2014-4-30T13:14:16Z</time></trkpt>
<trkpt lat="46.14589149" lon="7.38839468"><ele></ele><time>2014-4-30T13:14:19Z</time></trkpt>
<trkpt lat="46.14621914" lon="7.38788917"><ele></ele><time>2014-4-30T13:14:22Z</time></trkpt>
<trkpt lat="46.14644595" lon="7.38759329"><ele></ele><time>2014-4-30T13:14:25Z</time></trkpt>
<trkpt lat="46.14653287" lon="7.38748340"><ele></ele><time>2014-4-30T13:14:28Z</time></trkpt>
<trkpt lat="46.14642165" lon="7.38743755"><ele></ele><time>2014-4-30T13:14:31Z</time></trkpt>
<trkpt lat="46.14634562" lon="7.38751978"><ele></ele><time>2014-4-30T13:14:34Z</time></trkpt>
<trkpt lat="46.14628712" lon="7.38757568"><ele></ele><time>2014-4-30T13:14:37Z</time></trkpt>
<trkpt lat="46.14615343" lon="7.38768758"><ele></ele><time>2014-4-30T13:14:40Z</time></trkpt>
<trkpt lat="46.14589828" lon="7.38780719"><ele></ele><time>2014-4-30T13:14:43Z</time></trkpt>
<trkpt lat="46.14587976" lon="7.38782044"><ele></ele><time>2014-4-30T13:14:46Z</time></trkpt>
<trkpt lat="46.14568404" lon="7.38790518"><ele></ele><time>2014-4-30T13:14:49Z</time></trkpt>
<trkpt lat="46.14546502" lon="7.38796268"><ele></ele><time>2014-4-30T13:14:52Z</time></trkpt>
<trkpt lat="46.14544138" lon="7.38796427"><ele></ele><time>2014-4-30T13:14:55Z</time></trkpt>
<trkpt lat="46.14518347" lon="7.38787777"><ele></ele><time>2014-4-30T13:14:58Z</time></trkpt>
<trkpt lat="46.14505925" lon="7.38781549"><ele></ele><time>2014-4-30T13:15:1Z</time></trkpt>
<trkpt lat="46.14480092" lon="7.38767727"><ele></ele><time>2014-4-30T13:15:4Z</time></trkpt>
<trkpt lat="46.14463789" lon="7.38757493"><ele></ele><time>2014-4-30T13:15:7Z</time></trkpt>
<trkpt lat="46.14458115" lon="7.38753528"><ele></ele><time>2014-4-30T13:15:10Z</time></trkpt>
<trkpt lat="46.14445609" lon="7.38746907"><ele></ele><time>2014-4-30T13:15:13Z</time></trkpt>
<trkpt lat="46.14425040" lon="7.38743579"><ele></ele><time>2014-4-30T13:15:16Z</time></trkpt>
<trkpt lat="46.14413724" lon="7.38741375"><ele></ele><time>2014-4-30T13:15:19Z</time></trkpt>
<trkpt lat="46.14399743" lon="7.38742976"><ele></ele><time>2014-4-30T13:15:22Z</time></trkpt>
<trkpt lat="46.14397430" lon="7.38743579"><ele></ele><time>2014-4-30T13:15:25Z</time></trkpt>
<trkpt lat="46.14385645" lon="7.38743185"><ele></ele><time>2014-4-30T13:15:28Z</time></trkpt>
<trkpt lat="46.14384430" lon="7.38742732"><ele></ele><time>2014-4-30T13:15:31Z</time></trkpt>
<trkpt lat="46.14382569" lon="7.38740997"><ele></ele><time>2014-4-30T13:15:34Z</time></trkpt>
<trkpt lat="46.14390180" lon="7.38730839"><ele></ele><time>2014-4-30T13:15:37Z</time></trkpt>
<trkpt lat="46.14395435" lon="7.38730336"><ele></ele><time>2014-4-30T13:15:40Z</time></trkpt>
<trkpt lat="46.14417748" lon="7.38711074"><ele></ele><time>2014-4-30T13:15:43Z</time></trkpt>
<trkpt lat="46.14439524" lon="7.38697948"><ele></ele><time>2014-4-30T13:15:46Z</time></trkpt>
<trkpt lat="46.14455877" lon="7.38693405"><ele></ele><time>2014-4-30T13:15:49Z</time></trkpt>
<trkpt lat="46.14470637" lon="7.38683565"><ele></ele><time>2014-4-30T13:15:52Z</time></trkpt>
<trkpt lat="46.14487376" lon="7.38683112"><ele></ele><time>2014-4-30T13:15:55Z</time></trkpt>
<trkpt lat="46.14500536" lon="7.38678703"><ele></ele><time>2014-4-30T13:15:58Z</time></trkpt>
<trkpt lat="46.14527609" lon="7.38668913"><ele></ele><time>2014-4-30T13:16:1Z</time></trkpt>
<trkpt lat="46.14549327" lon="7.38646584"><ele></ele><time>2014-4-30T13:16:4Z</time></trkpt>
<trkpt lat="46.14563484" lon="7.38625126"><ele></ele><time>2014-4-30T13:16:7Z</time></trkpt>
<trkpt lat="46.14564079" lon="7.38625629"><ele></ele><time>2014-4-30T13:16:10Z</time></trkpt>
<trkpt lat="46.14552696" lon="7.38637456"><ele></ele><time>2014-4-30T13:16:13Z</time></trkpt>
<trkpt lat="46.14541540" lon="7.38648428"><ele></ele><time>2014-4-30T13:16:16Z</time></trkpt>
<trkpt lat="46.14511600" lon="7.38656667"><ele></ele><time>2014-4-30T13:16:19Z</time></trkpt>
<trkpt lat="46.14495448" lon="7.38652560"><ele></ele><time>2014-4-30T13:16:22Z</time></trkpt>
<trkpt lat="46.14478684" lon="7.38648947"><ele></ele><time>2014-4-30T13:16:25Z</time></trkpt>
<trkpt lat="46.14457268" lon="7.38647858"><ele></ele><time>2014-4-30T13:16:28Z</time></trkpt>
<trkpt lat="46.14415082" lon="7.38661336"><ele></ele><time>2014-4-30T13:16:31Z</time></trkpt>
<trkpt lat="46.14377866" lon="7.38692525"><ele></ele><time>2014-4-30T13:16:34Z</time></trkpt>
<trkpt lat="46.14370759" lon="7.38694444"><ele></ele><time>2014-4-30T13:16:37Z</time></trkpt>
<trkpt lat="46.14332789" lon="7.38709314"><ele></ele><time>2014-4-30T13:16:40Z</time></trkpt>
<trkpt lat="46.14318967" lon="7.38721065"><ele></ele><time>2014-4-30T13:16:43Z</time></trkpt>
<trkpt lat="46.14291726" lon="7.38743302"><ele></ele><time>2014-4-30T13:16:46Z</time></trkpt>
<trkpt lat="46.14268365" lon="7.38745356"><ele></ele><time>2014-4-30T13:16:49Z</time></trkpt>
<trkpt lat="46.14244569" lon="7.38752564"><ele></ele><time>2014-4-30T13:16:52Z</time></trkpt>
<trkpt lat="46.14182216" lon="7.38775925"><ele></ele><time>2014-4-30T13:16:55Z</time></trkpt>
<trkpt lat="46.14175284" lon="7.38779219"><ele></ele><time>2014-4-30T13:16:58Z</time></trkpt>
<trkpt lat="46.14126175" lon="7.38789378"><ele></ele><time>2014-4-30T13:17:1Z</time></trkpt>
<trkpt lat="46.14085950" lon="7.38791398"><ele></ele><time>2014-4-30T13:17:4Z</time></trkpt>
<trkpt lat="46.14023186" lon="7.38789772"><ele></ele><time>2014-4-30T13:17:7Z</time></trkpt>
<trkpt lat="46.13993456" lon="7.38789663"><ele></ele><time>2014-4-30T13:17:10Z</time></trkpt>
<trkpt lat="46.13963415" lon="7.38788590"><ele></ele><time>2014-4-30T13:17:13Z</time></trkpt>
<trkpt lat="46.13957866" lon="7.38789872"><ele></ele><time>2014-4-30T13:17:16Z</time></trkpt>
<trkpt lat="46.13932955" lon="7.38799838"><ele></ele><time>2014-4-30T13:17:19Z</time></trkpt>
<trkpt lat="46.13930608" lon="7.38801062"><ele></ele><time>2014-4-30T13:17:22Z</time></trkpt>
<trkpt lat="46.13882890" lon="7.38822034"><ele></ele><time>2014-4-30T13:17:25Z</time></trkpt>
<trkpt lat="46.13850544" lon="7.38814934"><ele></ele><time>2014-4-30T13:17:28Z</time></trkpt>
<trkpt lat="46.13828424" lon="7.38818170"><ele></ele><time>2014-4-30T13:17:31Z</time></trkpt>
<trkpt lat="46.13805098" lon="7.38834598"><ele></ele><time>2014-4-30T13:17:34Z</time></trkpt>
<trkpt lat="46.13730423" lon="7.38867857"><ele></ele><time>2014-4-30T13:17:37Z</time></trkpt>
<trkpt lat="46.13678254" lon="7.38866935"><ele></ele><time>2014-4-30T13:17:40Z</time></trkpt>
<trkpt lat="46.13646084" lon="7.38873214"><ele></ele><time>2014-4-30T13:17:43Z</time></trkpt>
<trkpt lat="46.13602834" lon="7.38854354"><ele></ele><time>2014-4-30T13:17:46Z</time></trkpt>
<trkpt lat="46.13577252" lon="7.38852443"><ele></ele><time>2014-4-30T13:17:49Z</time></trkpt>
<trkpt lat="46.13507649" lon="7.38867388"><ele></ele><time>2014-4-30T13:17:52Z</time></trkpt>
<trkpt lat="46.13481548" lon="7.38853508"><ele></ele><time>2014-4-30T13:17:55Z</time></trkpt>
<trkpt lat="46.13445212" lon="7.38831447"><ele></ele><time>2014-4-30T13:17:58Z</time></trkpt>
<trkpt lat="46.13434886" lon="7.38822830"><ele></ele><time>2014-4-30T13:18:1Z</time></trkpt>
<trkpt lat="46.13418398" lon="7.38824473"><ele></ele><time>2014-4-30T13:18:4Z</time></trkpt>
<trkpt lat="46.13388752" lon="7.38855888"><ele></ele><time>2014-4-30T13:18:7Z</time></trkpt>
<trkpt lat="46.13372315" lon="7.38879316"><ele></ele><time>2014-4-30T13:18:10Z</time></trkpt>
<trkpt lat="46.13357387" lon="7.38914067"><ele></ele><time>2014-4-30T13:18:13Z</time></trkpt>
<trkpt lat="46.13340447" lon="7.38936447"><ele></ele><time>2014-4-30T13:18:16Z</time></trkpt>
<trkpt lat="46.13311454" lon="7.38951115"><ele></ele><time>2014-4-30T13:18:19Z</time></trkpt>
<trkpt lat="46.13218004" lon="7.38994743"><ele></ele><time>2014-4-30T13:18:22Z</time></trkpt>
<trkpt lat="46.13192883" lon="7.39001566"><ele></ele><time>2014-4-30T13:18:25Z</time></trkpt>
<trkpt lat="46.13178852" lon="7.39001515"><ele></ele><time>2014-4-30T13:18:28Z</time></trkpt>
<trkpt lat="46.13150018" lon="7.39016938"><ele></ele><time>2014-4-30T13:18:31Z</time></trkpt>
<trkpt lat="46.13137085" lon="7.39028882"><ele></ele><time>2014-4-30T13:18:34Z</time></trkpt>
<trkpt lat="46.13124856" lon="7.39038236"><ele></ele><time>2014-4-30T13:18:37Z</time></trkpt>
<trkpt lat="46.13105209" lon="7.39052787"><ele></ele><time>2014-4-30T13:18:40Z</time></trkpt>
<trkpt lat="46.13072217" lon="7.39061756"><ele></ele><time>2014-4-30T13:18:43Z</time></trkpt>
<trkpt lat="46.13038925" lon="7.39062519"><ele></ele><time>2014-4-30T13:18:46Z</time></trkpt>
<trkpt lat="46.13005850" lon="7.39063592"><ele></ele><time>2014-4-30T13:18:49Z</time></trkpt>
<trkpt lat="46.12976622" lon="7.39070473"><ele></ele><time>2014-4-30T13:18:52Z</time></trkpt>
<trkpt lat="46.12930966" lon="7.39058722"><ele></ele><time>2014-4-30T13:18:55Z</time></trkpt>
<trkpt lat="46.12888226" lon="7.39021280"><ele></ele><time>2014-4-30T13:18:58Z</time></trkpt>
<trkpt lat="46.12891093" lon="7.39043618"><ele></ele><time>2014-4-30T13:19:1Z</time></trkpt>
<trkpt lat="46.12907270" lon="7.39060038"><ele></ele><time>2014-4-30T13:19:4Z</time></trkpt>
<trkpt lat="46.12899466" lon="7.39071613"><ele></ele><time>2014-4-30T13:19:7Z</time></trkpt>
<trkpt lat="46.12903548" lon="7.39096826"><ele></ele><time>2014-4-30T13:19:10Z</time></trkpt>
<trkpt lat="46.12904906" lon="7.39098159"><ele></ele><time>2014-4-30T13:19:13Z</time></trkpt>
<trkpt lat="46.12914026" lon="7.39111444"><ele></ele><time>2014-4-30T13:19:16Z</time></trkpt>
<trkpt lat="46.12916373" lon="7.39113447"><ele></ele><time>2014-4-30T13:19:19Z</time></trkpt>
<trkpt lat="46.12918627" lon="7.39117320"><ele></ele><time>2014-4-30T13:19:22Z</time></trkpt>
<trkpt lat="46.12928795" lon="7.39130144"><ele></ele><time>2014-4-30T13:19:25Z</time></trkpt>
<trkpt lat="46.12937788" lon="7.39135257"><ele></ele><time>2014-4-30T13:19:28Z</time></trkpt>
<trkpt lat="46.12944905" lon="7.39141828"><ele></ele><time>2014-4-30T13:19:31Z</time></trkpt>
<trkpt lat="46.12945399" lon="7.39142708"><ele></ele><time>2014-4-30T13:19:34Z</time></trkpt>
<trkpt lat="46.12949632" lon="7.39147997"><ele></ele><time>2014-4-30T13:19:37Z</time></trkpt>
<trkpt lat="46.12958374" lon="7.39154242"><ele></ele><time>2014-4-30T13:19:40Z</time></trkpt>
<trkpt lat="46.12960688" lon="7.39153462"><ele></ele><time>2014-4-30T13:19:43Z</time></trkpt>
<trkpt lat="46.12970285" lon="7.39147863"><ele></ele><time>2014-4-30T13:19:46Z</time></trkpt>
<trkpt lat="46.12999655" lon="7.39161350"><ele></ele><time>2014-4-30T13:19:49Z</time></trkpt>
<trkpt lat="46.13005606" lon="7.39160922"><ele></ele><time>2014-4-30T13:19:52Z</time></trkpt>
<trkpt lat="46.13012714" lon="7.39162272"><ele></ele><time>2014-4-30T13:19:55Z</time></trkpt>
<trkpt lat="46.13034717" lon="7.39173537"><ele></ele><time>2014-4-30T13:19:58Z</time></trkpt>
<trkpt lat="46.13036619" lon="7.39174426"><ele></ele><time>2014-4-30T13:20:1Z</time></trkpt>
<trkpt lat="46.13055294" lon="7.39178935"><ele></ele><time>2014-4-30T13:20:4Z</time></trkpt>
<trkpt lat="46.13074455" lon="7.39186403"><ele></ele><time>2014-4-30T13:20:7Z</time></trkpt>
<trkpt lat="46.13076224" lon="7.39194827"><ele></ele><time>2014-4-30T13:20:10Z</time></trkpt>
<trkpt lat="46.13086584" lon="7.39204022"><ele></ele><time>2014-4-30T13:20:13Z</time></trkpt>
<trkpt lat="46.13091705" lon="7.39210116"><ele></ele><time>2014-4-30T13:20:16Z</time></trkpt>
<trkpt lat="46.13094103" lon="7.39218322"><ele></ele><time>2014-4-30T13:20:19Z</time></trkpt>
<trkpt lat="46.13102937" lon="7.39233736"><ele></ele><time>2014-4-30T13:20:22Z</time></trkpt>
<trkpt lat="46.13104245" lon="7.39239117"><ele></ele><time>2014-4-30T13:20:25Z</time></trkpt>
<trkpt lat="46.13108260" lon="7.39252402"><ele></ele><time>2014-4-30T13:20:28Z</time></trkpt>
<trkpt lat="46.13107447" lon="7.39252947"><ele></ele><time>2014-4-30T13:20:31Z</time></trkpt>
<trkpt lat="46.13077833" lon="7.39233376"><ele></ele><time>2014-4-30T13:20:34Z</time></trkpt>
<trkpt lat="46.13069736" lon="7.39231523"><ele></ele><time>2014-4-30T13:20:37Z</time></trkpt>
<trkpt lat="46.13070784" lon="7.39250349"><ele></ele><time>2014-4-30T13:20:40Z</time></trkpt>
<trkpt lat="46.13106189" lon="7.39281898"><ele></ele><time>2014-4-30T13:20:43Z</time></trkpt>
<trkpt lat="46.13132324" lon="7.39312744"><ele></ele><time>2014-4-30T13:20:46Z</time></trkpt>
<trkpt lat="46.13162633" lon="7.39339583"><ele></ele><time>2014-4-30T13:20:49Z</time></trkpt>
<trkpt lat="46.13200762" lon="7.39369682"><ele></ele><time>2014-4-30T13:20:52Z</time></trkpt>
<trkpt lat="46.13226134" lon="7.39395624"><ele></ele><time>2014-4-30T13:20:55Z</time></trkpt>
<trkpt lat="46.13263006" lon="7.39418490"><ele></ele><time>2014-4-30T13:20:58Z</time></trkpt>
<trkpt lat="46.13279887" lon="7.39426394"><ele></ele><time>2014-4-30T13:21:1Z</time></trkpt>
<trkpt lat="46.13310733" lon="7.39445983"><ele></ele><time>2014-4-30T13:21:4Z</time></trkpt>
<trkpt lat="46.13330212" lon="7.39465378"><ele></ele><time>2014-4-30T13:21:7Z</time></trkpt>
<trkpt lat="46.13351653" lon="7.39489602"><ele></ele><time>2014-4-30T13:21:10Z</time></trkpt>
<trkpt lat="46.13386405" lon="7.39523373"><ele></ele><time>2014-4-30T13:21:13Z</time></trkpt>
<trkpt lat="46.13402473" lon="7.39541737"><ele></ele><time>2014-4-30T13:21:16Z</time></trkpt>
<trkpt lat="46.13437300" lon="7.39567822"><ele></ele><time>2014-4-30T13:21:19Z</time></trkpt>
<trkpt lat="46.13438247" lon="7.39570873"><ele></ele><time>2014-4-30T13:21:22Z</time></trkpt>
<trkpt lat="46.13428365" lon="7.39579909"><ele></ele><time>2014-4-30T13:21:25Z</time></trkpt>
<trkpt lat="46.13394644" lon="7.39558845"><ele></ele><time>2014-4-30T13:21:28Z</time></trkpt>
<trkpt lat="46.13359448" lon="7.39543774"><ele></ele><time>2014-4-30T13:21:31Z</time></trkpt>
<trkpt lat="46.13333800" lon="7.39538066"><ele></ele><time>2014-4-30T13:21:34Z</time></trkpt>
<trkpt lat="46.13296467" lon="7.39529399"><ele></ele><time>2014-4-30T13:21:37Z</time></trkpt>
<trkpt lat="46.13265244" lon="7.39507455"><ele></ele><time>2014-4-30T13:21:40Z</time></trkpt>
<trkpt lat="46.13225196" lon="7.39494438"><ele></ele><time>2014-4-30T13:21:43Z</time></trkpt>
<trkpt lat="46.13193135" lon="7.39483793"><ele></ele><time>2014-4-30T13:21:46Z</time></trkpt>
<trkpt lat="46.13163077" lon="7.39475613"><ele></ele><time>2014-4-30T13:21:49Z</time></trkpt>
<trkpt lat="46.13153564" lon="7.39472838"><ele></ele><time>2014-4-30T13:21:52Z</time></trkpt>
<trkpt lat="46.13133414" lon="7.39468622"><ele></ele><time>2014-4-30T13:21:55Z</time></trkpt>
<trkpt lat="46.13107455" lon="7.39466015"><ele></ele><time>2014-4-30T13:21:58Z</time></trkpt>
<trkpt lat="46.13089593" lon="7.39456410"><ele></ele><time>2014-4-30T13:22:1Z</time></trkpt>
<trkpt lat="46.13062738" lon="7.39438715"><ele></ele><time>2014-4-30T13:22:4Z</time></trkpt>
<trkpt lat="46.13033904" lon="7.39431993"><ele></ele><time>2014-4-30T13:22:7Z</time></trkpt>
<trkpt lat="46.13021515" lon="7.39431960"><ele></ele><time>2014-4-30T13:22:10Z</time></trkpt>
<trkpt lat="46.13012178" lon="7.39432496"><ele></ele><time>2014-4-30T13:22:13Z</time></trkpt>
<trkpt lat="46.12985892" lon="7.39433669"><ele></ele><time>2014-4-30T13:22:16Z</time></trkpt>
<trkpt lat="46.12960143" lon="7.39431247"><ele></ele><time>2014-4-30T13:22:19Z</time></trkpt>
<trkpt lat="46.12940085" lon="7.39425338"><ele></ele><time>2014-4-30T13:22:22Z</time></trkpt>
<trkpt lat="46.12899986" lon="7.39400972"><ele></ele><time>2014-4-30T13:22:25Z</time></trkpt>
<trkpt lat="46.12843207" lon="7.39389086"><ele></ele><time>2014-4-30T13:22:28Z</time></trkpt>
<trkpt lat="46.12784408" lon="7.39392556"><ele></ele><time>2014-4-30T13:22:31Z</time></trkpt>
<trkpt lat="46.12743932" lon="7.39394870"><ele></ele><time>2014-4-30T13:22:34Z</time></trkpt>
<trkpt lat="46.12700773" lon="7.39405464"><ele></ele><time>2014-4-30T13:22:37Z</time></trkpt>
<trkpt lat="46.12672945" lon="7.39420359"><ele></ele><time>2014-4-30T13:22:40Z</time></trkpt>
<trkpt lat="46.12652569" lon="7.39427609"><ele></ele><time>2014-4-30T13:22:43Z</time></trkpt>
<trkpt lat="46.12599294" lon="7.39442152"><ele></ele><time>2014-4-30T13:22:46Z</time></trkpt>
<trkpt lat="46.12567644" lon="7.39484866"><ele></ele><time>2014-4-30T13:22:49Z</time></trkpt>
<trkpt lat="46.12545096" lon="7.39514655"><ele></ele><time>2014-4-30T13:22:52Z</time></trkpt>
<trkpt lat="46.12515978" lon="7.39535895"><ele></ele><time>2014-4-30T13:22:55Z</time></trkpt>
<trkpt lat="46.12494637" lon="7.39552307"><ele></ele><time>2014-4-30T13:22:58Z</time></trkpt>
<trkpt lat="46.12504520" lon="7.39565710"><ele></ele><time>2014-4-30T13:23:1Z</time></trkpt>
<trkpt lat="46.12545658" lon="7.39544168"><ele></ele><time>2014-4-30T13:23:4Z</time></trkpt>
<trkpt lat="46.12568926" lon="7.39536515"><ele></ele><time>2014-4-30T13:23:7Z</time></trkpt>
<trkpt lat="46.12595664" lon="7.39535074"><ele></ele><time>2014-4-30T13:23:10Z</time></trkpt>
<trkpt lat="46.12635612" lon="7.39531780"><ele></ele><time>2014-4-30T13:23:13Z</time></trkpt>
<trkpt lat="46.12666366" lon="7.39529156"><ele></ele><time>2014-4-30T13:23:16Z</time></trkpt>
<trkpt lat="46.12698116" lon="7.39533699"><ele></ele><time>2014-4-30T13:23:19Z</time></trkpt>
<trkpt lat="46.12734159" lon="7.39548527"><ele></ele><time>2014-4-30T13:23:22Z</time></trkpt>
<trkpt lat="46.12736614" lon="7.39549533"><ele></ele><time>2014-4-30T13:23:25Z</time></trkpt>
<trkpt lat="46.12778935" lon="7.39568274"><ele></ele><time>2014-4-30T13:23:28Z</time></trkpt>
<trkpt lat="46.12783578" lon="7.39570554"><ele></ele><time>2014-4-30T13:23:31Z</time></trkpt>
<trkpt lat="46.12806603" lon="7.39579682"><ele></ele><time>2014-4-30T13:23:34Z</time></trkpt>
<trkpt lat="46.12846417" lon="7.39594585"><ele></ele><time>2014-4-30T13:23:37Z</time></trkpt>
<trkpt lat="46.12871446" lon="7.39607644"><ele></ele><time>2014-4-30T13:23:40Z</time></trkpt>
<trkpt lat="46.12903012" lon="7.39622975"><ele></ele><time>2014-4-30T13:23:43Z</time></trkpt>
<trkpt lat="46.12944678" lon="7.39658640"><ele></ele><time>2014-4-30T13:23:46Z</time></trkpt>
<trkpt lat="46.12971132" lon="7.39686124"><ele></ele><time>2014-4-30T13:23:49Z</time></trkpt>
<trkpt lat="46.12992573" lon="7.39706542"><ele></ele><time>2014-4-30T13:23:52Z</time></trkpt>
<trkpt lat="46.13022605" lon="7.39736717"><ele></ele><time>2014-4-30T13:23:55Z</time></trkpt>
<trkpt lat="46.13046049" lon="7.39766297"><ele></ele><time>2014-4-30T13:23:58Z</time></trkpt>
<trkpt lat="46.13064799" lon="7.39814845"><ele></ele><time>2014-4-30T13:24:1Z</time></trkpt>
<trkpt lat="46.13079937" lon="7.39840410"><ele></ele><time>2014-4-30T13:24:4Z</time></trkpt>
<trkpt lat="46.13081588" lon="7.39843067"><ele></ele><time>2014-4-30T13:24:7Z</time></trkpt>
<trkpt lat="46.13108075" lon="7.39865690"><ele></ele><time>2014-4-30T13:24:10Z</time></trkpt>
<trkpt lat="46.13133799" lon="7.39882403"><ele></ele><time>2014-4-30T13:24:13Z</time></trkpt>
<trkpt lat="46.13164846" lon="7.39912083"><ele></ele><time>2014-4-30T13:24:16Z</time></trkpt>
<trkpt lat="46.13183797" lon="7.39929233"><ele></ele><time>2014-4-30T13:24:19Z</time></trkpt>
<trkpt lat="46.13199245" lon="7.39941604"><ele></ele><time>2014-4-30T13:24:22Z</time></trkpt>
<trkpt lat="46.13234726" lon="7.39961863"><ele></ele><time>2014-4-30T13:24:25Z</time></trkpt>
<trkpt lat="46.13264783" lon="7.39986934"><ele></ele><time>2014-4-30T13:24:28Z</time></trkpt>
<trkpt lat="46.13299116" lon="7.40002340"><ele></ele><time>2014-4-30T13:24:31Z</time></trkpt>
<trkpt lat="46.13318084" lon="7.40008844"><ele></ele><time>2014-4-30T13:24:34Z</time></trkpt>
<trkpt lat="46.13311454" lon="7.40023797"><ele></ele><time>2014-4-30T13:24:37Z</time></trkpt>
<trkpt lat="46.13275923" lon="7.40015508"><ele></ele><time>2014-4-30T13:24:40Z</time></trkpt>
<trkpt lat="46.13247584" lon="7.40008073"><ele></ele><time>2014-4-30T13:24:43Z</time></trkpt>
<trkpt lat="46.13236880" lon="7.40007210"><ele></ele><time>2014-4-30T13:24:46Z</time></trkpt>
<trkpt lat="46.13195146" lon="7.39991426"><ele></ele><time>2014-4-30T13:24:49Z</time></trkpt>
<trkpt lat="46.13159079" lon="7.39987252"><ele></ele><time>2014-4-30T13:24:52Z</time></trkpt>
<trkpt lat="46.13156875" lon="7.39987034"><ele></ele><time>2014-4-30T13:24:55Z</time></trkpt>
<trkpt lat="46.13126809" lon="7.39984277"><ele></ele><time>2014-4-30T13:24:58Z</time></trkpt>
<trkpt lat="46.13089208" lon="7.39976456"><ele></ele><time>2014-4-30T13:25:1Z</time></trkpt>
<trkpt lat="46.13083407" lon="7.39959257"><ele></ele><time>2014-4-30T13:25:4Z</time></trkpt>
<trkpt lat="46.13054356" lon="7.39942116"><ele></ele><time>2014-4-30T13:25:7Z</time></trkpt>
<trkpt lat="46.13023619" lon="7.39948905"><ele></ele><time>2014-4-30T13:25:10Z</time></trkpt>
<trkpt lat="46.12986982" lon="7.39963448"><ele></ele><time>2014-4-30T13:25:13Z</time></trkpt>
<trkpt lat="46.12984895" lon="7.39964353"><ele></ele><time>2014-4-30T13:25:16Z</time></trkpt>
<trkpt lat="46.12960319" lon="7.39978267"><ele></ele><time>2014-4-30T13:25:19Z</time></trkpt>
<trkpt lat="46.12929985" lon="7.39997839"><ele></ele><time>2014-4-30T13:25:22Z</time></trkpt>
<trkpt lat="46.12901822" lon="7.39998987"><ele></ele><time>2014-4-30T13:25:25Z</time></trkpt>
<trkpt lat="46.12876324" lon="7.39979767"><ele></ele><time>2014-4-30T13:25:28Z</time></trkpt>
<trkpt lat="46.12849569" lon="7.39959676"><ele></ele><time>2014-4-30T13:25:31Z</time></trkpt>
<trkpt lat="46.12818053" lon="7.39956482"><ele></ele><time>2014-4-30T13:25:34Z</time></trkpt>
<trkpt lat="46.12815907" lon="7.39956575"><ele></ele><time>2014-4-30T13:25:37Z</time></trkpt>
<trkpt lat="46.12778717" lon="7.39962073"><ele></ele><time>2014-4-30T13:25:40Z</time></trkpt>
<trkpt lat="46.12745365" lon="7.39967437"><ele></ele><time>2014-4-30T13:25:43Z</time></trkpt>
<trkpt lat="46.12743228" lon="7.39967748"><ele></ele><time>2014-4-30T13:25:46Z</time></trkpt>
<trkpt lat="46.12714905" lon="7.39972626"><ele></ele><time>2014-4-30T13:25:49Z</time></trkpt>
<trkpt lat="46.12681956" lon="7.39987370"><ele></ele><time>2014-4-30T13:25:52Z</time></trkpt>
<trkpt lat="46.12656123" lon="7.40009833"><ele></ele><time>2014-4-30T13:25:55Z</time></trkpt>
<trkpt lat="46.12622612" lon="7.40023504"><ele></ele><time>2014-4-30T13:25:58Z</time></trkpt>
<trkpt lat="46.12599386" lon="7.40024543"><ele></ele><time>2014-4-30T13:26:1Z</time></trkpt>
<trkpt lat="46.12563235" lon="7.40021165"><ele></ele><time>2014-4-30T13:26:4Z</time></trkpt>
<trkpt lat="46.12535315" lon="7.40019707"><ele></ele><time>2014-4-30T13:26:7Z</time></trkpt>
<trkpt lat="46.12506154" lon="7.40029732"><ele></ele><time>2014-4-30T13:26:10Z</time></trkpt>
<trkpt lat="46.12479206" lon="7.40053645"><ele></ele><time>2014-4-30T13:26:13Z</time></trkpt>
<trkpt lat="46.12454756" lon="7.40074198"><ele></ele><time>2014-4-30T13:26:16Z</time></trkpt>
<trkpt lat="46.12433743" lon="7.40094507"><ele></ele><time>2014-4-30T13:26:19Z</time></trkpt>
<trkpt lat="46.12402654" lon="7.40116476"><ele></ele><time>2014-4-30T13:26:22Z</time></trkpt>
<trkpt lat="46.12374919" lon="7.40128236"><ele></ele><time>2014-4-30T13:26:25Z</time></trkpt>
<trkpt lat="46.12348566" lon="7.40137506"><ele></ele><time>2014-4-30T13:26:28Z</time></trkpt>
<trkpt lat="46.12321258" lon="7.40156366"><ele></ele><time>2014-4-30T13:26:31Z</time></trkpt>
<trkpt lat="46.12290496" lon="7.40178125"><ele></ele><time>2014-4-30T13:26:34Z</time></trkpt>
<trkpt lat="46.12264956" lon="7.40206615"><ele></ele><time>2014-4-30T13:26:37Z</time></trkpt>
<trkpt lat="46.12280438" lon="7.40209792"><ele></ele><time>2014-4-30T13:26:40Z</time></trkpt>
<trkpt lat="46.12322557" lon="7.40185258"><ele></ele><time>2014-4-30T13:26:43Z</time></trkpt>
<trkpt lat="46.12354777" lon="7.40195232"><ele></ele><time>2014-4-30T13:26:46Z</time></trkpt>
<trkpt lat="46.12387919" lon="7.40222499"><ele></ele><time>2014-4-30T13:26:49Z</time></trkpt>
<trkpt lat="46.12419477" lon="7.40237050"><ele></ele><time>2014-4-30T13:26:52Z</time></trkpt>
<trkpt lat="46.12452359" lon="7.40240763"><ele></ele><time>2014-4-30T13:26:55Z</time></trkpt>
<trkpt lat="46.12483707" lon="7.40252707"><ele></ele><time>2014-4-30T13:26:58Z</time></trkpt>
<trkpt lat="46.12509264" lon="7.40270477"><ele></ele><time>2014-4-30T13:27:1Z</time></trkpt>
<trkpt lat="46.12537653" lon="7.40287467"><ele></ele><time>2014-4-30T13:27:4Z</time></trkpt>
<trkpt lat="46.12562707" lon="7.40300702"><ele></ele><time>2014-4-30T13:27:7Z</time></trkpt>
<trkpt lat="46.12591750" lon="7.40308078"><ele></ele><time>2014-4-30T13:27:10Z</time></trkpt>
<trkpt lat="46.12602898" lon="7.40308505"><ele></ele><time>2014-4-30T13:27:13Z</time></trkpt>
<trkpt lat="46.12637088" lon="7.40310173"><ele></ele><time>2014-4-30T13:27:16Z</time></trkpt>
<trkpt lat="46.12665444" lon="7.40323056"><ele></ele><time>2014-4-30T13:27:19Z</time></trkpt>
<trkpt lat="46.12693196" lon="7.40351563"><ele></ele><time>2014-4-30T13:27:22Z</time></trkpt>
<trkpt lat="46.12699214" lon="7.40361303"><ele></ele><time>2014-4-30T13:27:25Z</time></trkpt>
<trkpt lat="46.12731912" lon="7.40402089"><ele></ele><time>2014-4-30T13:27:28Z</time></trkpt>
<trkpt lat="46.12750964" lon="7.40413036"><ele></ele><time>2014-4-30T13:27:31Z</time></trkpt>
<trkpt lat="46.12781215" lon="7.40430445"><ele></ele><time>2014-4-30T13:27:34Z</time></trkpt>
<trkpt lat="46.12814097" lon="7.40439355"><ele></ele><time>2014-4-30T13:27:37Z</time></trkpt>
<trkpt lat="46.12847532" lon="7.40427252"><ele></ele><time>2014-4-30T13:27:40Z</time></trkpt>
<trkpt lat="46.12876299" lon="7.40409164"><ele></ele><time>2014-4-30T13:27:43Z</time></trkpt>
<trkpt lat="46.12889995" lon="7.40400765"><ele></ele><time>2014-4-30T13:27:46Z</time></trkpt>
<trkpt lat="46.12918929" lon="7.40382417"><ele></ele><time>2014-4-30T13:27:49Z</time></trkpt>
<trkpt lat="46.12937856" lon="7.40368076"><ele></ele><time>2014-4-30T13:27:52Z</time></trkpt>
<trkpt lat="46.12954485" lon="7.40376994"><ele></ele><time>2014-4-30T13:27:55Z</time></trkpt>
<trkpt lat="46.12942290" lon="7.40403866"><ele></ele><time>2014-4-30T13:27:58Z</time></trkpt>
<trkpt lat="46.12918292" lon="7.40428685"><ele></ele><time>2014-4-30T13:28:1Z</time></trkpt>
<trkpt lat="46.12891939" lon="7.40466353"><ele></ele><time>2014-4-30T13:28:4Z</time></trkpt>
<trkpt lat="46.12888503" lon="7.40470259"><ele></ele><time>2014-4-30T13:28:7Z</time></trkpt>
<trkpt lat="46.12854883" lon="7.40518908"><ele></ele><time>2014-4-30T13:28:10Z</time></trkpt>
<trkpt lat="46.12839804" lon="7.40536292"><ele></ele><time>2014-4-30T13:28:13Z</time></trkpt>
<trkpt lat="46.12837734" lon="7.40538262"><ele></ele><time>2014-4-30T13:28:16Z</time></trkpt>
<trkpt lat="46.12796495" lon="7.40569468"><ele></ele><time>2014-4-30T13:28:19Z</time></trkpt>
<trkpt lat="46.12808917" lon="7.40580657"><ele></ele><time>2014-4-30T13:28:22Z</time></trkpt>
<trkpt lat="46.12814658" lon="7.40577883"><ele></ele><time>2014-4-30T13:28:25Z</time></trkpt>
<trkpt lat="46.12863818" lon="7.40584329"><ele></ele><time>2014-4-30T13:28:28Z</time></trkpt>
<trkpt lat="46.12881965" lon="7.40638132"><ele></ele><time>2014-4-30T13:28:31Z</time></trkpt>
<trkpt lat="46.12875536" lon="7.40715983"><ele></ele><time>2014-4-30T13:28:34Z</time></trkpt>
<trkpt lat="46.12854665" lon="7.40732026"><ele></ele><time>2014-4-30T13:28:37Z</time></trkpt>
<trkpt lat="46.12828178" lon="7.40767876"><ele></ele><time>2014-4-30T13:28:40Z</time></trkpt>
<trkpt lat="46.12802194" lon="7.40837177"><ele></ele><time>2014-4-30T13:28:43Z</time></trkpt>
<trkpt lat="46.12764719" lon="7.40853438"><ele></ele><time>2014-4-30T13:28:46Z</time></trkpt>
<trkpt lat="46.12771818" lon="7.40873127"><ele></ele><time>2014-4-30T13:28:49Z</time></trkpt>
<trkpt lat="46.12800317" lon="7.40886044"><ele></ele><time>2014-4-30T13:28:52Z</time></trkpt>
<trkpt lat="46.12821749" lon="7.40904090"><ele></ele><time>2014-4-30T13:28:55Z</time></trkpt>
<trkpt lat="46.12854288" lon="7.40914324"><ele></ele><time>2014-4-30T13:28:58Z</time></trkpt>
<trkpt lat="46.12880490" lon="7.40941037"><ele></ele><time>2014-4-30T13:29:1Z</time></trkpt>
<trkpt lat="46.12882149" lon="7.40943217"><ele></ele><time>2014-4-30T13:29:4Z</time></trkpt>
<trkpt lat="46.12901989" lon="7.40964876"><ele></ele><time>2014-4-30T13:29:7Z</time></trkpt>
<trkpt lat="46.12917119" lon="7.40977222"><ele></ele><time>2014-4-30T13:29:10Z</time></trkpt>
<trkpt lat="46.12920815" lon="7.40979033"><ele></ele><time>2014-4-30T13:29:13Z</time></trkpt>
<trkpt lat="46.12950923" lon="7.40988714"><ele></ele><time>2014-4-30T13:29:16Z</time></trkpt>
<trkpt lat="46.12977426" lon="7.40997263"><ele></ele><time>2014-4-30T13:29:19Z</time></trkpt>
<trkpt lat="46.13008046" lon="7.41001965"><ele></ele><time>2014-4-30T13:29:22Z</time></trkpt>
<trkpt lat="46.13037684" lon="7.40986258"><ele></ele><time>2014-4-30T13:29:25Z</time></trkpt>
<trkpt lat="46.13051984" lon="7.40975386"><ele></ele><time>2014-4-30T13:29:28Z</time></trkpt>
<trkpt lat="46.13053258" lon="7.40990759"><ele></ele><time>2014-4-30T13:29:31Z</time></trkpt>
<trkpt lat="46.13050902" lon="7.40992335"><ele></ele><time>2014-4-30T13:29:34Z</time></trkpt>
<trkpt lat="46.13031163" lon="7.41009962"><ele></ele><time>2014-4-30T13:29:37Z</time></trkpt>
<trkpt lat="46.13022722" lon="7.41020355"><ele></ele><time>2014-4-30T13:29:40Z</time></trkpt>
<trkpt lat="46.13013335" lon="7.41032132"><ele></ele><time>2014-4-30T13:29:43Z</time></trkpt>
<trkpt lat="46.12990594" lon="7.41061016"><ele></ele><time>2014-4-30T13:29:46Z</time></trkpt>
<trkpt lat="46.12965415" lon="7.41077092"><ele></ele><time>2014-4-30T13:29:49Z</time></trkpt>
<trkpt lat="46.12938669" lon="7.41070462"><ele></ele><time>2014-4-30T13:29:52Z</time></trkpt>
<trkpt lat="46.12914730" lon="7.41065366"><ele></ele><time>2014-4-30T13:29:55Z</time></trkpt>
<trkpt lat="46.12917437" lon="7.41079397"><ele></ele><time>2014-4-30T13:29:58Z</time></trkpt>
<trkpt lat="46.12939783" lon="7.41098785"><ele></ele><time>2014-4-30T13:30:1Z</time></trkpt>
<trkpt lat="46.12964259" lon="7.41119798"><ele></ele><time>2014-4-30T13:30:4Z</time></trkpt>
<trkpt lat="46.12967804" lon="7.41121810"><ele></ele><time>2014-4-30T13:30:7Z</time></trkpt>
<trkpt lat="46.12982372" lon="7.41127979"><ele></ele><time>2014-4-30T13:30:10Z</time></trkpt>
<trkpt lat="46.13012756" lon="7.41131558"><ele></ele><time>2014-4-30T13:30:13Z</time></trkpt>
<trkpt lat="46.13034708" lon="7.41129873"><ele></ele><time>2014-4-30T13:30:16Z</time></trkpt>
<trkpt lat="46.13059963" lon="7.41141289"><ele></ele><time>2014-4-30T13:30:19Z</time></trkpt>
<trkpt lat="46.13076534" lon="7.41144575"><ele></ele><time>2014-4-30T13:30:22Z</time></trkpt>
<trkpt lat="46.13089317" lon="7.41141977"><ele></ele><time>2014-4-30T13:30:25Z</time></trkpt>
<trkpt lat="46.13126172" lon="7.41138523"><ele></ele><time>2014-4-30T13:30:28Z</time></trkpt>
<trkpt lat="46.13147696" lon="7.41159596"><ele></ele><time>2014-4-30T13:30:31Z</time></trkpt>
<trkpt lat="46.13169858" lon="7.41174079"><ele></ele><time>2014-4-30T13:30:34Z</time></trkpt>
<trkpt lat="46.13191249" lon="7.41191103"><ele></ele><time>2014-4-30T13:30:37Z</time></trkpt>
<trkpt lat="46.13196647" lon="7.41195948"><ele></ele><time>2014-4-30T13:30:40Z</time></trkpt>
<trkpt lat="46.13207015" lon="7.41215067"><ele></ele><time>2014-4-30T13:30:43Z</time></trkpt>
<trkpt lat="46.13220728" lon="7.41247044"><ele></ele><time>2014-4-30T13:30:46Z</time></trkpt>
<trkpt lat="46.13239034" lon="7.41254898"><ele></ele><time>2014-4-30T13:30:49Z</time></trkpt>
<trkpt lat="46.13257407" lon="7.41260639"><ele></ele><time>2014-4-30T13:30:52Z</time></trkpt>
<trkpt lat="46.13260349" lon="7.41261913"><ele></ele><time>2014-4-30T13:30:55Z</time></trkpt>
<trkpt lat="46.13277616" lon="7.41266725"><ele></ele><time>2014-4-30T13:30:58Z</time></trkpt>
<trkpt lat="46.13300817" lon="7.41282273"><ele></ele><time>2014-4-30T13:31:1Z</time></trkpt>
<trkpt lat="46.13302208" lon="7.41282994"><ele></ele><time>2014-4-30T13:31:4Z</time></trkpt>
<trkpt lat="46.13320146" lon="7.41273137"><ele></ele><time>2014-4-30T13:31:7Z</time></trkpt>
<trkpt lat="46.13335962" lon="7.41257496"><ele></ele><time>2014-4-30T13:31:10Z</time></trkpt>
<trkpt lat="46.13354906" lon="7.41244873"><ele></ele><time>2014-4-30T13:31:13Z</time></trkpt>
<trkpt lat="46.13380973" lon="7.41231496"><ele></ele><time>2014-4-30T13:31:16Z</time></trkpt>
<trkpt lat="46.13408055" lon="7.41235485"><ele></ele><time>2014-4-30T13:31:19Z</time></trkpt>
<trkpt lat="46.13434173" lon="7.41248796"><ele></ele><time>2014-4-30T13:31:22Z</time></trkpt>
<trkpt lat="46.13446838" lon="7.41272793"><ele></ele><time>2014-4-30T13:31:25Z</time></trkpt>
<trkpt lat="46.13460266" lon="7.41296774"><ele></ele><time>2014-4-30T13:31:28Z</time></trkpt>
<trkpt lat="46.13471674" lon="7.41307142"><ele></ele><time>2014-4-30T13:31:31Z</time></trkpt>
<trkpt lat="46.13475873" lon="7.41310679"><ele></ele><time>2014-4-30T13:31:34Z</time></trkpt>
<trkpt lat="46.13479955" lon="7.41313999"><ele></ele><time>2014-4-30T13:31:37Z</time></trkpt>
<trkpt lat="46.13488605" lon="7.41318558"><ele></ele><time>2014-4-30T13:31:40Z</time></trkpt>
<trkpt lat="46.13507783" lon="7.41321794"><ele></ele><time>2014-4-30T13:31:43Z</time></trkpt>
<trkpt lat="46.13530272" lon="7.41324585"><ele></ele><time>2014-4-30T13:31:46Z</time></trkpt>
<trkpt lat="46.13542593" lon="7.41329296"><ele></ele><time>2014-4-30T13:31:49Z</time></trkpt>
<trkpt lat="46.13548544" lon="7.41332497"><ele></ele><time>2014-4-30T13:31:52Z</time></trkpt>
<trkpt lat="46.13574562" lon="7.41337183"><ele></ele><time>2014-4-30T13:31:55Z</time></trkpt>
<trkpt lat="46.13603219" lon="7.41363586"><ele></ele><time>2014-4-30T13:31:58Z</time></trkpt>
<trkpt lat="46.13634123" lon="7.41380752"><ele></ele><time>2014-4-30T13:32:1Z</time></trkpt>
<trkpt lat="46.13660627" lon="7.41391858"><ele></ele><time>2014-4-30T13:32:4Z</time></trkpt>
<trkpt lat="46.13696669" lon="7.41387357"><ele></ele><time>2014-4-30T13:32:7Z</time></trkpt>
<trkpt lat="46.13730406" lon="7.41371146"><ele></ele><time>2014-4-30T13:32:10Z</time></trkpt>
<trkpt lat="46.13749417" lon="7.41361482"><ele></ele><time>2014-4-30T13:32:13Z</time></trkpt>
<trkpt lat="46.13782668" lon="7.41349965"><ele></ele><time>2014-4-30T13:32:16Z</time></trkpt>
<trkpt lat="46.13815332" lon="7.41344936"><ele></ele><time>2014-4-30T13:32:19Z</time></trkpt>
<trkpt lat="46.13844040" lon="7.41339086"><ele></ele><time>2014-4-30T13:32:22Z</time></trkpt>
<trkpt lat="46.13880426" lon="7.41310218"><ele></ele><time>2014-4-30T13:32:25Z</time></trkpt>
<trkpt lat="46.13902093" lon="7.41297520"><ele></ele><time>2014-4-30T13:32:28Z</time></trkpt>
<trkpt lat="46.13925747" lon="7.41312507"><ele></ele><time>2014-4-30T13:32:31Z</time></trkpt>
<trkpt lat="46.13929083" lon="7.41314669"><ele></ele><time>2014-4-30T13:32:34Z</time></trkpt>
<trkpt lat="46.13964915" lon="7.41319774"><ele></ele><time>2014-4-30T13:32:37Z</time></trkpt>
<trkpt lat="46.14014737" lon="7.41325113"><ele></ele><time>2014-4-30T13:32:40Z</time></trkpt>
<trkpt lat="46.14068868" lon="7.41318868"><ele></ele><time>2014-4-30T13:32:43Z</time></trkpt>
<trkpt lat="46.14088104" lon="7.41313429"><ele></ele><time>2014-4-30T13:32:46Z</time></trkpt>
<trkpt lat="46.14105019" lon="7.41312859"><ele></ele><time>2014-4-30T13:32:49Z</time></trkpt>
<trkpt lat="46.14164304" lon="7.41321626"><ele></ele><time>2014-4-30T13:32:52Z</time></trkpt>
<trkpt lat="46.14179442" lon="7.41318692"><ele></ele><time>2014-4-30T13:32:55Z</time></trkpt>
<trkpt lat="46.14219289" lon="7.41317536"><ele></ele><time>2014-4-30T13:32:58Z</time></trkpt>
<trkpt lat="46.14234058" lon="7.41317955"><ele></ele><time>2014-4-30T13:33:1Z</time></trkpt>
<trkpt lat="46.14255114" lon="7.41344408"><ele></ele><time>2014-4-30T13:33:4Z</time></trkpt>
<trkpt lat="46.14268575" lon="7.41397097"><ele></ele><time>2014-4-30T13:33:7Z</time></trkpt>
<trkpt lat="46.14290175" lon="7.41437472"><ele></ele><time>2014-4-30T13:33:10Z</time></trkpt>
<trkpt lat="46.14312672" lon="7.41469625"><ele></ele><time>2014-4-30T13:33:13Z</time></trkpt>
<trkpt lat="46.14341967" lon="7.41486976"><ele></ele><time>2014-4-30T13:33:16Z</time></trkpt>
<trkpt lat="46.14345546" lon="7.41488015"><ele></ele><time>2014-4-30T13:33:19Z</time></trkpt>
<trkpt lat="46.14368755" lon="7.41505047"><ele></ele><time>2014-4-30T13:33:22Z</time></trkpt>
<trkpt lat="46.14400472" lon="7.41541374"><ele></ele><time>2014-4-30T13:33:25Z</time></trkpt>
<trkpt lat="46.14419675" lon="7.41553830"><ele></ele><time>2014-4-30T13:33:28Z</time></trkpt>
<trkpt lat="46.14455173" lon="7.41562975"><ele></ele><time>2014-4-30T13:33:31Z</time></trkpt>
<trkpt lat="46.14481064" lon="7.41552162"><ele></ele><time>2014-4-30T13:33:34Z</time></trkpt>
<trkpt lat="46.14491357" lon="7.41558893"><ele></ele><time>2014-4-30T13:33:37Z</time></trkpt>
<trkpt lat="46.14523804" lon="7.41534476"><ele></ele><time>2014-4-30T13:33:40Z</time></trkpt>
<trkpt lat="46.14554314" lon="7.41512658"><ele></ele><time>2014-4-30T13:33:43Z</time></trkpt>
<trkpt lat="46.14589635" lon="7.41476909"><ele></ele><time>2014-4-30T13:33:46Z</time></trkpt>
<trkpt lat="46.14595503" lon="7.41481402"><ele></ele><time>2014-4-30T13:33:49Z</time></trkpt>
<trkpt lat="46.14625778" lon="7.41515458"><ele></ele><time>2014-4-30T13:33:52Z</time></trkpt>
<trkpt lat="46.14637068" lon="7.41522565"><ele></ele><time>2014-4-30T13:33:55Z</time></trkpt>
<trkpt lat="46.14635685" lon="7.41550050"><ele></ele><time>2014-4-30T13:33:58Z</time></trkpt>
<trkpt lat="46.14620129" lon="7.41579789"><ele></ele><time>2014-4-30T13:34:1Z</time></trkpt>
<trkpt lat="46.14591672" lon="7.41631606"><ele></ele><time>2014-4-30T13:34:4Z</time></trkpt>
<trkpt lat="46.14585687" lon="7.41644363"><ele></ele><time>2014-4-30T13:34:7Z</time></trkpt>
<trkpt lat="46.14575914" lon="7.41709423"><ele></ele><time>2014-4-30T13:34:10Z</time></trkpt>
<trkpt lat="46.14568857" lon="7.41749489"><ele></ele><time>2014-4-30T13:34:13Z</time></trkpt>
<trkpt lat="46.14563065" lon="7.41790275"><ele></ele><time>2014-4-30T13:34:16Z</time></trkpt>
<trkpt lat="46.14548547" lon="7.41824406"><ele></ele><time>2014-4-30T13:34:19Z</time></trkpt>
<trkpt lat="46.14536813" lon="7.41869534"><ele></ele><time>2014-4-30T13:34:22Z</time></trkpt>
<trkpt lat="46.14532479" lon="7.41905535"><ele></ele><time>2014-4-30T13:34:25Z</time></trkpt>
<trkpt lat="46.14527198" lon="7.41931309"><ele></ele><time>2014-4-30T13:34:28Z</time></trkpt>
<trkpt lat="46.14517635" lon="7.41974426"><ele></ele><time>2014-4-30T13:34:31Z</time></trkpt>
<trkpt lat="46.14528146" lon="7.42030132"><ele></ele><time>2014-4-30T13:34:34Z</time></trkpt>
<trkpt lat="46.14529403" lon="7.42085796"><ele></ele><time>2014-4-30T13:34:37Z</time></trkpt>
<trkpt lat="46.14524667" lon="7.42139507"><ele></ele><time>2014-4-30T13:34:40Z</time></trkpt>
<trkpt lat="46.14513125" lon="7.42175365"><ele></ele><time>2014-4-30T13:34:43Z</time></trkpt>
<trkpt lat="46.14488876" lon="7.42214140"><ele></ele><time>2014-4-30T13:34:46Z</time></trkpt>
<trkpt lat="46.14448878" lon="7.42290105"><ele></ele><time>2014-4-30T13:34:49Z</time></trkpt>
<trkpt lat="46.14425777" lon="7.42342802"><ele></ele><time>2014-4-30T13:34:52Z</time></trkpt>
<trkpt lat="46.14400732" lon="7.42404836"><ele></ele><time>2014-4-30T13:34:55Z</time></trkpt>
<trkpt lat="46.14382242" lon="7.42457366"><ele></ele><time>2014-4-30T13:34:58Z</time></trkpt>
<trkpt lat="46.14351665" lon="7.42495780"><ele></ele><time>2014-4-30T13:35:1Z</time></trkpt>
<trkpt lat="46.14322202" lon="7.42528528"><ele></ele><time>2014-4-30T13:35:4Z</time></trkpt>
<trkpt lat="46.14314709" lon="7.42537748"><ele></ele><time>2014-4-30T13:35:7Z</time></trkpt>
<trkpt lat="46.14308389" lon="7.42548795"><ele></ele><time>2014-4-30T13:35:10Z</time></trkpt>
<trkpt lat="46.14302874" lon="7.42561502"><ele></ele><time>2014-4-30T13:35:13Z</time></trkpt>
<trkpt lat="46.14299278" lon="7.42606245"><ele></ele><time>2014-4-30T13:35:16Z</time></trkpt>
<trkpt lat="46.14294400" lon="7.42694842"><ele></ele><time>2014-4-30T13:35:19Z</time></trkpt>
<trkpt lat="46.14279228" lon="7.42747338"><ele></ele><time>2014-4-30T13:35:22Z</time></trkpt>
<trkpt lat="46.14259229" lon="7.42816304"><ele></ele><time>2014-4-30T13:35:25Z</time></trkpt>
<trkpt lat="46.14249674" lon="7.42836320"><ele></ele><time>2014-4-30T13:35:28Z</time></trkpt>
<trkpt lat="46.14242566" lon="7.42903216"><ele></ele><time>2014-4-30T13:35:31Z</time></trkpt>
<trkpt lat="46.14242205" lon="7.42947564"><ele></ele><time>2014-4-30T13:35:34Z</time></trkpt>
<trkpt lat="46.14228375" lon="7.43028207"><ele></ele><time>2014-4-30T13:35:37Z</time></trkpt>
<trkpt lat="46.14222667" lon="7.43085698"><ele></ele><time>2014-4-30T13:35:40Z</time></trkpt>
<trkpt lat="46.14224830" lon="7.43130860"><ele></ele><time>2014-4-30T13:35:43Z</time></trkpt>
<trkpt lat="46.14218954" lon="7.43175519"><ele></ele><time>2014-4-30T13:35:46Z</time></trkpt>
<trkpt lat="46.14204898" lon="7.43216657"><ele></ele><time>2014-4-30T13:35:49Z</time></trkpt>
<trkpt lat="46.14213355" lon="7.43268985"><ele></ele><time>2014-4-30T13:35:52Z</time></trkpt>
<trkpt lat="46.14207848" lon="7.43299437"><ele></ele><time>2014-4-30T13:35:55Z</time></trkpt>
<trkpt lat="46.14191872" lon="7.43356962"><ele></ele><time>2014-4-30T13:35:58Z</time></trkpt>
<trkpt lat="46.14189073" lon="7.43366567"><ele></ele><time>2014-4-30T13:36:1Z</time></trkpt>
<trkpt lat="46.14183314" lon="7.43393188"><ele></ele><time>2014-4-30T13:36:4Z</time></trkpt>
<trkpt lat="46.14172057" lon="7.43420882"><ele></ele><time>2014-4-30T13:36:7Z</time></trkpt>
<trkpt lat="46.14163877" lon="7.43453588"><ele></ele><time>2014-4-30T13:36:10Z</time></trkpt>
<trkpt lat="46.14160758" lon="7.43473646"><ele></ele><time>2014-4-30T13:36:13Z</time></trkpt>
<trkpt lat="46.14149175" lon="7.43495422"><ele></ele><time>2014-4-30T13:36:16Z</time></trkpt>
<trkpt lat="46.14128547" lon="7.43517467"><ele></ele><time>2014-4-30T13:36:19Z</time></trkpt>
<trkpt lat="46.14124817" lon="7.43521113"><ele></ele><time>2014-4-30T13:36:22Z</time></trkpt>
<trkpt lat="46.14114792" lon="7.43537592"><ele></ele><time>2014-4-30T13:36:25Z</time></trkpt>
<trkpt lat="46.14114013" lon="7.43539478"><ele></ele><time>2014-4-30T13:36:28Z</time></trkpt>
<trkpt lat="46.14106653" lon="7.43557306"><ele></ele><time>2014-4-30T13:36:31Z</time></trkpt>
<trkpt lat="46.14105262" lon="7.43577012"><ele></ele><time>2014-4-30T13:36:34Z</time></trkpt>
<trkpt lat="46.14104792" lon="7.43586048"><ele></ele><time>2014-4-30T13:36:37Z</time></trkpt>
<trkpt lat="46.14101658" lon="7.43612057"><ele></ele><time>2014-4-30T13:36:40Z</time></trkpt>
<trkpt lat="46.14091985" lon="7.43637663"><ele></ele><time>2014-4-30T13:36:43Z</time></trkpt>
<trkpt lat="46.14072807" lon="7.43664024"><ele></ele><time>2014-4-30T13:36:46Z</time></trkpt>
<trkpt lat="46.14044979" lon="7.43678802"><ele></ele><time>2014-4-30T13:36:49Z</time></trkpt>
<trkpt lat="46.14037016" lon="7.43704358"><ele></ele><time>2014-4-30T13:36:52Z</time></trkpt>
<trkpt lat="46.14033773" lon="7.43715975"><ele></ele><time>2014-4-30T13:36:55Z</time></trkpt>
<trkpt lat="46.14024368" lon="7.43738665"><ele></ele><time>2014-4-30T13:36:58Z</time></trkpt>
<trkpt lat="46.14018819" lon="7.43760617"><ele></ele><time>2014-4-30T13:37:1Z</time></trkpt>
<trkpt lat="46.14014033" lon="7.43769947"><ele></ele><time>2014-4-30T13:37:4Z</time></trkpt>
<trkpt lat="46.13993397" lon="7.43803759"><ele></ele><time>2014-4-30T13:37:7Z</time></trkpt>
<trkpt lat="46.13990664" lon="7.43807657"><ele></ele><time>2014-4-30T13:37:10Z</time></trkpt>
<trkpt lat="46.13959685" lon="7.43840204"><ele></ele><time>2014-4-30T13:37:13Z</time></trkpt>
<trkpt lat="46.13949392" lon="7.43850145"><ele></ele><time>2014-4-30T13:37:16Z</time></trkpt>
<trkpt lat="46.13917482" lon="7.43861033"><ele></ele><time>2014-4-30T13:37:19Z</time></trkpt>
<trkpt lat="46.13892655" lon="7.43857613"><ele></ele><time>2014-4-30T13:37:22Z</time></trkpt>
<trkpt lat="46.13883938" lon="7.43858946"><ele></ele><time>2014-4-30T13:37:25Z</time></trkpt>
<trkpt lat="46.13866487" lon="7.43877537"><ele></ele><time>2014-4-30T13:37:28Z</time></trkpt>
<trkpt lat="46.13837485" lon="7.43927124"><ele></ele><time>2014-4-30T13:37:31Z</time></trkpt>
<trkpt lat="46.13811124" lon="7.43934777"><ele></ele><time>2014-4-30T13:37:34Z</time></trkpt>
<trkpt lat="46.13790982" lon="7.43912598"><ele></ele><time>2014-4-30T13:37:37Z</time></trkpt>
<trkpt lat="46.13751277" lon="7.43878542"><ele></ele><time>2014-4-30T13:37:40Z</time></trkpt>
<trkpt lat="46.13746324" lon="7.43871787"><ele></ele><time>2014-4-30T13:37:43Z</time></trkpt>
<trkpt lat="46.13725654" lon="7.43868065"><ele></ele><time>2014-4-30T13:37:46Z</time></trkpt>
<trkpt lat="46.13709812" lon="7.43855970"><ele></ele><time>2014-4-30T13:37:49Z</time></trkpt>
<trkpt lat="46.13701598" lon="7.43856012"><ele></ele><time>2014-4-30T13:37:52Z</time></trkpt>
<trkpt lat="46.13686527" lon="7.43854294"><ele></ele><time>2014-4-30T13:37:55Z</time></trkpt>
<trkpt lat="46.13662798" lon="7.43858309"><ele></ele><time>2014-4-30T13:37:58Z</time></trkpt>
<trkpt lat="46.13651373" lon="7.43858543"><ele></ele><time>2014-4-30T13:38:1Z</time></trkpt>
<trkpt lat="46.13626479" lon="7.43869783"><ele></ele><time>2014-4-30T13:38:4Z</time></trkpt>
<trkpt lat="46.13608718" lon="7.43872197"><ele></ele><time>2014-4-30T13:38:7Z</time></trkpt>
<trkpt lat="46.13600956" lon="7.43870932"><ele></ele><time>2014-4-30T13:38:10Z</time></trkpt>
<trkpt lat="46.13595902" lon="7.43872717"><ele></ele><time>2014-4-30T13:38:13Z</time></trkpt>
<trkpt lat="46.13581628" lon="7.43872290"><ele></ele><time>2014-4-30T13:38:16Z</time></trkpt>
<trkpt lat="46.13558284" lon="7.43874972"><ele></ele><time>2014-4-30T13:38:19Z</time></trkpt>
<trkpt lat="46.13527866" lon="7.43876900"><ele></ele><time>2014-4-30T13:38:22Z</time></trkpt>
<trkpt lat="46.13515436" lon="7.43877989"><ele></ele><time>2014-4-30T13:38:25Z</time></trkpt>
<trkpt lat="46.13497364" lon="7.43874276"><ele></ele><time>2014-4-30T13:38:28Z</time></trkpt>
<trkpt lat="46.13488555" lon="7.43866850"><ele></ele><time>2014-4-30T13:38:31Z</time></trkpt>
<trkpt lat="46.13479000" lon="7.43863472"><ele></ele><time>2014-4-30T13:38:34Z</time></trkpt>
<trkpt lat="46.13462127" lon="7.43869976"><ele></ele><time>2014-4-30T13:38:37Z</time></trkpt>
<trkpt lat="46.13446377" lon="7.43864117"><ele></ele><time>2014-4-30T13:38:40Z</time></trkpt>
<trkpt lat="46.13436235" lon="7.43863036"><ele></ele><time>2014-4-30T13:38:43Z</time></trkpt>
<trkpt lat="46.13415297" lon="7.43867327"><ele></ele><time>2014-4-30T13:38:46Z</time></trkpt>
<trkpt lat="46.13387955" lon="7.43890059"><ele></ele><time>2014-4-30T13:38:49Z</time></trkpt>
<trkpt lat="46.13369339" lon="7.43917954"><ele></ele><time>2014-4-30T13:38:52Z</time></trkpt>
<trkpt lat="46.13343699" lon="7.43939479"><ele></ele><time>2014-4-30T13:38:55Z</time></trkpt>
<trkpt lat="46.13343338" lon="7.43941373"><ele></ele><time>2014-4-30T13:38:58Z</time></trkpt>
<trkpt lat="46.13340405" lon="7.43950250"><ele></ele><time>2014-4-30T13:39:1Z</time></trkpt>
<trkpt lat="46.13333909" lon="7.43957173"><ele></ele><time>2014-4-30T13:39:4Z</time></trkpt>
<trkpt lat="46.13326675" lon="7.43962898"><ele></ele><time>2014-4-30T13:39:7Z</time></trkpt>
<trkpt lat="46.13319919" lon="7.43985839"><ele></ele><time>2014-4-30T13:39:10Z</time></trkpt>
<trkpt lat="46.13313122" lon="7.43986979"><ele></ele><time>2014-4-30T13:39:13Z</time></trkpt>
<trkpt lat="46.13297892" lon="7.43996023"><ele></ele><time>2014-4-30T13:39:16Z</time></trkpt>
<trkpt lat="46.13296953" lon="7.43996367"><ele></ele><time>2014-4-30T13:39:19Z</time></trkpt>
<trkpt lat="46.13290725" lon="7.43989385"><ele></ele><time>2014-4-30T13:39:22Z</time></trkpt>
<trkpt lat="46.13279209" lon="7.43990952"><ele></ele><time>2014-4-30T13:39:25Z</time></trkpt>
<trkpt lat="46.13258354" lon="7.43998613"><ele></ele><time>2014-4-30T13:39:28Z</time></trkpt>
<trkpt lat="46.13251708" lon="7.43991824"><ele></ele><time>2014-4-30T13:39:31Z</time></trkpt>
<trkpt lat="46.13243745" lon="7.43985462"><ele></ele><time>2014-4-30T13:39:34Z</time></trkpt>
<trkpt lat="46.13220728" lon="7.43975270"><ele></ele><time>2014-4-30T13:39:37Z</time></trkpt>
<trkpt lat="46.13194484" lon="7.43972587"><ele></ele><time>2014-4-30T13:39:40Z</time></trkpt>
<trkpt lat="46.13176379" lon="7.43979645"><ele></ele><time>2014-4-30T13:39:43Z</time></trkpt>
<trkpt lat="46.13155005" lon="7.43988354"><ele></ele><time>2014-4-30T13:39:46Z</time></trkpt>
<trkpt lat="46.13135559" lon="7.43993534"><ele></ele><time>2014-4-30T13:39:49Z</time></trkpt>
<trkpt lat="46.13119332" lon="7.43998697"><ele></ele><time>2014-4-30T13:39:52Z</time></trkpt>
<trkpt lat="46.13118209" lon="7.44000382"><ele></ele><time>2014-4-30T13:39:55Z</time></trkpt>
<trkpt lat="46.13107832" lon="7.44010583"><ele></ele><time>2014-4-30T13:39:58Z</time></trkpt>
<trkpt lat="46.13092552" lon="7.44019585"><ele></ele><time>2014-4-30T13:40:1Z</time></trkpt>
<trkpt lat="46.13079996" lon="7.44023952"><ele></ele><time>2014-4-30T13:40:4Z</time></trkpt>
<trkpt lat="46.13072528" lon="7.44029752"><ele></ele><time>2014-4-30T13:40:7Z</time></trkpt>
<trkpt lat="46.13069627" lon="7.44033474"><ele></ele><time>2014-4-30T13:40:10Z</time></trkpt>
<trkpt lat="46.13058932" lon="7.44044538"><ele></ele><time>2014-4-30T13:40:13Z</time></trkpt>
<trkpt lat="46.13041062" lon="7.44057789"><ele></ele><time>2014-4-30T13:40:16Z</time></trkpt>
<trkpt lat="46.13036653" lon="7.44062684"><ele></ele><time>2014-4-30T13:40:19Z</time></trkpt>
<trkpt lat="46.13023703" lon="7.44075065"><ele></ele><time>2014-4-30T13:40:22Z</time></trkpt>
<trkpt lat="46.13017115" lon="7.44084762"><ele></ele><time>2014-4-30T13:40:25Z</time></trkpt>
<trkpt lat="46.13003880" lon="7.44105508"><ele></ele><time>2014-4-30T13:40:28Z</time></trkpt>
<trkpt lat="46.12984836" lon="7.44130854"><ele></ele><time>2014-4-30T13:40:31Z</time></trkpt>
<trkpt lat="46.12974602" lon="7.44141567"><ele></ele><time>2014-4-30T13:40:34Z</time></trkpt>
<trkpt lat="46.12967863" lon="7.44151549"><ele></ele><time>2014-4-30T13:40:37Z</time></trkpt>
<trkpt lat="46.12957612" lon="7.44167039"><ele></ele><time>2014-4-30T13:40:40Z</time></trkpt>
<trkpt lat="46.12940446" lon="7.44184222"><ele></ele><time>2014-4-30T13:40:43Z</time></trkpt>
<trkpt lat="46.12934888" lon="7.44186049"><ele></ele><time>2014-4-30T13:40:46Z</time></trkpt>
<trkpt lat="46.12923464" lon="7.44196602"><ele></ele><time>2014-4-30T13:40:49Z</time></trkpt>
<trkpt lat="46.12922022" lon="7.44197985"><ele></ele><time>2014-4-30T13:40:52Z</time></trkpt>
<trkpt lat="46.12914235" lon="7.44201179"><ele></ele><time>2014-4-30T13:40:55Z</time></trkpt>
<trkpt lat="46.12911587" lon="7.44202587"><ele></ele><time>2014-4-30T13:40:58Z</time></trkpt>
<trkpt lat="46.12904479" lon="7.44210843"><ele></ele><time>2014-4-30T13:41:1Z</time></trkpt>
<trkpt lat="46.12903188" lon="7.44211983"><ele></ele><time>2014-4-30T13:41:4Z</time></trkpt>
<trkpt lat="46.12886240" lon="7.44227196"><ele></ele><time>2014-4-30T13:41:7Z</time></trkpt>
<trkpt lat="46.12884865" lon="7.44233759"><ele></ele><time>2014-4-30T13:41:10Z</time></trkpt>
<trkpt lat="46.12885427" lon="7.44242954"><ele></ele><time>2014-4-30T13:41:13Z</time></trkpt>
<trkpt lat="46.12876777" lon="7.44259944"><ele></ele><time>2014-4-30T13:41:16Z</time></trkpt>
<trkpt lat="46.12871697" lon="7.44261897"><ele></ele><time>2014-4-30T13:41:19Z</time></trkpt>
<trkpt lat="46.12849376" lon="7.44269407"><ele></ele><time>2014-4-30T13:41:22Z</time></trkpt>
<trkpt lat="46.12842109" lon="7.44292743"><ele></ele><time>2014-4-30T13:41:25Z</time></trkpt>
<trkpt lat="46.12842897" lon="7.44328223"><ele></ele><time>2014-4-30T13:41:28Z</time></trkpt>
<trkpt lat="46.12842025" lon="7.44339664"><ele></ele><time>2014-4-30T13:41:31Z</time></trkpt>
<trkpt lat="46.12842184" lon="7.44343218"><ele></ele><time>2014-4-30T13:41:34Z</time></trkpt>
<trkpt lat="46.12825505" lon="7.44361206"><ele></ele><time>2014-4-30T13:41:37Z</time></trkpt>
<trkpt lat="46.12825429" lon="7.44363176"><ele></ele><time>2014-4-30T13:41:40Z</time></trkpt>
<trkpt lat="46.12825245" lon="7.44370879"><ele></ele><time>2014-4-30T13:41:43Z</time></trkpt>
<trkpt lat="46.12812554" lon="7.44383058"><ele></ele><time>2014-4-30T13:41:46Z</time></trkpt>
<trkpt lat="46.12810744" lon="7.44390065"><ele></ele><time>2014-4-30T13:41:49Z</time></trkpt>
<trkpt lat="46.12810979" lon="7.44398799"><ele></ele><time>2014-4-30T13:41:52Z</time></trkpt>
<trkpt lat="46.12804038" lon="7.44420927"><ele></ele><time>2014-4-30T13:41:55Z</time></trkpt>
<trkpt lat="46.12791650" lon="7.44429703"><ele></ele><time>2014-4-30T13:41:58Z</time></trkpt>
<trkpt lat="46.12781525" lon="7.44439837"><ele></ele><time>2014-4-30T13:42:1Z</time></trkpt>
<trkpt lat="46.12778960" lon="7.44442527"><ele></ele><time>2014-4-30T13:42:4Z</time></trkpt>
<trkpt lat="46.12770787" lon="7.44455419"><ele></ele><time>2014-4-30T13:42:7Z</time></trkpt>
<trkpt lat="46.12760654" lon="7.44474546"><ele></ele><time>2014-4-30T13:42:10Z</time></trkpt>
<trkpt lat="46.12755516" lon="7.44478100"><ele></ele><time>2014-4-30T13:42:13Z</time></trkpt>
<trkpt lat="46.12748056" lon="7.44518040"><ele></ele><time>2014-4-30T13:42:16Z</time></trkpt>
<trkpt lat="46.12750604" lon="7.44574626"><ele></ele><time>2014-4-30T13:42:19Z</time></trkpt>
<trkpt lat="46.12761634" lon="7.44594273"><ele></ele><time>2014-4-30T13:42:22Z</time></trkpt>
<trkpt lat="46.12764484" lon="7.44607936"><ele></ele><time>2014-4-30T13:42:25Z</time></trkpt>
<trkpt lat="46.12773889" lon="7.44621347"><ele></ele><time>2014-4-30T13:42:28Z</time></trkpt>
<trkpt lat="46.12778055" lon="7.44647733"><ele></ele><time>2014-4-30T13:42:31Z</time></trkpt>
<trkpt lat="46.12780100" lon="7.44667590"><ele></ele><time>2014-4-30T13:42:34Z</time></trkpt>
<trkpt lat="46.12780469" lon="7.44668839"><ele></ele><time>2014-4-30T13:42:37Z</time></trkpt>
<trkpt lat="46.12783369" lon="7.44678662"><ele></ele><time>2014-4-30T13:42:40Z</time></trkpt>
<trkpt lat="46.12789479" lon="7.44702123"><ele></ele><time>2014-4-30T13:42:43Z</time></trkpt>
<trkpt lat="46.12790057" lon="7.44715425"><ele></ele><time>2014-4-30T13:42:46Z</time></trkpt>
<trkpt lat="46.12793854" lon="7.44730395"><ele></ele><time>2014-4-30T13:42:49Z</time></trkpt>
<trkpt lat="46.12802764" lon="7.44754150"><ele></ele><time>2014-4-30T13:42:52Z</time></trkpt>
<trkpt lat="46.12810643" lon="7.44778357"><ele></ele><time>2014-4-30T13:42:55Z</time></trkpt>
<trkpt lat="46.12813728" lon="7.44787937"><ele></ele><time>2014-4-30T13:42:58Z</time></trkpt>
<trkpt lat="46.12819587" lon="7.44816092"><ele></ele><time>2014-4-30T13:43:1Z</time></trkpt>
<trkpt lat="46.12818707" lon="7.44820836"><ele></ele><time>2014-4-30T13:43:4Z</time></trkpt>
<trkpt lat="46.12817885" lon="7.44836309"><ele></ele><time>2014-4-30T13:43:7Z</time></trkpt>
<trkpt lat="46.12814868" lon="7.44841699"><ele></ele><time>2014-4-30T13:43:10Z</time></trkpt>
<trkpt lat="46.12813317" lon="7.44854347"><ele></ele><time>2014-4-30T13:43:13Z</time></trkpt>
<trkpt lat="46.12811582" lon="7.44867423"><ele></ele><time>2014-4-30T13:43:16Z</time></trkpt>
<trkpt lat="46.12799663" lon="7.44904948"><ele></ele><time>2014-4-30T13:43:19Z</time></trkpt>
<trkpt lat="46.12786948" lon="7.44951208"><ele></ele><time>2014-4-30T13:43:22Z</time></trkpt>
<trkpt lat="46.12771332" lon="7.44991709"><ele></ele><time>2014-4-30T13:43:25Z</time></trkpt>
<trkpt lat="46.12763177" lon="7.45009638"><ele></ele><time>2014-4-30T13:43:28Z</time></trkpt>
<trkpt lat="46.12741258" lon="7.45056703"><ele></ele><time>2014-4-30T13:43:31Z</time></trkpt>
<trkpt lat="46.12729917" lon="7.45090356"><ele></ele><time>2014-4-30T13:43:34Z</time></trkpt>
<trkpt lat="46.12717286" lon="7.45107422"><ele></ele><time>2014-4-30T13:43:37Z</time></trkpt>
<trkpt lat="46.12697848" lon="7.45139709"><ele></ele><time>2014-4-30T13:43:40Z</time></trkpt>
<trkpt lat="46.12690380" lon="7.45155986"><ele></ele><time>2014-4-30T13:43:43Z</time></trkpt>
<trkpt lat="46.12681604" lon="7.45182674"><ele></ele><time>2014-4-30T13:43:46Z</time></trkpt>
<trkpt lat="46.12674505" lon="7.45199547"><ele></ele><time>2014-4-30T13:43:49Z</time></trkpt>
<trkpt lat="46.12666676" lon="7.45217225"><ele></ele><time>2014-4-30T13:43:52Z</time></trkpt>
<trkpt lat="46.12641823" lon="7.45264356"><ele></ele><time>2014-4-30T13:43:55Z</time></trkpt>
<trkpt lat="46.12635872" lon="7.45273543"><ele></ele><time>2014-4-30T13:43:58Z</time></trkpt>
<trkpt lat="46.12608497" lon="7.45308889"><ele></ele><time>2014-4-30T13:44:1Z</time></trkpt>
<trkpt lat="46.12588246" lon="7.45338243"><ele></ele><time>2014-4-30T13:44:4Z</time></trkpt>
<trkpt lat="46.12567174" lon="7.45362424"><ele></ele><time>2014-4-30T13:44:7Z</time></trkpt>
<trkpt lat="46.12541475" lon="7.45382993"><ele></ele><time>2014-4-30T13:44:10Z</time></trkpt>
<trkpt lat="46.12511217" lon="7.45401417"><ele></ele><time>2014-4-30T13:44:13Z</time></trkpt>
<trkpt lat="46.12501829" lon="7.45407712"><ele></ele><time>2014-4-30T13:44:16Z</time></trkpt>
<trkpt lat="46.12478049" lon="7.45426445"><ele></ele><time>2014-4-30T13:44:19Z</time></trkpt>
<trkpt lat="46.12456877" lon="7.45447534"><ele></ele><time>2014-4-30T13:44:22Z</time></trkpt>
<trkpt lat="46.12403736" lon="7.45483937"><ele></ele><time>2014-4-30T13:44:25Z</time></trkpt>
<trkpt lat="46.12382647" lon="7.45494607"><ele></ele><time>2014-4-30T13:44:28Z</time></trkpt>
<trkpt lat="46.12374424" lon="7.45496484"><ele></ele><time>2014-4-30T13:44:31Z</time></trkpt>
<trkpt lat="46.12329204" lon="7.45501782"><ele></ele><time>2014-4-30T13:44:34Z</time></trkpt>
<trkpt lat="46.12309104" lon="7.45504715"><ele></ele><time>2014-4-30T13:44:37Z</time></trkpt>
<trkpt lat="46.12257564" lon="7.45532954"><ele></ele><time>2014-4-30T13:44:40Z</time></trkpt>
<trkpt lat="46.12263825" lon="7.45540909"><ele></ele><time>2014-4-30T13:44:43Z</time></trkpt>
<trkpt lat="46.12281854" lon="7.45535745"><ele></ele><time>2014-4-30T13:44:46Z</time></trkpt>
<trkpt lat="46.12297579" lon="7.45534882"><ele></ele><time>2014-4-30T13:44:49Z</time></trkpt>
<trkpt lat="46.12315516" lon="7.45538319"><ele></ele><time>2014-4-30T13:44:52Z</time></trkpt>
<trkpt lat="46.12381674" lon="7.45554848"><ele></ele><time>2014-4-30T13:44:55Z</time></trkpt>
<trkpt lat="46.12411522" lon="7.45554538"><ele></ele><time>2014-4-30T13:44:58Z</time></trkpt>
<trkpt lat="46.12421924" lon="7.45552727"><ele></ele><time>2014-4-30T13:45:1Z</time></trkpt>
<trkpt lat="46.12466826" lon="7.45546374"><ele></ele><time>2014-4-30T13:45:4Z</time></trkpt>
<trkpt lat="46.12501184" lon="7.45541395"><ele></ele><time>2014-4-30T13:45:7Z</time></trkpt>
<trkpt lat="46.12519464" lon="7.45537925"><ele></ele><time>2014-4-30T13:45:10Z</time></trkpt>
<trkpt lat="46.12527947" lon="7.45536475"><ele></ele><time>2014-4-30T13:45:13Z</time></trkpt>
<trkpt lat="46.12554777" lon="7.45541420"><ele></ele><time>2014-4-30T13:45:16Z</time></trkpt>
<trkpt lat="46.12598623" lon="7.45557480"><ele></ele><time>2014-4-30T13:45:19Z</time></trkpt>
<trkpt lat="46.12621749" lon="7.45563607"><ele></ele><time>2014-4-30T13:45:22Z</time></trkpt>
<trkpt lat="46.12631690" lon="7.45565727"><ele></ele><time>2014-4-30T13:45:25Z</time></trkpt>
<trkpt lat="46.12661839" lon="7.45572140"><ele></ele><time>2014-4-30T13:45:28Z</time></trkpt>
<trkpt lat="46.12646459" lon="7.45590177"><ele></ele><time>2014-4-30T13:45:31Z</time></trkpt>
<trkpt lat="46.12631262" lon="7.45599682"><ele></ele><time>2014-4-30T13:45:34Z</time></trkpt>
<trkpt lat="46.12592136" lon="7.45611258"><ele></ele><time>2014-4-30T13:45:37Z</time></trkpt>
<trkpt lat="46.12561994" lon="7.45626362"><ele></ele><time>2014-4-30T13:45:40Z</time></trkpt>
<trkpt lat="46.12552808" lon="7.45632288"><ele></ele><time>2014-4-30T13:45:43Z</time></trkpt>
<trkpt lat="46.12517897" lon="7.45638415"><ele></ele><time>2014-4-30T13:45:46Z</time></trkpt>
<trkpt lat="46.12502684" lon="7.45649806"><ele></ele><time>2014-4-30T13:45:49Z</time></trkpt>
<trkpt lat="46.12479148" lon="7.45674793"><ele></ele><time>2014-4-30T13:45:52Z</time></trkpt>
<trkpt lat="46.12445544" lon="7.45694616"><ele></ele><time>2014-4-30T13:45:55Z</time></trkpt>
<trkpt lat="46.12435134" lon="7.45707717"><ele></ele><time>2014-4-30T13:45:58Z</time></trkpt>
<trkpt lat="46.12443122" lon="7.45712788"><ele></ele><time>2014-4-30T13:46:1Z</time></trkpt>
<trkpt lat="46.12471470" lon="7.45721094"><ele></ele><time>2014-4-30T13:46:4Z</time></trkpt>
<trkpt lat="46.12479357" lon="7.45725763"><ele></ele><time>2014-4-30T13:46:7Z</time></trkpt>
<trkpt lat="46.12508006" lon="7.45750456"><ele></ele><time>2014-4-30T13:46:10Z</time></trkpt>
<trkpt lat="46.12530696" lon="7.45759307"><ele></ele><time>2014-4-30T13:46:13Z</time></trkpt>
<trkpt lat="46.12556806" lon="7.45757044"><ele></ele><time>2014-4-30T13:46:16Z</time></trkpt>
<trkpt lat="46.12592722" lon="7.45747212"><ele></ele><time>2014-4-30T13:46:19Z</time></trkpt>
<trkpt lat="46.12601398" lon="7.45740633"><ele></ele><time>2014-4-30T13:46:22Z</time></trkpt>
<trkpt lat="46.12654899" lon="7.45708287"><ele></ele><time>2014-4-30T13:46:25Z</time></trkpt>
<trkpt lat="46.12667900" lon="7.45702369"><ele></ele><time>2014-4-30T13:46:28Z</time></trkpt>
<trkpt lat="46.12696867" lon="7.45691288"><ele></ele><time>2014-4-30T13:46:31Z</time></trkpt>
<trkpt lat="46.12726338" lon="7.45666679"><ele></ele><time>2014-4-30T13:46:34Z</time></trkpt>
<trkpt lat="46.12740344" lon="7.45651189"><ele></ele><time>2014-4-30T13:46:37Z</time></trkpt>
<trkpt lat="46.12755675" lon="7.45634677"><ele></ele><time>2014-4-30T13:46:40Z</time></trkpt>
<trkpt lat="46.12801733" lon="7.45577546"><ele></ele><time>2014-4-30T13:46:43Z</time></trkpt>
<trkpt lat="46.12809378" lon="7.45569097"><ele></ele><time>2014-4-30T13:46:46Z</time></trkpt>
<trkpt lat="46.12834758" lon="7.45539358"><ele></ele><time>2014-4-30T13:46:49Z</time></trkpt>
<trkpt lat="46.12851589" lon="7.45518889"><ele></ele><time>2014-4-30T13:46:52Z</time></trkpt>
<trkpt lat="46.12867079" lon="7.45500600"><ele></ele><time>2014-4-30T13:46:55Z</time></trkpt>
<trkpt lat="46.12880875" lon="7.45486879"><ele></ele><time>2014-4-30T13:46:58Z</time></trkpt>
<trkpt lat="46.12902920" lon="7.45487692"><ele></ele><time>2014-4-30T13:47:1Z</time></trkpt>
<trkpt lat="46.12895234" lon="7.45506979"><ele></ele><time>2014-4-30T13:47:4Z</time></trkpt>
<trkpt lat="46.12871387" lon="7.45553984"><ele></ele><time>2014-4-30T13:47:7Z</time></trkpt>
<trkpt lat="46.12864229" lon="7.45566398"><ele></ele><time>2014-4-30T13:47:10Z</time></trkpt>
<trkpt lat="46.12850776" lon="7.45591795"><ele></ele><time>2014-4-30T13:47:13Z</time></trkpt>
<trkpt lat="46.12827935" lon="7.45637200"><ele></ele><time>2014-4-30T13:47:16Z</time></trkpt>
<trkpt lat="46.12813384" lon="7.45658180"><ele></ele><time>2014-4-30T13:47:19Z</time></trkpt>
<trkpt lat="46.12821699" lon="7.45664944"><ele></ele><time>2014-4-30T13:47:22Z</time></trkpt>
<trkpt lat="46.12833526" lon="7.45656973"><ele></ele><time>2014-4-30T13:47:25Z</time></trkpt>
<trkpt lat="46.12885167" lon="7.45636320"><ele></ele><time>2014-4-30T13:47:28Z</time></trkpt>
<trkpt lat="46.12894714" lon="7.45632313"><ele></ele><time>2014-4-30T13:47:31Z</time></trkpt>
<trkpt lat="46.12926322" lon="7.45601795"><ele></ele><time>2014-4-30T13:47:34Z</time></trkpt>
<trkpt lat="46.12950227" lon="7.45571570"><ele></ele><time>2014-4-30T13:47:37Z</time></trkpt>
<trkpt lat="46.12963705" lon="7.45552844"><ele></ele><time>2014-4-30T13:47:40Z</time></trkpt>
<trkpt lat="46.12971584" lon="7.45537640"><ele></ele><time>2014-4-30T13:47:43Z</time></trkpt>
<trkpt lat="46.12974887" lon="7.45558226"><ele></ele><time>2014-4-30T13:47:46Z</time></trkpt>
<trkpt lat="46.12930739" lon="7.45680124"><ele></ele><time>2014-4-30T13:47:49Z</time></trkpt>
<trkpt lat="46.12922248" lon="7.45707063"><ele></ele><time>2014-4-30T13:47:52Z</time></trkpt>
<trkpt lat="46.12913305" lon="7.45731538"><ele></ele><time>2014-4-30T13:47:55Z</time></trkpt>
<trkpt lat="46.12878604" lon="7.45783866"><ele></ele><time>2014-4-30T13:47:58Z</time></trkpt>
<trkpt lat="46.12861413" lon="7.45801418"><ele></ele><time>2014-4-30T13:48:1Z</time></trkpt>
<trkpt lat="46.12846317" lon="7.45820504"><ele></ele><time>2014-4-30T13:48:4Z</time></trkpt>
<trkpt lat="46.12834993" lon="7.45840285"><ele></ele><time>2014-4-30T13:48:7Z</time></trkpt>
<trkpt lat="46.12807450" lon="7.45895379"><ele></ele><time>2014-4-30T13:48:10Z</time></trkpt>
<trkpt lat="46.12788297" lon="7.45902990"><ele></ele><time>2014-4-30T13:48:13Z</time></trkpt>
<trkpt lat="46.12759857" lon="7.45926216"><ele></ele><time>2014-4-30T13:48:16Z</time></trkpt>
<trkpt lat="46.12725366" lon="7.45963968"><ele></ele><time>2014-4-30T13:48:19Z</time></trkpt>
<trkpt lat="46.12717453" lon="7.45972585"><ele></ele><time>2014-4-30T13:48:22Z</time></trkpt>
<trkpt lat="46.12667095" lon="7.46000815"><ele></ele><time>2014-4-30T13:48:25Z</time></trkpt>
<trkpt lat="46.12636132" lon="7.46016808"><ele></ele><time>2014-4-30T13:48:28Z</time></trkpt>
<trkpt lat="46.12593904" lon="7.46031652"><ele></ele><time>2014-4-30T13:48:31Z</time></trkpt>
<trkpt lat="46.12562179" lon="7.46049279"><ele></ele><time>2014-4-30T13:48:34Z</time></trkpt>
<trkpt lat="46.12551869" lon="7.46057527"><ele></ele><time>2014-4-30T13:48:37Z</time></trkpt>
<trkpt lat="46.12531794" lon="7.46073964"><ele></ele><time>2014-4-30T13:48:40Z</time></trkpt>
<trkpt lat="46.12502952" lon="7.46087962"><ele></ele><time>2014-4-30T13:48:43Z</time></trkpt>
<trkpt lat="46.12481503" lon="7.46090728"><ele></ele><time>2014-4-30T13:48:46Z</time></trkpt>
<trkpt lat="46.12447145" lon="7.46097517"><ele></ele><time>2014-4-30T13:48:49Z</time></trkpt>
<trkpt lat="46.12424003" lon="7.46099864"><ele></ele><time>2014-4-30T13:48:52Z</time></trkpt>
<trkpt lat="46.12387626" lon="7.46101700"><ele></ele><time>2014-4-30T13:48:55Z</time></trkpt>
<trkpt lat="46.12362756" lon="7.46104382"><ele></ele><time>2014-4-30T13:48:58Z</time></trkpt>
<trkpt lat="46.12325097" lon="7.46106955"><ele></ele><time>2014-4-30T13:49:1Z</time></trkpt>
<trkpt lat="46.12292424" lon="7.46113962"><ele></ele><time>2014-4-30T13:49:4Z</time></trkpt>
<trkpt lat="46.12283464" lon="7.46117374"><ele></ele><time>2014-4-30T13:49:7Z</time></trkpt>
<trkpt lat="46.12261386" lon="7.46135504"><ele></ele><time>2014-4-30T13:49:10Z</time></trkpt>
<trkpt lat="46.12251990" lon="7.46144137"><ele></ele><time>2014-4-30T13:49:13Z</time></trkpt>
<trkpt lat="46.12252300" lon="7.46151614"><ele></ele><time>2014-4-30T13:49:16Z</time></trkpt>
<trkpt lat="46.12283707" lon="7.46140332"><ele></ele><time>2014-4-30T13:49:19Z</time></trkpt>
<trkpt lat="46.12292709" lon="7.46140567"><ele></ele><time>2014-4-30T13:49:22Z</time></trkpt>
<trkpt lat="46.12345238" lon="7.46149627"><ele></ele><time>2014-4-30T13:49:25Z</time></trkpt>
<trkpt lat="46.12388874" lon="7.46167590"><ele></ele><time>2014-4-30T13:49:28Z</time></trkpt>
<trkpt lat="46.12427616" lon="7.46187053"><ele></ele><time>2014-4-30T13:49:31Z</time></trkpt>
<trkpt lat="46.12435989" lon="7.46190095"><ele></ele><time>2014-4-30T13:49:34Z</time></trkpt>
<trkpt lat="46.12471369" lon="7.46210396"><ele></ele><time>2014-4-30T13:49:37Z</time></trkpt>
<trkpt lat="46.12493388" lon="7.46223732"><ele></ele><time>2014-4-30T13:49:40Z</time></trkpt>
<trkpt lat="46.12494386" lon="7.46237612"><ele></ele><time>2014-4-30T13:49:43Z</time></trkpt>
<trkpt lat="46.12445058" lon="7.46226498"><ele></ele><time>2014-4-30T13:49:46Z</time></trkpt>
<trkpt lat="46.12414163" lon="7.46232424"><ele></ele><time>2014-4-30T13:49:49Z</time></trkpt>
<trkpt lat="46.12393728" lon="7.46232692"><ele></ele><time>2014-4-30T13:49:52Z</time></trkpt>
<trkpt lat="46.12363293" lon="7.46247025"><ele></ele><time>2014-4-30T13:49:55Z</time></trkpt>
<trkpt lat="46.12344727" lon="7.46294056"><ele></ele><time>2014-4-30T13:49:58Z</time></trkpt>
<trkpt lat="46.12336244" lon="7.46331297"><ele></ele><time>2014-4-30T13:50:1Z</time></trkpt>
<trkpt lat="46.12310369" lon="7.46357096"><ele></ele><time>2014-4-30T13:50:4Z</time></trkpt>
<trkpt lat="46.12289239" lon="7.46374422"><ele></ele><time>2014-4-30T13:50:7Z</time></trkpt>
<trkpt lat="46.12292508" lon="7.46385687"><ele></ele><time>2014-4-30T13:50:10Z</time></trkpt>
<trkpt lat="46.12319707" lon="7.46384036"><ele></ele><time>2014-4-30T13:50:13Z</time></trkpt>
<trkpt lat="46.12388313" lon="7.46368747"><ele></ele><time>2014-4-30T13:50:16Z</time></trkpt>
<trkpt lat="46.12439820" lon="7.46354205"><ele></ele><time>2014-4-30T13:50:19Z</time></trkpt>
<trkpt lat="46.12449149" lon="7.46357826"><ele></ele><time>2014-4-30T13:50:22Z</time></trkpt>
<trkpt lat="46.12469072" lon="7.46365604"><ele></ele><time>2014-4-30T13:50:25Z</time></trkpt>
<trkpt lat="46.12489826" lon="7.46373625"><ele></ele><time>2014-4-30T13:50:28Z</time></trkpt>
<trkpt lat="46.12519414" lon="7.46391093"><ele></ele><time>2014-4-30T13:50:31Z</time></trkpt>
<trkpt lat="46.12534946" lon="7.46402015"><ele></ele><time>2014-4-30T13:50:34Z</time></trkpt>
<trkpt lat="46.12558306" lon="7.46400682"><ele></ele><time>2014-4-30T13:50:37Z</time></trkpt>
<trkpt lat="46.12568717" lon="7.46392066"><ele></ele><time>2014-4-30T13:50:40Z</time></trkpt>
<trkpt lat="46.12572279" lon="7.46400096"><ele></ele><time>2014-4-30T13:50:43Z</time></trkpt>
<trkpt lat="46.12567359" lon="7.46405334"><ele></ele><time>2014-4-30T13:50:46Z</time></trkpt>
<trkpt lat="46.12554945" lon="7.46418133"><ele></ele><time>2014-4-30T13:50:49Z</time></trkpt>
<trkpt lat="46.12533697" lon="7.46438216"><ele></ele><time>2014-4-30T13:50:52Z</time></trkpt>
<trkpt lat="46.12504595" lon="7.46435869"><ele></ele><time>2014-4-30T13:50:55Z</time></trkpt>
<trkpt lat="46.12483749" lon="7.46443396"><ele></ele><time>2014-4-30T13:50:58Z</time></trkpt>
<trkpt lat="46.12494855" lon="7.46458719"><ele></ele><time>2014-4-30T13:51:1Z</time></trkpt>
<trkpt lat="46.12519372" lon="7.46466572"><ele></ele><time>2014-4-30T13:51:4Z</time></trkpt>
<trkpt lat="46.12562933" lon="7.46453622"><ele></ele><time>2014-4-30T13:51:7Z</time></trkpt>
<trkpt lat="46.12580049" lon="7.46444637"><ele></ele><time>2014-4-30T13:51:10Z</time></trkpt>
<trkpt lat="46.12545172" lon="7.46483697"><ele></ele><time>2014-4-30T13:51:13Z</time></trkpt>
<trkpt lat="46.12508727" lon="7.46505112"><ele></ele><time>2014-4-30T13:51:16Z</time></trkpt>
<trkpt lat="46.12491938" lon="7.46510318"><ele></ele><time>2014-4-30T13:51:19Z</time></trkpt>
<trkpt lat="46.12468880" lon="7.46501969"><ele></ele><time>2014-4-30T13:51:22Z</time></trkpt>
<trkpt lat="46.12443399" lon="7.46498843"><ele></ele><time>2014-4-30T13:51:25Z</time></trkpt>
<trkpt lat="46.12417775" lon="7.46520954"><ele></ele><time>2014-4-30T13:51:28Z</time></trkpt>
<trkpt lat="46.12400458" lon="7.46540668"><ele></ele><time>2014-4-30T13:51:31Z</time></trkpt>
<trkpt lat="46.12350888" lon="7.46570625"><ele></ele><time>2014-4-30T13:51:34Z</time></trkpt>
<trkpt lat="46.12328516" lon="7.46577364"><ele></ele><time>2014-4-30T13:51:37Z</time></trkpt>
<trkpt lat="46.12297235" lon="7.46591614"><ele></ele><time>2014-4-30T13:51:40Z</time></trkpt>
<trkpt lat="46.12257295" lon="7.46593810"><ele></ele><time>2014-4-30T13:51:43Z</time></trkpt>
<trkpt lat="46.12236014" lon="7.46591723"><ele></ele><time>2014-4-30T13:51:46Z</time></trkpt>
<trkpt lat="46.12225662" lon="7.46593609"><ele></ele><time>2014-4-30T13:51:49Z</time></trkpt>
<trkpt lat="46.12189553" lon="7.46602736"><ele></ele><time>2014-4-30T13:51:52Z</time></trkpt>
<trkpt lat="46.12173527" lon="7.46605477"><ele></ele><time>2014-4-30T13:51:55Z</time></trkpt>
<trkpt lat="46.12160845" lon="7.46611906"><ele></ele><time>2014-4-30T13:51:58Z</time></trkpt>
<trkpt lat="46.12155229" lon="7.46642358"><ele></ele><time>2014-4-30T13:52:1Z</time></trkpt>
<trkpt lat="46.12159562" lon="7.46701660"><ele></ele><time>2014-4-30T13:52:4Z</time></trkpt>
<trkpt lat="46.12144198" lon="7.46716923"><ele></ele><time>2014-4-30T13:52:7Z</time></trkpt>
<trkpt lat="46.12113026" lon="7.46721433"><ele></ele><time>2014-4-30T13:52:10Z</time></trkpt>
<trkpt lat="46.12106807" lon="7.46726017"><ele></ele><time>2014-4-30T13:52:13Z</time></trkpt>
<trkpt lat="46.12083673" lon="7.46741340"><ele></ele><time>2014-4-30T13:52:16Z</time></trkpt>
<trkpt lat="46.12112397" lon="7.46735070"><ele></ele><time>2014-4-30T13:52:19Z</time></trkpt>
<trkpt lat="46.12147702" lon="7.46736210"><ele></ele><time>2014-4-30T13:52:22Z</time></trkpt>
<trkpt lat="46.12169285" lon="7.46739546"><ele></ele><time>2014-4-30T13:52:25Z</time></trkpt>
<trkpt lat="46.12184708" lon="7.46717275"><ele></ele><time>2014-4-30T13:52:28Z</time></trkpt>
<trkpt lat="46.12189293" lon="7.46703562"><ele></ele><time>2014-4-30T13:52:31Z</time></trkpt>
<trkpt lat="46.12196627" lon="7.46680998"><ele></ele><time>2014-4-30T13:52:34Z</time></trkpt>
<trkpt lat="46.12228394" lon="7.46677402"><ele></ele><time>2014-4-30T13:52:37Z</time></trkpt>
<trkpt lat="46.12244664" lon="7.46686128"><ele></ele><time>2014-4-30T13:52:40Z</time></trkpt>
<trkpt lat="46.12291317" lon="7.46706563"><ele></ele><time>2014-4-30T13:52:43Z</time></trkpt>
<trkpt lat="46.12300093" lon="7.46709614"><ele></ele><time>2014-4-30T13:52:46Z</time></trkpt>
<trkpt lat="46.12337896" lon="7.46706236"><ele></ele><time>2014-4-30T13:52:49Z</time></trkpt>
<trkpt lat="46.12374717" lon="7.46691509"><ele></ele><time>2014-4-30T13:52:52Z</time></trkpt>
<trkpt lat="46.12385069" lon="7.46689573"><ele></ele><time>2014-4-30T13:52:55Z</time></trkpt>
<trkpt lat="46.12407474" lon="7.46688877"><ele></ele><time>2014-4-30T13:52:58Z</time></trkpt>
<trkpt lat="46.12438948" lon="7.46698726"><ele></ele><time>2014-4-30T13:53:1Z</time></trkpt>
<trkpt lat="46.12458662" lon="7.46705859"><ele></ele><time>2014-4-30T13:53:4Z</time></trkpt>
<trkpt lat="46.12492282" lon="7.46710804"><ele></ele><time>2014-4-30T13:53:7Z</time></trkpt>
<trkpt lat="46.12533873" lon="7.46702607"><ele></ele><time>2014-4-30T13:53:10Z</time></trkpt>
<trkpt lat="46.12547326" lon="7.46699849"><ele></ele><time>2014-4-30T13:53:13Z</time></trkpt>
<trkpt lat="46.12539514" lon="7.46704677"><ele></ele><time>2014-4-30T13:53:16Z</time></trkpt>
<trkpt lat="46.12512776" lon="7.46721759"><ele></ele><time>2014-4-30T13:53:19Z</time></trkpt>
<trkpt lat="46.12502877" lon="7.46726378"><ele></ele><time>2014-4-30T13:53:22Z</time></trkpt>
<trkpt lat="46.12471134" lon="7.46753393"><ele></ele><time>2014-4-30T13:53:25Z</time></trkpt>
<trkpt lat="46.12392772" lon="7.46783610"><ele></ele><time>2014-4-30T13:53:28Z</time></trkpt>
<trkpt lat="46.12368783" lon="7.46793693"><ele></ele><time>2014-4-30T13:53:31Z</time></trkpt>
<trkpt lat="46.12346504" lon="7.46807347"><ele></ele><time>2014-4-30T13:53:34Z</time></trkpt>
<trkpt lat="46.12313228" lon="7.46827698"><ele></ele><time>2014-4-30T13:53:37Z</time></trkpt>
<trkpt lat="46.12303002" lon="7.46833264"><ele></ele><time>2014-4-30T13:53:40Z</time></trkpt>
<trkpt lat="46.12275878" lon="7.46832820"><ele></ele><time>2014-4-30T13:53:43Z</time></trkpt>
<trkpt lat="46.12258259" lon="7.46824798"><ele></ele><time>2014-4-30T13:53:46Z</time></trkpt>
<trkpt lat="46.12224078" lon="7.46844144"><ele></ele><time>2014-4-30T13:53:49Z</time></trkpt>
<trkpt lat="46.12212737" lon="7.46877939"><ele></ele><time>2014-4-30T13:53:52Z</time></trkpt>
<trkpt lat="46.12205805" lon="7.46887059"><ele></ele><time>2014-4-30T13:53:55Z</time></trkpt>
<trkpt lat="46.12183878" lon="7.46918550"><ele></ele><time>2014-4-30T13:53:58Z</time></trkpt>
<trkpt lat="46.12155505" lon="7.46936755"><ele></ele><time>2014-4-30T13:54:1Z</time></trkpt>
<trkpt lat="46.12136646" lon="7.46933612"><ele></ele><time>2014-4-30T13:54:4Z</time></trkpt>
<trkpt lat="46.12106698" lon="7.46937015"><ele></ele><time>2014-4-30T13:54:7Z</time></trkpt>
<trkpt lat="46.12098332" lon="7.46942983"><ele></ele><time>2014-4-30T13:54:10Z</time></trkpt>
<trkpt lat="46.12086263" lon="7.46964625"><ele></ele><time>2014-4-30T13:54:13Z</time></trkpt>
<trkpt lat="46.12071326" lon="7.46996912"><ele></ele><time>2014-4-30T13:54:16Z</time></trkpt>
<trkpt lat="46.12052768" lon="7.46971188"><ele></ele><time>2014-4-30T13:54:19Z</time></trkpt>
<trkpt lat="46.12041947" lon="7.46952538"><ele></ele><time>2014-4-30T13:54:22Z</time></trkpt>
<trkpt lat="46.12025552" lon="7.46942237"><ele></ele><time>2014-4-30T13:54:25Z</time></trkpt>
<trkpt lat="46.12006752" lon="7.46934677"><ele></ele><time>2014-4-30T13:54:28Z</time></trkpt>
<trkpt lat="46.11983752" lon="7.46908332"><ele></ele><time>2014-4-30T13:54:31Z</time></trkpt>
<trkpt lat="46.11968237" lon="7.46878375"><ele></ele><time>2014-4-30T13:54:34Z</time></trkpt>
<trkpt lat="46.11949218" lon="7.46865987"><ele></ele><time>2014-4-30T13:54:37Z</time></trkpt>
<trkpt lat="46.11917510" lon="7.46852987"><ele></ele><time>2014-4-30T13:54:40Z</time></trkpt>
<trkpt lat="46.11890436" lon="7.46835493"><ele></ele><time>2014-4-30T13:54:43Z</time></trkpt>
<trkpt lat="46.11853782" lon="7.46819962"><ele></ele><time>2014-4-30T13:54:46Z</time></trkpt>
<trkpt lat="46.11828963" lon="7.46808579"><ele></ele><time>2014-4-30T13:54:49Z</time></trkpt>
<trkpt lat="46.11815074" lon="7.46805545"><ele></ele><time>2014-4-30T13:54:52Z</time></trkpt>
<trkpt lat="46.11798218" lon="7.46843666"><ele></ele><time>2014-4-30T13:54:55Z</time></trkpt>
<trkpt lat="46.11796265" lon="7.46872609"><ele></ele><time>2014-4-30T13:54:58Z</time></trkpt>
<trkpt lat="46.11796685" lon="7.46917309"><ele></ele><time>2014-4-30T13:55:1Z</time></trkpt>
<trkpt lat="46.11805569" lon="7.46958129"><ele></ele><time>2014-4-30T13:55:4Z</time></trkpt>
<trkpt lat="46.11822509" lon="7.46996149"><ele></ele><time>2014-4-30T13:55:7Z</time></trkpt>
<trkpt lat="46.11828217" lon="7.47008613"><ele></ele><time>2014-4-30T13:55:10Z</time></trkpt>
<trkpt lat="46.11837203" lon="7.47087437"><ele></ele><time>2014-4-30T13:55:13Z</time></trkpt>
<trkpt lat="46.11833783" lon="7.47144442"><ele></ele><time>2014-4-30T13:55:16Z</time></trkpt>
<trkpt lat="46.11834873" lon="7.47171365"><ele></ele><time>2014-4-30T13:55:19Z</time></trkpt>
<trkpt lat="46.11838468" lon="7.47223676"><ele></ele><time>2014-4-30T13:55:22Z</time></trkpt>
<trkpt lat="46.11839969" lon="7.47251672"><ele></ele><time>2014-4-30T13:55:25Z</time></trkpt>
<trkpt lat="46.11843338" lon="7.47278913"><ele></ele><time>2014-4-30T13:55:28Z</time></trkpt>
<trkpt lat="46.11834068" lon="7.47333144"><ele></ele><time>2014-4-30T13:55:31Z</time></trkpt>
<trkpt lat="46.11827597" lon="7.47371810"><ele></ele><time>2014-4-30T13:55:34Z</time></trkpt>
<trkpt lat="46.11828276" lon="7.47400870"><ele></ele><time>2014-4-30T13:55:37Z</time></trkpt>
<trkpt lat="46.11825175" lon="7.47463265"><ele></ele><time>2014-4-30T13:55:40Z</time></trkpt>
<trkpt lat="46.11822593" lon="7.47490782"><ele></ele><time>2014-4-30T13:55:43Z</time></trkpt>
<trkpt lat="46.11815527" lon="7.47513698"><ele></ele><time>2014-4-30T13:55:46Z</time></trkpt>
<trkpt lat="46.11808402" lon="7.47576269"><ele></ele><time>2014-4-30T13:55:49Z</time></trkpt>
<trkpt lat="46.11823129" lon="7.47676064"><ele></ele><time>2014-4-30T13:55:52Z</time></trkpt>
<trkpt lat="46.11815896" lon="7.47740244"><ele></ele><time>2014-4-30T13:55:55Z</time></trkpt>
<trkpt lat="46.11809467" lon="7.47753840"><ele></ele><time>2014-4-30T13:55:58Z</time></trkpt>
<trkpt lat="46.11799157" lon="7.47780494"><ele></ele><time>2014-4-30T13:56:1Z</time></trkpt>
<trkpt lat="46.11795972" lon="7.47795238"><ele></ele><time>2014-4-30T13:56:4Z</time></trkpt>
<trkpt lat="46.11784539" lon="7.47853484"><ele></ele><time>2014-4-30T13:56:7Z</time></trkpt>
<trkpt lat="46.11764926" lon="7.47908494"><ele></ele><time>2014-4-30T13:56:10Z</time></trkpt>
<trkpt lat="46.11734726" lon="7.47958953"><ele></ele><time>2014-4-30T13:56:13Z</time></trkpt>
<trkpt lat="46.11722438" lon="7.47984108"><ele></ele><time>2014-4-30T13:56:16Z</time></trkpt>
<trkpt lat="46.11713964" lon="7.48050040"><ele></ele><time>2014-4-30T13:56:19Z</time></trkpt>
<trkpt lat="46.11709085" lon="7.48065948"><ele></ele><time>2014-4-30T13:56:22Z</time></trkpt>
<trkpt lat="46.11693067" lon="7.48114069"><ele></ele><time>2014-4-30T13:56:25Z</time></trkpt>
<trkpt lat="46.11657704" lon="7.48185156"><ele></ele><time>2014-4-30T13:56:28Z</time></trkpt>
<trkpt lat="46.11646037" lon="7.48206739"><ele></ele><time>2014-4-30T13:56:31Z</time></trkpt>
<trkpt lat="46.11619558" lon="7.48228717"><ele></ele><time>2014-4-30T13:56:34Z</time></trkpt>
<trkpt lat="46.11595703" lon="7.48234592"><ele></ele><time>2014-4-30T13:56:37Z</time></trkpt>
<trkpt lat="46.11577230" lon="7.48251524"><ele></ele><time>2014-4-30T13:56:40Z</time></trkpt>
<trkpt lat="46.11571429" lon="7.48262035"><ele></ele><time>2014-4-30T13:56:43Z</time></trkpt>
<trkpt lat="46.11566484" lon="7.48275513"><ele></ele><time>2014-4-30T13:56:46Z</time></trkpt>
<trkpt lat="46.11557633" lon="7.48312879"><ele></ele><time>2014-4-30T13:56:49Z</time></trkpt>
<trkpt lat="46.11555529" lon="7.48322133"><ele></ele><time>2014-4-30T13:56:52Z</time></trkpt>
<trkpt lat="46.11538949" lon="7.48347949"><ele></ele><time>2014-4-30T13:56:55Z</time></trkpt>
<trkpt lat="46.11525639" lon="7.48355225"><ele></ele><time>2014-4-30T13:56:58Z</time></trkpt>
<trkpt lat="46.11514466" lon="7.48366825"><ele></ele><time>2014-4-30T13:57:1Z</time></trkpt>
<trkpt lat="46.11510032" lon="7.48374956"><ele></ele><time>2014-4-30T13:57:4Z</time></trkpt>
<trkpt lat="46.11492120" lon="7.48411358"><ele></ele><time>2014-4-30T13:57:7Z</time></trkpt>
<trkpt lat="46.11476605" lon="7.48431944"><ele></ele><time>2014-4-30T13:57:10Z</time></trkpt>
<trkpt lat="46.11466756" lon="7.48446529"><ele></ele><time>2014-4-30T13:57:13Z</time></trkpt>
<trkpt lat="46.11459145" lon="7.48460175"><ele></ele><time>2014-4-30T13:57:16Z</time></trkpt>
<trkpt lat="46.11450613" lon="7.48479763"><ele></ele><time>2014-4-30T13:57:19Z</time></trkpt>
<trkpt lat="46.11447427" lon="7.48489109"><ele></ele><time>2014-4-30T13:57:22Z</time></trkpt>
<trkpt lat="46.11450068" lon="7.48505940"><ele></ele><time>2014-4-30T13:57:25Z</time></trkpt>
<trkpt lat="46.11455793" lon="7.48524204"><ele></ele><time>2014-4-30T13:57:28Z</time></trkpt>
<trkpt lat="46.11458198" lon="7.48531488"><ele></ele><time>2014-4-30T13:57:31Z</time></trkpt>
<trkpt lat="46.11460009" lon="7.48549266"><ele></ele><time>2014-4-30T13:57:34Z</time></trkpt>
<trkpt lat="46.11453848" lon="7.48569424"><ele></ele><time>2014-4-30T13:57:37Z</time></trkpt>
<trkpt lat="46.11447578" lon="7.48585518"><ele></ele><time>2014-4-30T13:57:40Z</time></trkpt>
<trkpt lat="46.11435207" lon="7.48612063"><ele></ele><time>2014-4-30T13:57:43Z</time></trkpt>
<trkpt lat="46.11432818" lon="7.48620462"><ele></ele><time>2014-4-30T13:57:46Z</time></trkpt>
<trkpt lat="46.11431988" lon="7.48626329"><ele></ele><time>2014-4-30T13:57:49Z</time></trkpt>
<trkpt lat="46.11423908" lon="7.48654752"><ele></ele><time>2014-4-30T13:57:52Z</time></trkpt>
<trkpt lat="46.11416289" lon="7.48665565"><ele></ele><time>2014-4-30T13:57:55Z</time></trkpt>
<trkpt lat="46.11409977" lon="7.48672932"><ele></ele><time>2014-4-30T13:57:58Z</time></trkpt>
<trkpt lat="46.11410354" lon="7.48677073"><ele></ele><time>2014-4-30T13:58:1Z</time></trkpt>
<trkpt lat="46.11408502" lon="7.48680602"><ele></ele><time>2014-4-30T13:58:4Z</time></trkpt>
<trkpt lat="46.11401293" lon="7.48698078"><ele></ele><time>2014-4-30T13:58:7Z</time></trkpt>
<trkpt lat="46.11400330" lon="7.48704105"><ele></ele><time>2014-4-30T13:58:10Z</time></trkpt>
<trkpt lat="46.11397790" lon="7.48725755"><ele></ele><time>2014-4-30T13:58:13Z</time></trkpt>
<trkpt lat="46.11395116" lon="7.48743919"><ele></ele><time>2014-4-30T13:58:16Z</time></trkpt>
<trkpt lat="46.11391336" lon="7.48769559"><ele></ele><time>2014-4-30T13:58:19Z</time></trkpt>
<trkpt lat="46.11388570" lon="7.48785275"><ele></ele><time>2014-4-30T13:58:22Z</time></trkpt>
<trkpt lat="46.11380699" lon="7.48807386"><ele></ele><time>2014-4-30T13:58:25Z</time></trkpt>
<trkpt lat="46.11359987" lon="7.48825818"><ele></ele><time>2014-4-30T13:58:28Z</time></trkpt>
<trkpt lat="46.11353374" lon="7.48829699"><ele></ele><time>2014-4-30T13:58:31Z</time></trkpt>
<trkpt lat="46.11347272" lon="7.48837528"><ele></ele><time>2014-4-30T13:58:34Z</time></trkpt>
<trkpt lat="46.11343182" lon="7.48845667"><ele></ele><time>2014-4-30T13:58:37Z</time></trkpt>
<trkpt lat="46.11336468" lon="7.48856085"><ele></ele><time>2014-4-30T13:58:40Z</time></trkpt>
<trkpt lat="46.11326326" lon="7.48890929"><ele></ele><time>2014-4-30T13:58:43Z</time></trkpt>
<trkpt lat="46.11333258" lon="7.48914884"><ele></ele><time>2014-4-30T13:58:46Z</time></trkpt>
<trkpt lat="46.11342335" lon="7.48949242"><ele></ele><time>2014-4-30T13:58:49Z</time></trkpt>
<trkpt lat="46.11338337" lon="7.48958152"><ele></ele><time>2014-4-30T13:58:52Z</time></trkpt>
<trkpt lat="46.11332838" lon="7.48967087"><ele></ele><time>2014-4-30T13:58:55Z</time></trkpt>
<trkpt lat="46.11319704" lon="7.48986893"><ele></ele><time>2014-4-30T13:58:58Z</time></trkpt>
<trkpt lat="46.11261450" lon="7.49094349"><ele></ele><time>2014-4-30T13:59:1Z</time></trkpt>
<trkpt lat="46.11258348" lon="7.49138656"><ele></ele><time>2014-4-30T13:59:4Z</time></trkpt>
<trkpt lat="46.11277099" lon="7.49132227"><ele></ele><time>2014-4-30T13:59:7Z</time></trkpt>
<trkpt lat="46.11283276" lon="7.49122504"><ele></ele><time>2014-4-30T13:59:10Z</time></trkpt>
<trkpt lat="46.11311339" lon="7.49061023"><ele></ele><time>2014-4-30T13:59:13Z</time></trkpt>
<trkpt lat="46.11342176" lon="7.49034964"><ele></ele><time>2014-4-30T13:59:16Z</time></trkpt>
<trkpt lat="46.11352745" lon="7.49042046"><ele></ele><time>2014-4-30T13:59:19Z</time></trkpt>
<trkpt lat="46.11367590" lon="7.49102815"><ele></ele><time>2014-4-30T13:59:22Z</time></trkpt>
<trkpt lat="46.11350658" lon="7.49159812"><ele></ele><time>2014-4-30T13:59:25Z</time></trkpt>
<trkpt lat="46.11327575" lon="7.49196818"><ele></ele><time>2014-4-30T13:59:28Z</time></trkpt>
<trkpt lat="46.11295187" lon="7.49231662"><ele></ele><time>2014-4-30T13:59:31Z</time></trkpt>
<trkpt lat="46.11278465" lon="7.49267972"><ele></ele><time>2014-4-30T13:59:34Z</time></trkpt>
<trkpt lat="46.11253453" lon="7.49359905"><ele></ele><time>2014-4-30T13:59:37Z</time></trkpt>
<trkpt lat="46.11230152" lon="7.49428905"><ele></ele><time>2014-4-30T13:59:40Z</time></trkpt>
<trkpt lat="46.11159367" lon="7.49544147"><ele></ele><time>2014-4-30T13:59:43Z</time></trkpt>
<trkpt lat="46.11098707" lon="7.49617766"><ele></ele><time>2014-4-30T13:59:46Z</time></trkpt>
<trkpt lat="46.11041852" lon="7.49724182"><ele></ele><time>2014-4-30T13:59:49Z</time></trkpt>
<trkpt lat="46.11038776" lon="7.49793786"><ele></ele><time>2014-4-30T13:59:52Z</time></trkpt>
<trkpt lat="46.11046010" lon="7.49823717"><ele></ele><time>2014-4-30T13:59:55Z</time></trkpt>
<trkpt lat="46.11036915" lon="7.49876507"><ele></ele><time>2014-4-30T13:59:58Z</time></trkpt>
<trkpt lat="46.11007093" lon="7.49914175"><ele></ele><time>2014-4-30T14:0:1Z</time></trkpt>
<trkpt lat="46.11004628" lon="7.49916933"><ele></ele><time>2014-4-30T14:0:4Z</time></trkpt>
<trkpt lat="46.10974613" lon="7.49938860"><ele></ele><time>2014-4-30T14:0:7Z</time></trkpt>
<trkpt lat="46.10953725" lon="7.49948063"><ele></ele><time>2014-4-30T14:0:10Z</time></trkpt>
<trkpt lat="46.10964202" lon="7.49957543"><ele></ele><time>2014-4-30T14:0:13Z</time></trkpt>
<trkpt lat="46.11011929" lon="7.49929296"><ele></ele><time>2014-4-30T14:0:16Z</time></trkpt>
<trkpt lat="46.11095815" lon="7.49847673"><ele></ele><time>2014-4-30T14:0:19Z</time></trkpt>
<trkpt lat="46.11172627" lon="7.49770115"><ele></ele><time>2014-4-30T14:0:22Z</time></trkpt>
<trkpt lat="46.11220563" lon="7.49723780"><ele></ele><time>2014-4-30T14:0:25Z</time></trkpt>
<trkpt lat="46.11266579" lon="7.49612669"><ele></ele><time>2014-4-30T14:0:28Z</time></trkpt>
<trkpt lat="46.11292538" lon="7.49557123"><ele></ele><time>2014-4-30T14:0:31Z</time></trkpt>
<trkpt lat="46.11327063" lon="7.49492096"><ele></ele><time>2014-4-30T14:0:34Z</time></trkpt>
<trkpt lat="46.11348219" lon="7.49420665"><ele></ele><time>2014-4-30T14:0:37Z</time></trkpt>
<trkpt lat="46.11359183" lon="7.49399778"><ele></ele><time>2014-4-30T14:0:40Z</time></trkpt>
<trkpt lat="46.11372527" lon="7.49373928"><ele></ele><time>2014-4-30T14:0:43Z</time></trkpt>
<trkpt lat="46.11410329" lon="7.49302472"><ele></ele><time>2014-4-30T14:0:46Z</time></trkpt>
<trkpt lat="46.11429423" lon="7.49267260"><ele></ele><time>2014-4-30T14:0:49Z</time></trkpt>
<trkpt lat="46.11489069" lon="7.49181714"><ele></ele><time>2014-4-30T14:0:52Z</time></trkpt>
<trkpt lat="46.11542302" lon="7.49108758"><ele></ele><time>2014-4-30T14:0:55Z</time></trkpt>
<trkpt lat="46.11559493" lon="7.49085456"><ele></ele><time>2014-4-30T14:0:58Z</time></trkpt>
<trkpt lat="46.11580934" lon="7.49080276"><ele></ele><time>2014-4-30T14:1:1Z</time></trkpt>
<trkpt lat="46.11593147" lon="7.49086328"><ele></ele><time>2014-4-30T14:1:4Z</time></trkpt>
<trkpt lat="46.11588277" lon="7.49103829"><ele></ele><time>2014-4-30T14:1:7Z</time></trkpt>
<trkpt lat="46.11585125" lon="7.49116000"><ele></ele><time>2014-4-30T14:1:10Z</time></trkpt>
<trkpt lat="46.11594966" lon="7.49122412"><ele></ele><time>2014-4-30T14:1:13Z</time></trkpt>
<trkpt lat="46.11606298" lon="7.49120878"><ele></ele><time>2014-4-30T14:1:16Z</time></trkpt>
<trkpt lat="46.11608494" lon="7.49117668"><ele></ele><time>2014-4-30T14:1:19Z</time></trkpt>
<trkpt lat="46.11639717" lon="7.49087979"><ele></ele><time>2014-4-30T14:1:22Z</time></trkpt>
<trkpt lat="46.11693017" lon="7.49036824"><ele></ele><time>2014-4-30T14:1:25Z</time></trkpt>
<trkpt lat="46.11721616" lon="7.49023187"><ele></ele><time>2014-4-30T14:1:28Z</time></trkpt>
<trkpt lat="46.11789485" lon="7.48999416"><ele></ele><time>2014-4-30T14:1:31Z</time></trkpt>
<trkpt lat="46.11849499" lon="7.48992375"><ele></ele><time>2014-4-30T14:1:34Z</time></trkpt>
<trkpt lat="46.11852248" lon="7.48994119"><ele></ele><time>2014-4-30T14:1:37Z</time></trkpt>
<trkpt lat="46.11851435" lon="7.48994479"><ele></ele><time>2014-4-30T14:1:40Z</time></trkpt>
<trkpt lat="46.11857344" lon="7.48989995"><ele></ele><time>2014-4-30T14:1:43Z</time></trkpt>
<trkpt lat="46.11897552" lon="7.48974949"><ele></ele><time>2014-4-30T14:1:46Z</time></trkpt>
<trkpt lat="46.11930384" lon="7.48965612"><ele></ele><time>2014-4-30T14:1:49Z</time></trkpt>
<trkpt lat="46.11976694" lon="7.48946945"><ele></ele><time>2014-4-30T14:1:52Z</time></trkpt>
<trkpt lat="46.11981967" lon="7.48943743"><ele></ele><time>2014-4-30T14:1:55Z</time></trkpt>
<trkpt lat="46.12014404" lon="7.48919277"><ele></ele><time>2014-4-30T14:1:58Z</time></trkpt>
<trkpt lat="46.12019693" lon="7.48916837"><ele></ele><time>2014-4-30T14:2:1Z</time></trkpt>
<trkpt lat="46.12023147" lon="7.48940047"><ele></ele><time>2014-4-30T14:2:4Z</time></trkpt>
<trkpt lat="46.12002050" lon="7.48973474"><ele></ele><time>2014-4-30T14:2:7Z</time></trkpt>
<trkpt lat="46.11978346" lon="7.49030605"><ele></ele><time>2014-4-30T14:2:10Z</time></trkpt>
<trkpt lat="46.11955253" lon="7.49064594"><ele></ele><time>2014-4-30T14:2:13Z</time></trkpt>
<trkpt lat="46.11924827" lon="7.49083268"><ele></ele><time>2014-4-30T14:2:16Z</time></trkpt>
<trkpt lat="46.11898072" lon="7.49112815"><ele></ele><time>2014-4-30T14:2:19Z</time></trkpt>
<trkpt lat="46.11869565" lon="7.49146082"><ele></ele><time>2014-4-30T14:2:22Z</time></trkpt>
<trkpt lat="46.11840882" lon="7.49180004"><ele></ele><time>2014-4-30T14:2:25Z</time></trkpt>
<trkpt lat="46.11816550" lon="7.49209919"><ele></ele><time>2014-4-30T14:2:28Z</time></trkpt>
<trkpt lat="46.11789845" lon="7.49241267"><ele></ele><time>2014-4-30T14:2:31Z</time></trkpt>
<trkpt lat="46.11786006" lon="7.49246540"><ele></ele><time>2014-4-30T14:2:34Z</time></trkpt>
<trkpt lat="46.11764473" lon="7.49288013"><ele></ele><time>2014-4-30T14:2:37Z</time></trkpt>
<trkpt lat="46.11753853" lon="7.49343535"><ele></ele><time>2014-4-30T14:2:40Z</time></trkpt>
<trkpt lat="46.11749000" lon="7.49393743"><ele></ele><time>2014-4-30T14:2:43Z</time></trkpt>
<trkpt lat="46.11758874" lon="7.49392846"><ele></ele><time>2014-4-30T14:2:46Z</time></trkpt>
<trkpt lat="46.11772905" lon="7.49356116"><ele></ele><time>2014-4-30T14:2:49Z</time></trkpt>
<trkpt lat="46.11792946" lon="7.49327685"><ele></ele><time>2014-4-30T14:2:52Z</time></trkpt>
<trkpt lat="46.11820623" lon="7.49310225"><ele></ele><time>2014-4-30T14:2:55Z</time></trkpt>
<trkpt lat="46.11847973" lon="7.49306755"><ele></ele><time>2014-4-30T14:2:58Z</time></trkpt>
<trkpt lat="46.11874628" lon="7.49302003"><ele></ele><time>2014-4-30T14:3:1Z</time></trkpt>
<trkpt lat="46.11903017" lon="7.49289715"><ele></ele><time>2014-4-30T14:3:4Z</time></trkpt>
<trkpt lat="46.11931474" lon="7.49278106"><ele></ele><time>2014-4-30T14:3:7Z</time></trkpt>
<trkpt lat="46.11954516" lon="7.49265877"><ele></ele><time>2014-4-30T14:3:10Z</time></trkpt>
<trkpt lat="46.11981673" lon="7.49251384"><ele></ele><time>2014-4-30T14:3:13Z</time></trkpt>
<trkpt lat="46.11995487" lon="7.49230488"><ele></ele><time>2014-4-30T14:3:16Z</time></trkpt>
<trkpt lat="46.12010046" lon="7.49198243"><ele></ele><time>2014-4-30T14:3:19Z</time></trkpt>
<trkpt lat="46.12011328" lon="7.49192887"><ele></ele><time>2014-4-30T14:3:22Z</time></trkpt>
<trkpt lat="46.12017422" lon="7.49184203"><ele></ele><time>2014-4-30T14:3:25Z</time></trkpt>
<trkpt lat="46.12038779" lon="7.49176609"><ele></ele><time>2014-4-30T14:3:28Z</time></trkpt>
<trkpt lat="46.12059105" lon="7.49170859"><ele></ele><time>2014-4-30T14:3:31Z</time></trkpt>
<trkpt lat="46.12068149" lon="7.49164020"><ele></ele><time>2014-4-30T14:3:34Z</time></trkpt>
<trkpt lat="46.12089406" lon="7.49147004"><ele></ele><time>2014-4-30T14:3:37Z</time></trkpt>
<trkpt lat="46.12108475" lon="7.49131422"><ele></ele><time>2014-4-30T14:3:40Z</time></trkpt>
<trkpt lat="46.12136822" lon="7.49104458"><ele></ele><time>2014-4-30T14:3:43Z</time></trkpt>
<trkpt lat="46.12145028" lon="7.49097534"><ele></ele><time>2014-4-30T14:3:46Z</time></trkpt>
<trkpt lat="46.12165958" lon="7.49085054"><ele></ele><time>2014-4-30T14:3:49Z</time></trkpt>
<trkpt lat="46.12194113" lon="7.49076529"><ele></ele><time>2014-4-30T14:3:52Z</time></trkpt>
<trkpt lat="46.12233935" lon="7.49060118"><ele></ele><time>2014-4-30T14:3:55Z</time></trkpt>
<trkpt lat="46.12270949" lon="7.49070679"><ele></ele><time>2014-4-30T14:3:58Z</time></trkpt>
<trkpt lat="46.12293765" lon="7.49070796"><ele></ele><time>2014-4-30T14:4:1Z</time></trkpt>
<trkpt lat="46.12332154" lon="7.49065557"><ele></ele><time>2014-4-30T14:4:4Z</time></trkpt>
<trkpt lat="46.12373519" lon="7.49047469"><ele></ele><time>2014-4-30T14:4:7Z</time></trkpt>
<trkpt lat="46.12373695" lon="7.49036933"><ele></ele><time>2014-4-30T14:4:10Z</time></trkpt>
<trkpt lat="46.12370007" lon="7.49027135"><ele></ele><time>2014-4-30T14:4:13Z</time></trkpt>
<trkpt lat="46.12363108" lon="7.49003448"><ele></ele><time>2014-4-30T14:4:16Z</time></trkpt>
<trkpt lat="46.12350016" lon="7.48954883"><ele></ele><time>2014-4-30T14:4:19Z</time></trkpt>
<trkpt lat="46.12342397" lon="7.48920869"><ele></ele><time>2014-4-30T14:4:22Z</time></trkpt>
<trkpt lat="46.12341726" lon="7.48915572"><ele></ele><time>2014-4-30T14:4:25Z</time></trkpt>
<trkpt lat="46.12344475" lon="7.48874836"><ele></ele><time>2014-4-30T14:4:28Z</time></trkpt>
<trkpt lat="46.12349094" lon="7.48831484"><ele></ele><time>2014-4-30T14:4:31Z</time></trkpt>
<trkpt lat="46.12356445" lon="7.48793255"><ele></ele><time>2014-4-30T14:4:34Z</time></trkpt>
<trkpt lat="46.12365506" lon="7.48749794"><ele></ele><time>2014-4-30T14:4:37Z</time></trkpt>
<trkpt lat="46.12378129" lon="7.48702998"><ele></ele><time>2014-4-30T14:4:40Z</time></trkpt>
<trkpt lat="46.12392420" lon="7.48691917"><ele></ele><time>2014-4-30T14:4:43Z</time></trkpt>
<trkpt lat="46.12412914" lon="7.48708782"><ele></ele><time>2014-4-30T14:4:46Z</time></trkpt>
<trkpt lat="46.12446634" lon="7.48706276"><ele></ele><time>2014-4-30T14:4:49Z</time></trkpt>
<trkpt lat="46.12449777" lon="7.48710508"><ele></ele><time>2014-4-30T14:4:52Z</time></trkpt>
<trkpt lat="46.12443726" lon="7.48724925"><ele></ele><time>2014-4-30T14:4:55Z</time></trkpt>
<trkpt lat="46.12434723" lon="7.48726032"><ele></ele><time>2014-4-30T14:4:58Z</time></trkpt>
<trkpt lat="46.12403166" lon="7.48747104"><ele></ele><time>2014-4-30T14:5:1Z</time></trkpt>
<trkpt lat="46.12394147" lon="7.48778285"><ele></ele><time>2014-4-30T14:5:4Z</time></trkpt>
<trkpt lat="46.12390677" lon="7.48813086"><ele></ele><time>2014-4-30T14:5:7Z</time></trkpt>
<trkpt lat="46.12390182" lon="7.48850469"><ele></ele><time>2014-4-30T14:5:10Z</time></trkpt>
<trkpt lat="46.12396753" lon="7.48892857"><ele></ele><time>2014-4-30T14:5:13Z</time></trkpt>
<trkpt lat="46.12405177" lon="7.48904658"><ele></ele><time>2014-4-30T14:5:16Z</time></trkpt>
<trkpt lat="46.12427775" lon="7.48931967"><ele></ele><time>2014-4-30T14:5:19Z</time></trkpt>
<trkpt lat="46.12440524" lon="7.48972937"><ele></ele><time>2014-4-30T14:5:22Z</time></trkpt>
<trkpt lat="46.12453138" lon="7.49005996"><ele></ele><time>2014-4-30T14:5:25Z</time></trkpt>
<trkpt lat="46.12472392" lon="7.49044184"><ele></ele><time>2014-4-30T14:5:28Z</time></trkpt>
<trkpt lat="46.12487102" lon="7.49072732"><ele></ele><time>2014-4-30T14:5:31Z</time></trkpt>
<trkpt lat="46.12493154" lon="7.49048299"><ele></ele><time>2014-4-30T14:5:34Z</time></trkpt>
<trkpt lat="46.12485702" lon="7.49023849"><ele></ele><time>2014-4-30T14:5:37Z</time></trkpt>
<trkpt lat="46.12478469" lon="7.48987354"><ele></ele><time>2014-4-30T14:5:40Z</time></trkpt>
<trkpt lat="46.12471897" lon="7.48949208"><ele></ele><time>2014-4-30T14:5:43Z</time></trkpt>
<trkpt lat="46.12459970" lon="7.48895925"><ele></ele><time>2014-4-30T14:5:46Z</time></trkpt>
<trkpt lat="46.12454488" lon="7.48856697"><ele></ele><time>2014-4-30T14:5:49Z</time></trkpt>
<trkpt lat="46.12466156" lon="7.48831778"><ele></ele><time>2014-4-30T14:5:52Z</time></trkpt>
<trkpt lat="46.12484730" lon="7.48810127"><ele></ele><time>2014-4-30T14:5:55Z</time></trkpt>
<trkpt lat="46.12485367" lon="7.48829297"><ele></ele><time>2014-4-30T14:5:58Z</time></trkpt>
<trkpt lat="46.12467748" lon="7.48850604"><ele></ele><time>2014-4-30T14:6:1Z</time></trkpt>
<trkpt lat="46.12469215" lon="7.48874282"><ele></ele><time>2014-4-30T14:6:4Z</time></trkpt>
<trkpt lat="46.12478737" lon="7.48869798"><ele></ele><time>2014-4-30T14:6:7Z</time></trkpt>
<trkpt lat="46.12485182" lon="7.48853914"><ele></ele><time>2014-4-30T14:6:10Z</time></trkpt>
<trkpt lat="46.12503958" lon="7.48826900"><ele></ele><time>2014-4-30T14:6:13Z</time></trkpt>
<trkpt lat="46.12505299" lon="7.48824846"><ele></ele><time>2014-4-30T14:6:16Z</time></trkpt>
<trkpt lat="46.12533135" lon="7.48790212"><ele></ele><time>2014-4-30T14:6:19Z</time></trkpt>
<trkpt lat="46.12556890" lon="7.48759962"><ele></ele><time>2014-4-30T14:6:22Z</time></trkpt>
<trkpt lat="46.12558172" lon="7.48758034"><ele></ele><time>2014-4-30T14:6:25Z</time></trkpt>
<trkpt lat="46.12576713" lon="7.48744757"><ele></ele><time>2014-4-30T14:6:28Z</time></trkpt>
<trkpt lat="46.12609738" lon="7.48742276"><ele></ele><time>2014-4-30T14:6:31Z</time></trkpt>
<trkpt lat="46.12633282" lon="7.48714766"><ele></ele><time>2014-4-30T14:6:34Z</time></trkpt>
<trkpt lat="46.12666173" lon="7.48661902"><ele></ele><time>2014-4-30T14:6:37Z</time></trkpt>
<trkpt lat="46.12700363" lon="7.48628106"><ele></ele><time>2014-4-30T14:6:40Z</time></trkpt>
<trkpt lat="46.12727160" lon="7.48617553"><ele></ele><time>2014-4-30T14:6:43Z</time></trkpt>
<trkpt lat="46.12752297" lon="7.48609557"><ele></ele><time>2014-4-30T14:6:46Z</time></trkpt>
<trkpt lat="46.12761970" lon="7.48604855"><ele></ele><time>2014-4-30T14:6:49Z</time></trkpt>
<trkpt lat="46.12779857" lon="7.48566365"><ele></ele><time>2014-4-30T14:6:52Z</time></trkpt>
<trkpt lat="46.12787216" lon="7.48508345"><ele></ele><time>2014-4-30T14:6:55Z</time></trkpt>
<trkpt lat="46.12814398" lon="7.48475924"><ele></ele><time>2014-4-30T14:6:58Z</time></trkpt>
<trkpt lat="46.12827139" lon="7.48456956"><ele></ele><time>2014-4-30T14:7:1Z</time></trkpt>
<trkpt lat="46.12845026" lon="7.48415373"><ele></ele><time>2014-4-30T14:7:4Z</time></trkpt>
<trkpt lat="46.12846468" lon="7.48381150"><ele></ele><time>2014-4-30T14:7:7Z</time></trkpt>
<trkpt lat="46.12870968" lon="7.48356532"><ele></ele><time>2014-4-30T14:7:10Z</time></trkpt>
<trkpt lat="46.12883256" lon="7.48341998"><ele></ele><time>2014-4-30T14:7:13Z</time></trkpt>
<trkpt lat="46.12897136" lon="7.48308512"><ele></ele><time>2014-4-30T14:7:16Z</time></trkpt>
<trkpt lat="46.12908477" lon="7.48274725"><ele></ele><time>2014-4-30T14:7:19Z</time></trkpt>
<trkpt lat="46.12917747" lon="7.48251298"><ele></ele><time>2014-4-30T14:7:22Z</time></trkpt>
<trkpt lat="46.12935668" lon="7.48236252"><ele></ele><time>2014-4-30T14:7:25Z</time></trkpt>
<trkpt lat="46.12934293" lon="7.48252228"><ele></ele><time>2014-4-30T14:7:28Z</time></trkpt>
<trkpt lat="46.12921553" lon="7.48298496"><ele></ele><time>2014-4-30T14:7:31Z</time></trkpt>
<trkpt lat="46.12928770" lon="7.48347497"><ele></ele><time>2014-4-30T14:7:34Z</time></trkpt>
<trkpt lat="46.12932499" lon="7.48372005"><ele></ele><time>2014-4-30T14:7:37Z</time></trkpt>
<trkpt lat="46.12935374" lon="7.48421693"><ele></ele><time>2014-4-30T14:7:40Z</time></trkpt>
<trkpt lat="46.12937344" lon="7.48472328"><ele></ele><time>2014-4-30T14:7:43Z</time></trkpt>
<trkpt lat="46.12936900" lon="7.48501522"><ele></ele><time>2014-4-30T14:7:46Z</time></trkpt>
<trkpt lat="46.12936632" lon="7.48503987"><ele></ele><time>2014-4-30T14:7:49Z</time></trkpt>
<trkpt lat="46.12934452" lon="7.48513207"><ele></ele><time>2014-4-30T14:7:52Z</time></trkpt>
<trkpt lat="46.12922869" lon="7.48546433"><ele></ele><time>2014-4-30T14:7:55Z</time></trkpt>
<trkpt lat="46.12923455" lon="7.48548578"><ele></ele><time>2014-4-30T14:7:58Z</time></trkpt>
<trkpt lat="46.12938962" lon="7.48543055"><ele></ele><time>2014-4-30T14:8:1Z</time></trkpt>
<trkpt lat="46.12949800" lon="7.48508044"><ele></ele><time>2014-4-30T14:8:4Z</time></trkpt>
<trkpt lat="46.12959062" lon="7.48477466"><ele></ele><time>2014-4-30T14:8:7Z</time></trkpt>
<trkpt lat="46.12972682" lon="7.48433763"><ele></ele><time>2014-4-30T14:8:10Z</time></trkpt>
<trkpt lat="46.12995883" lon="7.48374042"><ele></ele><time>2014-4-30T14:8:13Z</time></trkpt>
<trkpt lat="46.13021239" lon="7.48343934"><ele></ele><time>2014-4-30T14:8:16Z</time></trkpt>
<trkpt lat="46.13041464" lon="7.48309275"><ele></ele><time>2014-4-30T14:8:19Z</time></trkpt>
<trkpt lat="46.13042537" lon="7.48306886"><ele></ele><time>2014-4-30T14:8:22Z</time></trkpt>
<trkpt lat="46.13062126" lon="7.48262286"><ele></ele><time>2014-4-30T14:8:25Z</time></trkpt>
<trkpt lat="46.13073575" lon="7.48237208"><ele></ele><time>2014-4-30T14:8:28Z</time></trkpt>
<trkpt lat="46.13081194" lon="7.48224207"><ele></ele><time>2014-4-30T14:8:31Z</time></trkpt>
<trkpt lat="46.13086157" lon="7.48225599"><ele></ele><time>2014-4-30T14:8:34Z</time></trkpt>
<trkpt lat="46.13085880" lon="7.48225766"><ele></ele><time>2014-4-30T14:8:37Z</time></trkpt>
<trkpt lat="46.13090423" lon="7.48222967"><ele></ele><time>2014-4-30T14:8:40Z</time></trkpt>
<trkpt lat="46.13117798" lon="7.48227770"><ele></ele><time>2014-4-30T14:8:43Z</time></trkpt>
<trkpt lat="46.13125728" lon="7.48226068"><ele></ele><time>2014-4-30T14:8:46Z</time></trkpt>
<trkpt lat="46.13137756" lon="7.48220284"><ele></ele><time>2014-4-30T14:8:49Z</time></trkpt>
<trkpt lat="46.13146934" lon="7.48216772"><ele></ele><time>2014-4-30T14:8:52Z</time></trkpt>
<trkpt lat="46.13156162" lon="7.48210486"><ele></ele><time>2014-4-30T14:8:55Z</time></trkpt>
<trkpt lat="46.13170277" lon="7.48204820"><ele></ele><time>2014-4-30T14:8:58Z</time></trkpt>
<trkpt lat="46.13201424" lon="7.48196002"><ele></ele><time>2014-4-30T14:9:1Z</time></trkpt>
<trkpt lat="46.13230149" lon="7.48196455"><ele></ele><time>2014-4-30T14:9:4Z</time></trkpt>
<trkpt lat="46.13247659" lon="7.48200285"><ele></ele><time>2014-4-30T14:9:7Z</time></trkpt>
<trkpt lat="46.13270508" lon="7.48205004"><ele></ele><time>2014-4-30T14:9:10Z</time></trkpt>
<trkpt lat="46.13280147" lon="7.48201752"><ele></ele><time>2014-4-30T14:9:13Z</time></trkpt>
<trkpt lat="46.13291362" lon="7.48188484"><ele></ele><time>2014-4-30T14:9:16Z</time></trkpt>
<trkpt lat="46.13316315" lon="7.48177277"><ele></ele><time>2014-4-30T14:9:19Z</time></trkpt>
<trkpt lat="46.13324848" lon="7.48176254"><ele></ele><time>2014-4-30T14:9:22Z</time></trkpt>
<trkpt lat="46.13358677" lon="7.48162240"><ele></ele><time>2014-4-30T14:9:25Z</time></trkpt>
<trkpt lat="46.13369993" lon="7.48153523"><ele></ele><time>2014-4-30T14:9:28Z</time></trkpt>
<trkpt lat="46.13374687" lon="7.48153439"><ele></ele><time>2014-4-30T14:9:31Z</time></trkpt>
<trkpt lat="46.13386388" lon="7.48148133"><ele></ele><time>2014-4-30T14:9:34Z</time></trkpt>
<trkpt lat="46.13396036" lon="7.48138435"><ele></ele><time>2014-4-30T14:9:37Z</time></trkpt>
<trkpt lat="46.13398768" lon="7.48126516"><ele></ele><time>2014-4-30T14:9:40Z</time></trkpt>
<trkpt lat="46.13419195" lon="7.48104933"><ele></ele><time>2014-4-30T14:9:43Z</time></trkpt>
<trkpt lat="46.13429337" lon="7.48091849"><ele></ele><time>2014-4-30T14:9:46Z</time></trkpt>
<trkpt lat="46.13437735" lon="7.48072335"><ele></ele><time>2014-4-30T14:9:49Z</time></trkpt>
<trkpt lat="46.13444307" lon="7.48061573"><ele></ele><time>2014-4-30T14:9:52Z</time></trkpt>
<trkpt lat="46.13457165" lon="7.48045572"><ele></ele><time>2014-4-30T14:9:55Z</time></trkpt>
<trkpt lat="46.13463325" lon="7.48034835"><ele></ele><time>2014-4-30T14:9:58Z</time></trkpt>
<trkpt lat="46.13489896" lon="7.48005247"><ele></ele><time>2014-4-30T14:10:1Z</time></trkpt>
<trkpt lat="46.13517833" lon="7.47986622"><ele></ele><time>2014-4-30T14:10:4Z</time></trkpt>
<trkpt lat="46.13544362" lon="7.47980889"><ele></ele><time>2014-4-30T14:10:7Z</time></trkpt>
<trkpt lat="46.13573154" lon="7.47977444"><ele></ele><time>2014-4-30T14:10:10Z</time></trkpt>
<trkpt lat="46.13580722" lon="7.47979422"><ele></ele><time>2014-4-30T14:10:13Z</time></trkpt>
<trkpt lat="46.13606170" lon="7.47973974"><ele></ele><time>2014-4-30T14:10:16Z</time></trkpt>
<trkpt lat="46.13618835" lon="7.47969439"><ele></ele><time>2014-4-30T14:10:19Z</time></trkpt>
<trkpt lat="46.13636303" lon="7.47969959"><ele></ele><time>2014-4-30T14:10:22Z</time></trkpt>
<trkpt lat="46.13655279" lon="7.47963429"><ele></ele><time>2014-4-30T14:10:25Z</time></trkpt>
<trkpt lat="46.13675094" lon="7.47951284"><ele></ele><time>2014-4-30T14:10:28Z</time></trkpt>
<trkpt lat="46.13679553" lon="7.47946699"><ele></ele><time>2014-4-30T14:10:31Z</time></trkpt>
<trkpt lat="46.13699947" lon="7.47939147"><ele></ele><time>2014-4-30T14:10:34Z</time></trkpt>
<trkpt lat="46.13725293" lon="7.47937244"><ele></ele><time>2014-4-30T14:10:37Z</time></trkpt>
<trkpt lat="46.13745628" lon="7.47934856"><ele></ele><time>2014-4-30T14:10:40Z</time></trkpt>
<trkpt lat="46.13752048" lon="7.47933305"><ele></ele><time>2014-4-30T14:10:43Z</time></trkpt>
<trkpt lat="46.13754714" lon="7.47935627"><ele></ele><time>2014-4-30T14:10:46Z</time></trkpt>
<trkpt lat="46.13769315" lon="7.47931788"><ele></ele><time>2014-4-30T14:10:49Z</time></trkpt>
<trkpt lat="46.13780547" lon="7.47928150"><ele></ele><time>2014-4-30T14:10:52Z</time></trkpt>
<trkpt lat="46.13789423" lon="7.47930539"><ele></ele><time>2014-4-30T14:10:55Z</time></trkpt>
<trkpt lat="46.13815977" lon="7.47924630"><ele></ele><time>2014-4-30T14:10:58Z</time></trkpt>
<trkpt lat="46.13820244" lon="7.47922543"><ele></ele><time>2014-4-30T14:11:1Z</time></trkpt>
<trkpt lat="46.13833034" lon="7.47909894"><ele></ele><time>2014-4-30T14:11:4Z</time></trkpt>
<trkpt lat="46.13836664" lon="7.47892242"><ele></ele><time>2014-4-30T14:11:7Z</time></trkpt>
<trkpt lat="46.13838952" lon="7.47877867"><ele></ele><time>2014-4-30T14:11:10Z</time></trkpt>
<trkpt lat="46.13841073" lon="7.47861765"><ele></ele><time>2014-4-30T14:11:13Z</time></trkpt>
<trkpt lat="46.13846244" lon="7.47844038"><ele></ele><time>2014-4-30T14:11:16Z</time></trkpt>
<trkpt lat="46.13853034" lon="7.47832487"><ele></ele><time>2014-4-30T14:11:19Z</time></trkpt>
<trkpt lat="46.13864257" lon="7.47815874"><ele></ele><time>2014-4-30T14:11:22Z</time></trkpt>
<trkpt lat="46.13884198" lon="7.47795716"><ele></ele><time>2014-4-30T14:11:25Z</time></trkpt>
<trkpt lat="46.13898690" lon="7.47784249"><ele></ele><time>2014-4-30T14:11:28Z</time></trkpt>
<trkpt lat="46.13916367" lon="7.47775859"><ele></ele><time>2014-4-30T14:11:31Z</time></trkpt>
<trkpt lat="46.13921447" lon="7.47771316"><ele></ele><time>2014-4-30T14:11:34Z</time></trkpt>
<trkpt lat="46.13897818" lon="7.47780017"><ele></ele><time>2014-4-30T14:11:37Z</time></trkpt>
<trkpt lat="46.13884600" lon="7.47781794"><ele></ele><time>2014-4-30T14:11:40Z</time></trkpt>
<trkpt lat="46.13857912" lon="7.47790754"><ele></ele><time>2014-4-30T14:11:43Z</time></trkpt>
<trkpt lat="46.13822834" lon="7.47795833"><ele></ele><time>2014-4-30T14:11:46Z</time></trkpt>
<trkpt lat="46.13818358" lon="7.47798256"><ele></ele><time>2014-4-30T14:11:49Z</time></trkpt>
<trkpt lat="46.13812272" lon="7.47801147"><ele></ele><time>2014-4-30T14:11:52Z</time></trkpt>
<trkpt lat="46.13821484" lon="7.47783990"><ele></ele><time>2014-4-30T14:11:55Z</time></trkpt>
<trkpt lat="46.13835406" lon="7.47768433"><ele></ele><time>2014-4-30T14:11:58Z</time></trkpt>
<trkpt lat="46.13846865" lon="7.47758307"><ele></ele><time>2014-4-30T14:12:1Z</time></trkpt>
<trkpt lat="46.13864215" lon="7.47735576"><ele></ele><time>2014-4-30T14:12:4Z</time></trkpt>
<trkpt lat="46.13884809" lon="7.47717538"><ele></ele><time>2014-4-30T14:12:7Z</time></trkpt>
<trkpt lat="46.13890006" lon="7.47712970"><ele></ele><time>2014-4-30T14:12:10Z</time></trkpt>
<trkpt lat="46.13913543" lon="7.47684664"><ele></ele><time>2014-4-30T14:12:13Z</time></trkpt>
<trkpt lat="46.13922419" lon="7.47674824"><ele></ele><time>2014-4-30T14:12:16Z</time></trkpt>
<trkpt lat="46.13933709" lon="7.47662913"><ele></ele><time>2014-4-30T14:12:19Z</time></trkpt>
<trkpt lat="46.13940524" lon="7.47657104"><ele></ele><time>2014-4-30T14:12:22Z</time></trkpt>
<trkpt lat="46.13943768" lon="7.47654942"><ele></ele><time>2014-4-30T14:12:25Z</time></trkpt>
<trkpt lat="46.13953667" lon="7.47641439"><ele></ele><time>2014-4-30T14:12:28Z</time></trkpt>
<trkpt lat="46.13962778" lon="7.47632168"><ele></ele><time>2014-4-30T14:12:31Z</time></trkpt>
<trkpt lat="46.13977882" lon="7.47613485"><ele></ele><time>2014-4-30T14:12:34Z</time></trkpt>
<trkpt lat="46.13994906" lon="7.47593989"><ele></ele><time>2014-4-30T14:12:37Z</time></trkpt>
<trkpt lat="46.14005014" lon="7.47586445"><ele></ele><time>2014-4-30T14:12:40Z</time></trkpt>
<trkpt lat="46.14015064" lon="7.47583159"><ele></ele><time>2014-4-30T14:12:43Z</time></trkpt>
<trkpt lat="46.14026447" lon="7.47574509"><ele></ele><time>2014-4-30T14:12:46Z</time></trkpt>
<trkpt lat="46.14026707" lon="7.47573034"><ele></ele><time>2014-4-30T14:12:49Z</time></trkpt>
<trkpt lat="46.14027143" lon="7.47571894"><ele></ele><time>2014-4-30T14:12:52Z</time></trkpt>
<trkpt lat="46.14030680" lon="7.47557502"><ele></ele><time>2014-4-30T14:12:55Z</time></trkpt>
<trkpt lat="46.14032239" lon="7.47551006"><ele></ele><time>2014-4-30T14:12:58Z</time></trkpt>
<trkpt lat="46.14036069" lon="7.47533346"><ele></ele><time>2014-4-30T14:13:1Z</time></trkpt>
<trkpt lat="46.14043378" lon="7.47516984"><ele></ele><time>2014-4-30T14:13:4Z</time></trkpt>
<trkpt lat="46.14053562" lon="7.47499483"><ele></ele><time>2014-4-30T14:13:7Z</time></trkpt>
<trkpt lat="46.14057393" lon="7.47490422"><ele></ele><time>2014-4-30T14:13:10Z</time></trkpt>
<trkpt lat="46.14078448" lon="7.47450323"><ele></ele><time>2014-4-30T14:13:13Z</time></trkpt>
<trkpt lat="46.14086277" lon="7.47441103"><ele></ele><time>2014-4-30T14:13:16Z</time></trkpt>
<trkpt lat="46.14094122" lon="7.47435395"><ele></ele><time>2014-4-30T14:13:19Z</time></trkpt>
<trkpt lat="46.14109218" lon="7.47432805"><ele></ele><time>2014-4-30T14:13:22Z</time></trkpt>
<trkpt lat="46.14116049" lon="7.47440206"><ele></ele><time>2014-4-30T14:13:25Z</time></trkpt>
<trkpt lat="46.14141949" lon="7.47450935"><ele></ele><time>2014-4-30T14:13:28Z</time></trkpt>
<trkpt lat="46.14172686" lon="7.47444497"><ele></ele><time>2014-4-30T14:13:31Z</time></trkpt>
<trkpt lat="46.14175804" lon="7.47442570"><ele></ele><time>2014-4-30T14:13:34Z</time></trkpt>
<trkpt lat="46.14209172" lon="7.47425009"><ele></ele><time>2014-4-30T14:13:37Z</time></trkpt>
<trkpt lat="46.14232072" lon="7.47409075"><ele></ele><time>2014-4-30T14:13:40Z</time></trkpt>
<trkpt lat="46.14252792" lon="7.47387718"><ele></ele><time>2014-4-30T14:13:43Z</time></trkpt>
<trkpt lat="46.14269807" lon="7.47362774"><ele></ele><time>2014-4-30T14:13:46Z</time></trkpt>
<trkpt lat="46.14279924" lon="7.47351928"><ele></ele><time>2014-4-30T14:13:49Z</time></trkpt>
<trkpt lat="46.14308422" lon="7.47339154"><ele></ele><time>2014-4-30T14:13:52Z</time></trkpt>
<trkpt lat="46.14315832" lon="7.47336178"><ele></ele><time>2014-4-30T14:13:55Z</time></trkpt>
<trkpt lat="46.14319596" lon="7.47332884"><ele></ele><time>2014-4-30T14:13:58Z</time></trkpt>
<trkpt lat="46.14343534" lon="7.47295316"><ele></ele><time>2014-4-30T14:14:1Z</time></trkpt>
<trkpt lat="46.14359024" lon="7.47266416"><ele></ele><time>2014-4-30T14:14:4Z</time></trkpt>
<trkpt lat="46.14373592" lon="7.47246676"><ele></ele><time>2014-4-30T14:14:7Z</time></trkpt>
<trkpt lat="46.14384413" lon="7.47236777"><ele></ele><time>2014-4-30T14:14:10Z</time></trkpt>
<trkpt lat="46.14396374" lon="7.47219829"><ele></ele><time>2014-4-30T14:14:13Z</time></trkpt>
<trkpt lat="46.14409533" lon="7.47203736"><ele></ele><time>2014-4-30T14:14:16Z</time></trkpt>
<trkpt lat="46.14416658" lon="7.47199025"><ele></ele><time>2014-4-30T14:14:19Z</time></trkpt>
<trkpt lat="46.14492657" lon="7.47168456"><ele></ele><time>2014-4-30T14:14:22Z</time></trkpt>
<trkpt lat="46.14507954" lon="7.47161893"><ele></ele><time>2014-4-30T14:14:25Z</time></trkpt>
<trkpt lat="46.14527752" lon="7.47149102"><ele></ele><time>2014-4-30T14:14:28Z</time></trkpt>
<trkpt lat="46.14569686" lon="7.47162396"><ele></ele><time>2014-4-30T14:14:31Z</time></trkpt>
<trkpt lat="46.14581480" lon="7.47186687"><ele></ele><time>2014-4-30T14:14:34Z</time></trkpt>
<trkpt lat="46.14595737" lon="7.47222276"><ele></ele><time>2014-4-30T14:14:37Z</time></trkpt>
<trkpt lat="46.14609542" lon="7.47242955"><ele></ele><time>2014-4-30T14:14:40Z</time></trkpt>
<trkpt lat="46.14617304" lon="7.47252778"><ele></ele><time>2014-4-30T14:14:43Z</time></trkpt>
<trkpt lat="46.14641326" lon="7.47275149"><ele></ele><time>2014-4-30T14:14:46Z</time></trkpt>
<trkpt lat="46.14652273" lon="7.47303329"><ele></ele><time>2014-4-30T14:14:49Z</time></trkpt>
<trkpt lat="46.14658769" lon="7.47350939"><ele></ele><time>2014-4-30T14:14:52Z</time></trkpt>
<trkpt lat="46.14664259" lon="7.47373695"><ele></ele><time>2014-4-30T14:14:55Z</time></trkpt>
<trkpt lat="46.14693236" lon="7.47414809"><ele></ele><time>2014-4-30T14:14:58Z</time></trkpt>
<trkpt lat="46.14730979" lon="7.47444137"><ele></ele><time>2014-4-30T14:15:1Z</time></trkpt>
<trkpt lat="46.14752278" lon="7.47484412"><ele></ele><time>2014-4-30T14:15:4Z</time></trkpt>
<trkpt lat="46.14775454" lon="7.47477329"><ele></ele><time>2014-4-30T14:15:7Z</time></trkpt>
<trkpt lat="46.14780718" lon="7.47435068"><ele></ele><time>2014-4-30T14:15:10Z</time></trkpt>
<trkpt lat="46.14785688" lon="7.47389445"><ele></ele><time>2014-4-30T14:15:13Z</time></trkpt>
<trkpt lat="46.14790055" lon="7.47361366"><ele></ele><time>2014-4-30T14:15:16Z</time></trkpt>
<trkpt lat="46.14823189" lon="7.47275786"><ele></ele><time>2014-4-30T14:15:19Z</time></trkpt>
<trkpt lat="46.14830540" lon="7.47233693"><ele></ele><time>2014-4-30T14:15:22Z</time></trkpt>
<trkpt lat="46.14836876" lon="7.47208547"><ele></ele><time>2014-4-30T14:15:25Z</time></trkpt>
<trkpt lat="46.14842425" lon="7.47191657"><ele></ele><time>2014-4-30T14:15:28Z</time></trkpt>
<trkpt lat="46.14853749" lon="7.47146244"><ele></ele><time>2014-4-30T14:15:31Z</time></trkpt>
<trkpt lat="46.14906488" lon="7.47038847"><ele></ele><time>2014-4-30T14:15:34Z</time></trkpt>
<trkpt lat="46.14916429" lon="7.47024455"><ele></ele><time>2014-4-30T14:15:37Z</time></trkpt>
<trkpt lat="46.14927007" lon="7.47006903"><ele></ele><time>2014-4-30T14:15:40Z</time></trkpt>
<trkpt lat="46.14950049" lon="7.46945003"><ele></ele><time>2014-4-30T14:15:43Z</time></trkpt>
<trkpt lat="46.14952798" lon="7.46895483"><ele></ele><time>2014-4-30T14:15:46Z</time></trkpt>
<trkpt lat="46.14968397" lon="7.46824815"><ele></ele><time>2014-4-30T14:15:49Z</time></trkpt>
<trkpt lat="46.15014732" lon="7.46770014"><ele></ele><time>2014-4-30T14:15:52Z</time></trkpt>
<trkpt lat="46.15065258" lon="7.46719966"><ele></ele><time>2014-4-30T14:15:55Z</time></trkpt>
<trkpt lat="46.15064043" lon="7.46729555"><ele></ele><time>2014-4-30T14:15:58Z</time></trkpt>
<trkpt lat="46.15056574" lon="7.46740677"><ele></ele><time>2014-4-30T14:16:1Z</time></trkpt>
<trkpt lat="46.15042677" lon="7.46763258"><ele></ele><time>2014-4-30T14:16:4Z</time></trkpt>
<trkpt lat="46.15023424" lon="7.46797272"><ele></ele><time>2014-4-30T14:16:7Z</time></trkpt>
<trkpt lat="46.14994548" lon="7.46838234"><ele></ele><time>2014-4-30T14:16:10Z</time></trkpt>
<trkpt lat="46.14979704" lon="7.46886807"><ele></ele><time>2014-4-30T14:16:13Z</time></trkpt>
<trkpt lat="46.14983593" lon="7.46971414"><ele></ele><time>2014-4-30T14:16:16Z</time></trkpt>
<trkpt lat="46.14977692" lon="7.47033156"><ele></ele><time>2014-4-30T14:16:19Z</time></trkpt>
<trkpt lat="46.14977122" lon="7.47051294"><ele></ele><time>2014-4-30T14:16:22Z</time></trkpt>
<trkpt lat="46.14976854" lon="7.47066742"><ele></ele><time>2014-4-30T14:16:25Z</time></trkpt>
<trkpt lat="46.14976418" lon="7.47080605"><ele></ele><time>2014-4-30T14:16:28Z</time></trkpt>
<trkpt lat="46.14968380" lon="7.47106774"><ele></ele><time>2014-4-30T14:16:31Z</time></trkpt>
<trkpt lat="46.14965304" lon="7.47122674"><ele></ele><time>2014-4-30T14:16:34Z</time></trkpt>
<trkpt lat="46.14958649" lon="7.47149304"><ele></ele><time>2014-4-30T14:16:37Z</time></trkpt>
<trkpt lat="46.14956813" lon="7.47152874"><ele></ele><time>2014-4-30T14:16:40Z</time></trkpt>
<trkpt lat="46.14944232" lon="7.47177199"><ele></ele><time>2014-4-30T14:16:43Z</time></trkpt>
<trkpt lat="46.14935749" lon="7.47190207"><ele></ele><time>2014-4-30T14:16:46Z</time></trkpt>
<trkpt lat="46.14939672" lon="7.47192923"><ele></ele><time>2014-4-30T14:16:49Z</time></trkpt>
<trkpt lat="46.14944835" lon="7.47189294"><ele></ele><time>2014-4-30T14:16:52Z</time></trkpt>
<trkpt lat="46.14964692" lon="7.47177064"><ele></ele><time>2014-4-30T14:16:55Z</time></trkpt>
<trkpt lat="46.14978245" lon="7.47158859"><ele></ele><time>2014-4-30T14:16:58Z</time></trkpt>
<trkpt lat="46.14991950" lon="7.47136362"><ele></ele><time>2014-4-30T14:17:1Z</time></trkpt>
<trkpt lat="46.15008513" lon="7.47121057"><ele></ele><time>2014-4-30T14:17:4Z</time></trkpt>
<trkpt lat="46.15026508" lon="7.47097193"><ele></ele><time>2014-4-30T14:17:7Z</time></trkpt>
<trkpt lat="46.15045007" lon="7.47068016"><ele></ele><time>2014-4-30T14:17:10Z</time></trkpt>
<trkpt lat="46.15049835" lon="7.47024874"><ele></ele><time>2014-4-30T14:17:13Z</time></trkpt>
<trkpt lat="46.15055937" lon="7.46986980"><ele></ele><time>2014-4-30T14:17:16Z</time></trkpt>
<trkpt lat="46.15069038" lon="7.46967249"><ele></ele><time>2014-4-30T14:17:19Z</time></trkpt>
<trkpt lat="46.15081234" lon="7.46960593"><ele></ele><time>2014-4-30T14:17:22Z</time></trkpt>
<trkpt lat="46.15089909" lon="7.46962454"><ele></ele><time>2014-4-30T14:17:25Z</time></trkpt>
<trkpt lat="46.15124770" lon="7.46964776"><ele></ele><time>2014-4-30T14:17:28Z</time></trkpt>
<trkpt lat="46.15173443" lon="7.46942556"><ele></ele><time>2014-4-30T14:17:31Z</time></trkpt>
<trkpt lat="46.15184708" lon="7.46938113"><ele></ele><time>2014-4-30T14:17:34Z</time></trkpt>
<trkpt lat="46.15193845" lon="7.46937895"><ele></ele><time>2014-4-30T14:17:37Z</time></trkpt>
<trkpt lat="46.15227004" lon="7.46917586"><ele></ele><time>2014-4-30T14:17:40Z</time></trkpt>
<trkpt lat="46.15259534" lon="7.46859868"><ele></ele><time>2014-4-30T14:17:43Z</time></trkpt>
<trkpt lat="46.15266373" lon="7.46834085"><ele></ele><time>2014-4-30T14:17:46Z</time></trkpt>
<trkpt lat="46.15275593" lon="7.46810205"><ele></ele><time>2014-4-30T14:17:49Z</time></trkpt>
<trkpt lat="46.15277337" lon="7.46820146"><ele></ele><time>2014-4-30T14:17:52Z</time></trkpt>
<trkpt lat="46.15285870" lon="7.46814966"><ele></ele><time>2014-4-30T14:17:55Z</time></trkpt>
<trkpt lat="46.15288116" lon="7.46815402"><ele></ele><time>2014-4-30T14:17:58Z</time></trkpt>
<trkpt lat="46.15311074" lon="7.46810758"><ele></ele><time>2014-4-30T14:18:1Z</time></trkpt>
<trkpt lat="46.15342322" lon="7.46781128"><ele></ele><time>2014-4-30T14:18:4Z</time></trkpt>
<trkpt lat="46.15359236" lon="7.46731306"><ele></ele><time>2014-4-30T14:18:7Z</time></trkpt>
<trkpt lat="46.15362489" lon="7.46702179"><ele></ele><time>2014-4-30T14:18:10Z</time></trkpt>
<trkpt lat="46.15398673" lon="7.46662273"><ele></ele><time>2014-4-30T14:18:13Z</time></trkpt>
<trkpt lat="46.15427725" lon="7.46653573"><ele></ele><time>2014-4-30T14:18:16Z</time></trkpt>
<trkpt lat="46.15433827" lon="7.46634705"><ele></ele><time>2014-4-30T14:18:19Z</time></trkpt>
<trkpt lat="46.15436115" lon="7.46612543"><ele></ele><time>2014-4-30T14:18:22Z</time></trkpt>
<trkpt lat="46.15436803" lon="7.46609593"><ele></ele><time>2014-4-30T14:18:25Z</time></trkpt>
<trkpt lat="46.15438496" lon="7.46607313"><ele></ele><time>2014-4-30T14:18:28Z</time></trkpt>
<trkpt lat="46.15443156" lon="7.46604715"><ele></ele><time>2014-4-30T14:18:31Z</time></trkpt>
<trkpt lat="46.15444053" lon="7.46604295"><ele></ele><time>2014-4-30T14:18:34Z</time></trkpt>
<trkpt lat="46.15452167" lon="7.46605637"><ele></ele><time>2014-4-30T14:18:37Z</time></trkpt>
<trkpt lat="46.15453986" lon="7.46605888"><ele></ele><time>2014-4-30T14:18:40Z</time></trkpt>
<trkpt lat="46.15484236" lon="7.46590390"><ele></ele><time>2014-4-30T14:18:43Z</time></trkpt>
<trkpt lat="46.15509968" lon="7.46565185"><ele></ele><time>2014-4-30T14:18:46Z</time></trkpt>
<trkpt lat="46.15519423" lon="7.46557097"><ele></ele><time>2014-4-30T14:18:49Z</time></trkpt>
<trkpt lat="46.15539959" lon="7.46543887"><ele></ele><time>2014-4-30T14:18:52Z</time></trkpt>
<trkpt lat="46.15565356" lon="7.46542789"><ele></ele><time>2014-4-30T14:18:55Z</time></trkpt>
<trkpt lat="46.15581189" lon="7.46531448"><ele></ele><time>2014-4-30T14:18:58Z</time></trkpt>
<trkpt lat="46.15583033" lon="7.46528649"><ele></ele><time>2014-4-30T14:19:1Z</time></trkpt>
<trkpt lat="46.15598917" lon="7.46498507"><ele></ele><time>2014-4-30T14:19:4Z</time></trkpt>
<trkpt lat="46.15621112" lon="7.46490444"><ele></ele><time>2014-4-30T14:19:7Z</time></trkpt>
<trkpt lat="46.15628287" lon="7.46487343"><ele></ele><time>2014-4-30T14:19:10Z</time></trkpt>
<trkpt lat="46.15636024" lon="7.46481308"><ele></ele><time>2014-4-30T14:19:13Z</time></trkpt>
<trkpt lat="46.15637960" lon="7.46481593"><ele></ele><time>2014-4-30T14:19:16Z</time></trkpt>
<trkpt lat="46.15650935" lon="7.46478223"><ele></ele><time>2014-4-30T14:19:19Z</time></trkpt>
<trkpt lat="46.15669082" lon="7.46451292"><ele></ele><time>2014-4-30T14:19:22Z</time></trkpt>
<trkpt lat="46.15693859" lon="7.46428418"><ele></ele><time>2014-4-30T14:19:25Z</time></trkpt>
<trkpt lat="46.15710388" lon="7.46425853"><ele></ele><time>2014-4-30T14:19:28Z</time></trkpt>
<trkpt lat="46.15726012" lon="7.46412618"><ele></ele><time>2014-4-30T14:19:31Z</time></trkpt>
<trkpt lat="46.15737797" lon="7.46402694"><ele></ele><time>2014-4-30T14:19:34Z</time></trkpt>
<trkpt lat="46.15773043" lon="7.46394262"><ele></ele><time>2014-4-30T14:19:37Z</time></trkpt>
<trkpt lat="46.15802689" lon="7.46383709"><ele></ele><time>2014-4-30T14:19:40Z</time></trkpt>
<trkpt lat="46.15817366" lon="7.46377682"><ele></ele><time>2014-4-30T14:19:43Z</time></trkpt>
<trkpt lat="46.15842965" lon="7.46383499"><ele></ele><time>2014-4-30T14:19:46Z</time></trkpt>
<trkpt lat="46.15856325" lon="7.46376215"><ele></ele><time>2014-4-30T14:19:49Z</time></trkpt>
<trkpt lat="46.15873693" lon="7.46351204"><ele></ele><time>2014-4-30T14:19:52Z</time></trkpt>
<trkpt lat="46.15874975" lon="7.46350005"><ele></ele><time>2014-4-30T14:19:55Z</time></trkpt>
<trkpt lat="46.15892510" lon="7.46331565"><ele></ele><time>2014-4-30T14:19:58Z</time></trkpt>
<trkpt lat="46.15894094" lon="7.46329662"><ele></ele><time>2014-4-30T14:20:1Z</time></trkpt>
<trkpt lat="46.15910087" lon="7.46315463"><ele></ele><time>2014-4-30T14:20:4Z</time></trkpt>
<trkpt lat="46.15915149" lon="7.46311616"><ele></ele><time>2014-4-30T14:20:7Z</time></trkpt>
<trkpt lat="46.15919114" lon="7.46310392"><ele></ele><time>2014-4-30T14:20:10Z</time></trkpt>
<trkpt lat="46.15925032" lon="7.46304525"><ele></ele><time>2014-4-30T14:20:13Z</time></trkpt>
<trkpt lat="46.15959289" lon="7.46287694"><ele></ele><time>2014-4-30T14:20:16Z</time></trkpt>
<trkpt lat="46.15976237" lon="7.46283629"><ele></ele><time>2014-4-30T14:20:19Z</time></trkpt>
<trkpt lat="46.15989782" lon="7.46284425"><ele></ele><time>2014-4-30T14:20:22Z</time></trkpt>
<trkpt lat="46.15996974" lon="7.46287652"><ele></ele><time>2014-4-30T14:20:25Z</time></trkpt>
<trkpt lat="46.16014509" lon="7.46303595"><ele></ele><time>2014-4-30T14:20:28Z</time></trkpt>
<trkpt lat="46.16033519" lon="7.46308942"><ele></ele><time>2014-4-30T14:20:31Z</time></trkpt>
<trkpt lat="46.16047734" lon="7.46316218"><ele></ele><time>2014-4-30T14:20:34Z</time></trkpt>
<trkpt lat="46.16057063" lon="7.46324155"><ele></ele><time>2014-4-30T14:20:37Z</time></trkpt>
<trkpt lat="46.16067222" lon="7.46328782"><ele></ele><time>2014-4-30T14:20:40Z</time></trkpt>
<trkpt lat="46.16065227" lon="7.46329905"><ele></ele><time>2014-4-30T14:20:43Z</time></trkpt>
<trkpt lat="46.16061942" lon="7.46334038"><ele></ele><time>2014-4-30T14:20:46Z</time></trkpt>
<trkpt lat="46.16043602" lon="7.46337407"><ele></ele><time>2014-4-30T14:20:49Z</time></trkpt>
<trkpt lat="46.16030233" lon="7.46341850"><ele></ele><time>2014-4-30T14:20:52Z</time></trkpt>
<trkpt lat="46.16005766" lon="7.46359033"><ele></ele><time>2014-4-30T14:20:55Z</time></trkpt>
<trkpt lat="46.15985222" lon="7.46360877"><ele></ele><time>2014-4-30T14:20:58Z</time></trkpt>
<trkpt lat="46.15956766" lon="7.46367306"><ele></ele><time>2014-4-30T14:21:1Z</time></trkpt>
<trkpt lat="46.15934897" lon="7.46390574"><ele></ele><time>2014-4-30T14:21:4Z</time></trkpt>
<trkpt lat="46.15917530" lon="7.46424126"><ele></ele><time>2014-4-30T14:21:7Z</time></trkpt>
<trkpt lat="46.15902233" lon="7.46453907"><ele></ele><time>2014-4-30T14:21:10Z</time></trkpt>
<trkpt lat="46.15888026" lon="7.46486119"><ele></ele><time>2014-4-30T14:21:13Z</time></trkpt>
<trkpt lat="46.15881974" lon="7.46514165"><ele></ele><time>2014-4-30T14:21:16Z</time></trkpt>
<trkpt lat="46.15873810" lon="7.46545220"><ele></ele><time>2014-4-30T14:21:19Z</time></trkpt>
<trkpt lat="46.15853928" lon="7.46574984"><ele></ele><time>2014-4-30T14:21:22Z</time></trkpt>
<trkpt lat="46.15827835" lon="7.46593248"><ele></ele><time>2014-4-30T14:21:25Z</time></trkpt>
<trkpt lat="46.15790527" lon="7.46615963"><ele></ele><time>2014-4-30T14:21:28Z</time></trkpt>
<trkpt lat="46.15754368" lon="7.46660504"><ele></ele><time>2014-4-30T14:21:31Z</time></trkpt>
<trkpt lat="46.15735022" lon="7.46698692"><ele></ele><time>2014-4-30T14:21:34Z</time></trkpt>
<trkpt lat="46.15735140" lon="7.46754860"><ele></ele><time>2014-4-30T14:21:37Z</time></trkpt>
<trkpt lat="46.15743170" lon="7.46782956"><ele></ele><time>2014-4-30T14:21:40Z</time></trkpt>
<trkpt lat="46.15748777" lon="7.46774817"><ele></ele><time>2014-4-30T14:21:43Z</time></trkpt>
<trkpt lat="46.15746137" lon="7.46764624"><ele></ele><time>2014-4-30T14:21:46Z</time></trkpt>
<trkpt lat="46.15747134" lon="7.46712313"><ele></ele><time>2014-4-30T14:21:49Z</time></trkpt>
<trkpt lat="46.15771953" lon="7.46690394"><ele></ele><time>2014-4-30T14:21:52Z</time></trkpt>
<trkpt lat="46.15793285" lon="7.46677863"><ele></ele><time>2014-4-30T14:21:55Z</time></trkpt>
<trkpt lat="46.15794919" lon="7.46676757"><ele></ele><time>2014-4-30T14:21:58Z</time></trkpt>
<trkpt lat="46.15814407" lon="7.46666548"><ele></ele><time>2014-4-30T14:22:1Z</time></trkpt>
<trkpt lat="46.15847290" lon="7.46669163"><ele></ele><time>2014-4-30T14:22:4Z</time></trkpt>
<trkpt lat="46.15877967" lon="7.46673505"><ele></ele><time>2014-4-30T14:22:7Z</time></trkpt>
<trkpt lat="46.15903742" lon="7.46676045"><ele></ele><time>2014-4-30T14:22:10Z</time></trkpt>
<trkpt lat="46.15908855" lon="7.46676028"><ele></ele><time>2014-4-30T14:22:13Z</time></trkpt>
<trkpt lat="46.15915166" lon="7.46675634"><ele></ele><time>2014-4-30T14:22:16Z</time></trkpt>
<trkpt lat="46.15945819" lon="7.46663036"><ele></ele><time>2014-4-30T14:22:19Z</time></trkpt>
<trkpt lat="46.15962029" lon="7.46627547"><ele></ele><time>2014-4-30T14:22:22Z</time></trkpt>
<trkpt lat="46.15982607" lon="7.46611185"><ele></ele><time>2014-4-30T14:22:25Z</time></trkpt>
<trkpt lat="46.16015732" lon="7.46604824"><ele></ele><time>2014-4-30T14:22:28Z</time></trkpt>
<trkpt lat="46.16041356" lon="7.46580600"><ele></ele><time>2014-4-30T14:22:31Z</time></trkpt>
<trkpt lat="46.16066652" lon="7.46572335"><ele></ele><time>2014-4-30T14:22:34Z</time></trkpt>
<trkpt lat="46.16065219" lon="7.46584707"><ele></ele><time>2014-4-30T14:22:37Z</time></trkpt>
<trkpt lat="46.16040476" lon="7.46608092"><ele></ele><time>2014-4-30T14:22:40Z</time></trkpt>
<trkpt lat="46.16021466" lon="7.46633858"><ele></ele><time>2014-4-30T14:22:43Z</time></trkpt>
<trkpt lat="46.15992313" lon="7.46660186"><ele></ele><time>2014-4-30T14:22:46Z</time></trkpt>
<trkpt lat="46.15985247" lon="7.46702699"><ele></ele><time>2014-4-30T14:22:49Z</time></trkpt>
<trkpt lat="46.15973186" lon="7.46735053"><ele></ele><time>2014-4-30T14:22:52Z</time></trkpt>
<trkpt lat="46.15943355" lon="7.46743737"><ele></ele><time>2014-4-30T14:22:55Z</time></trkpt>
<trkpt lat="46.15920388" lon="7.46761029"><ele></ele><time>2014-4-30T14:22:58Z</time></trkpt>
<trkpt lat="46.15893893" lon="7.46783123"><ele></ele><time>2014-4-30T14:23:1Z</time></trkpt>
<trkpt lat="46.15873642" lon="7.46809619"><ele></ele><time>2014-4-30T14:23:4Z</time></trkpt>
<trkpt lat="46.15880624" lon="7.46847999"><ele></ele><time>2014-4-30T14:23:7Z</time></trkpt>
<trkpt lat="46.15876978" lon="7.46882482"><ele></ele><time>2014-4-30T14:23:10Z</time></trkpt>
<trkpt lat="46.15867297" lon="7.46918634"><ele></ele><time>2014-4-30T14:23:13Z</time></trkpt>
<trkpt lat="46.15857608" lon="7.46958230"><ele></ele><time>2014-4-30T14:23:16Z</time></trkpt>
<trkpt lat="46.15849226" lon="7.46987918"><ele></ele><time>2014-4-30T14:23:19Z</time></trkpt>
<trkpt lat="46.15827953" lon="7.46993836"><ele></ele><time>2014-4-30T14:23:22Z</time></trkpt>
<trkpt lat="46.15786772" lon="7.46991246"><ele></ele><time>2014-4-30T14:23:25Z</time></trkpt>
<trkpt lat="46.15764552" lon="7.47013156"><ele></ele><time>2014-4-30T14:23:28Z</time></trkpt>
<trkpt lat="46.15735148" lon="7.47027263"><ele></ele><time>2014-4-30T14:23:31Z</time></trkpt>
<trkpt lat="46.15720287" lon="7.47049433"><ele></ele><time>2014-4-30T14:23:34Z</time></trkpt>
<trkpt lat="46.15696692" lon="7.47086984"><ele></ele><time>2014-4-30T14:23:37Z</time></trkpt>
<trkpt lat="46.15671043" lon="7.47122305"><ele></ele><time>2014-4-30T14:23:40Z</time></trkpt>
<trkpt lat="46.15657113" lon="7.47157015"><ele></ele><time>2014-4-30T14:23:43Z</time></trkpt>
<trkpt lat="46.15653148" lon="7.47198489"><ele></ele><time>2014-4-30T14:23:46Z</time></trkpt>
<trkpt lat="46.15636543" lon="7.47241957"><ele></ele><time>2014-4-30T14:23:49Z</time></trkpt>
<trkpt lat="46.15605606" lon="7.47259056"><ele></ele><time>2014-4-30T14:23:52Z</time></trkpt>
<trkpt lat="46.15578306" lon="7.47281277"><ele></ele><time>2014-4-30T14:23:55Z</time></trkpt>
<trkpt lat="46.15566487" lon="7.47320605"><ele></ele><time>2014-4-30T14:23:58Z</time></trkpt>
<trkpt lat="46.15558483" lon="7.47351626"><ele></ele><time>2014-4-30T14:24:1Z</time></trkpt>
<trkpt lat="46.15546119" lon="7.47395824"><ele></ele><time>2014-4-30T14:24:4Z</time></trkpt>
<trkpt lat="46.15528182" lon="7.47426929"><ele></ele><time>2014-4-30T14:24:7Z</time></trkpt>
<trkpt lat="46.15496138" lon="7.47429670"><ele></ele><time>2014-4-30T14:24:10Z</time></trkpt>
<trkpt lat="46.15462384" lon="7.47442293"><ele></ele><time>2014-4-30T14:24:13Z</time></trkpt>
<trkpt lat="46.15468562" lon="7.47451019"><ele></ele><time>2014-4-30T14:24:16Z</time></trkpt>
<trkpt lat="46.15472409" lon="7.47449418"><ele></ele><time>2014-4-30T14:24:19Z</time></trkpt>
<trkpt lat="46.15500949" lon="7.47446920"><ele></ele><time>2014-4-30T14:24:22Z</time></trkpt>
<trkpt lat="46.15530445" lon="7.47452368"><ele></ele><time>2014-4-30T14:24:25Z</time></trkpt>
<trkpt lat="46.15551283" lon="7.47446383"><ele></ele><time>2014-4-30T14:24:28Z</time></trkpt>
<trkpt lat="46.15559765" lon="7.47428563"><ele></ele><time>2014-4-30T14:24:31Z</time></trkpt>
<trkpt lat="46.15581717" lon="7.47390543"><ele></ele><time>2014-4-30T14:24:34Z</time></trkpt>
<trkpt lat="46.15601448" lon="7.47355247"><ele></ele><time>2014-4-30T14:24:37Z</time></trkpt>
<trkpt lat="46.15610048" lon="7.47345868"><ele></ele><time>2014-4-30T14:24:40Z</time></trkpt>
<trkpt lat="46.15629335" lon="7.47331233"><ele></ele><time>2014-4-30T14:24:43Z</time></trkpt>
<trkpt lat="46.15655973" lon="7.47338307"><ele></ele><time>2014-4-30T14:24:46Z</time></trkpt>
<trkpt lat="46.15679056" lon="7.47332758"><ele></ele><time>2014-4-30T14:24:49Z</time></trkpt>
<trkpt lat="46.15698435" lon="7.47308618"><ele></ele><time>2014-4-30T14:24:52Z</time></trkpt>
<trkpt lat="46.15718476" lon="7.47263809"><ele></ele><time>2014-4-30T14:24:55Z</time></trkpt>
<trkpt lat="46.15734494" lon="7.47213115"><ele></ele><time>2014-4-30T14:24:58Z</time></trkpt>
<trkpt lat="46.15753496" lon="7.47199260"><ele></ele><time>2014-4-30T14:25:1Z</time></trkpt>
<trkpt lat="46.15773562" lon="7.47217272"><ele></ele><time>2014-4-30T14:25:4Z</time></trkpt>
<trkpt lat="46.15792933" lon="7.47239283"><ele></ele><time>2014-4-30T14:25:7Z</time></trkpt>
<trkpt lat="46.15794618" lon="7.47240323"><ele></ele><time>2014-4-30T14:25:10Z</time></trkpt>
<trkpt lat="46.15797635" lon="7.47240147"><ele></ele><time>2014-4-30T14:25:13Z</time></trkpt>
<trkpt lat="46.15804944" lon="7.47235495"><ele></ele><time>2014-4-30T14:25:16Z</time></trkpt>
<trkpt lat="46.15835203" lon="7.47213098"><ele></ele><time>2014-4-30T14:25:19Z</time></trkpt>
<trkpt lat="46.15861539" lon="7.47217574"><ele></ele><time>2014-4-30T14:25:22Z</time></trkpt>
<trkpt lat="46.15879426" lon="7.47224238"><ele></ele><time>2014-4-30T14:25:25Z</time></trkpt>
<trkpt lat="46.15903406" lon="7.47245134"><ele></ele><time>2014-4-30T14:25:28Z</time></trkpt>
<trkpt lat="46.15930027" lon="7.47246986"><ele></ele><time>2014-4-30T14:25:31Z</time></trkpt>
<trkpt lat="46.15960998" lon="7.47227808"><ele></ele><time>2014-4-30T14:25:34Z</time></trkpt>
<trkpt lat="46.15986085" lon="7.47203736"><ele></ele><time>2014-4-30T14:25:37Z</time></trkpt>
<trkpt lat="46.16015900" lon="7.47205932"><ele></ele><time>2014-4-30T14:25:40Z</time></trkpt>
<trkpt lat="46.16039235" lon="7.47192127"><ele></ele><time>2014-4-30T14:25:43Z</time></trkpt>
<trkpt lat="46.16048086" lon="7.47165757"><ele></ele><time>2014-4-30T14:25:46Z</time></trkpt>
<trkpt lat="46.16054909" lon="7.47127905"><ele></ele><time>2014-4-30T14:25:49Z</time></trkpt>
<trkpt lat="46.16060123" lon="7.47115927"><ele></ele><time>2014-4-30T14:25:52Z</time></trkpt>
<trkpt lat="46.16070106" lon="7.47110177"><ele></ele><time>2014-4-30T14:25:55Z</time></trkpt>
<trkpt lat="46.16087859" lon="7.47103689"><ele></ele><time>2014-4-30T14:25:58Z</time></trkpt>
<trkpt lat="46.16099359" lon="7.47102725"><ele></ele><time>2014-4-30T14:26:1Z</time></trkpt>
<trkpt lat="46.16121906" lon="7.47108593"><ele></ele><time>2014-4-30T14:26:4Z</time></trkpt>
<trkpt lat="46.16140472" lon="7.47087839"><ele></ele><time>2014-4-30T14:26:7Z</time></trkpt>
<trkpt lat="46.16171183" lon="7.47081343"><ele></ele><time>2014-4-30T14:26:10Z</time></trkpt>
<trkpt lat="46.16201299" lon="7.47080136"><ele></ele><time>2014-4-30T14:26:13Z</time></trkpt>
<trkpt lat="46.16219404" lon="7.47057505"><ele></ele><time>2014-4-30T14:26:16Z</time></trkpt>
<trkpt lat="46.16241574" lon="7.47054068"><ele></ele><time>2014-4-30T14:26:19Z</time></trkpt>
<trkpt lat="46.16253904" lon="7.47042904"><ele></ele><time>2014-4-30T14:26:22Z</time></trkpt>
<trkpt lat="46.16277097" lon="7.47031672"><ele></ele><time>2014-4-30T14:26:25Z</time></trkpt>
<trkpt lat="46.16298546" lon="7.47015378"><ele></ele><time>2014-4-30T14:26:28Z</time></trkpt>
<trkpt lat="46.16323709" lon="7.47000533"><ele></ele><time>2014-4-30T14:26:31Z</time></trkpt>
<trkpt lat="46.16348653" lon="7.46989318"><ele></ele><time>2014-4-30T14:26:34Z</time></trkpt>
<trkpt lat="46.16375852" lon="7.46979729"><ele></ele><time>2014-4-30T14:26:37Z</time></trkpt>
<trkpt lat="46.16384679" lon="7.46976477"><ele></ele><time>2014-4-30T14:26:40Z</time></trkpt>
<trkpt lat="46.16412196" lon="7.46956713"><ele></ele><time>2014-4-30T14:26:43Z</time></trkpt>
<trkpt lat="46.16422540" lon="7.46955874"><ele></ele><time>2014-4-30T14:26:46Z</time></trkpt>
<trkpt lat="46.16432749" lon="7.46959269"><ele></ele><time>2014-4-30T14:26:49Z</time></trkpt>
<trkpt lat="46.16449093" lon="7.46954215"><ele></ele><time>2014-4-30T14:26:52Z</time></trkpt>
<trkpt lat="46.16466033" lon="7.46953167"><ele></ele><time>2014-4-30T14:26:55Z</time></trkpt>
<trkpt lat="46.16471305" lon="7.46956193"><ele></ele><time>2014-4-30T14:26:58Z</time></trkpt>
<trkpt lat="46.16490483" lon="7.46965832"><ele></ele><time>2014-4-30T14:27:1Z</time></trkpt>
<trkpt lat="46.16493995" lon="7.46966318"><ele></ele><time>2014-4-30T14:27:4Z</time></trkpt>
<trkpt lat="46.16498882" lon="7.46966427"><ele></ele><time>2014-4-30T14:27:7Z</time></trkpt>
<trkpt lat="46.16506509" lon="7.46967450"><ele></ele><time>2014-4-30T14:27:10Z</time></trkpt>
<trkpt lat="46.16501589" lon="7.46976846"><ele></ele><time>2014-4-30T14:27:13Z</time></trkpt>
<trkpt lat="46.16500047" lon="7.46976133"><ele></ele><time>2014-4-30T14:27:16Z</time></trkpt>
<trkpt lat="46.16468422" lon="7.46977097"><ele></ele><time>2014-4-30T14:27:19Z</time></trkpt>
<trkpt lat="46.16444559" lon="7.46993786"><ele></ele><time>2014-4-30T14:27:22Z</time></trkpt>
<trkpt lat="46.16420813" lon="7.47007289"><ele></ele><time>2014-4-30T14:27:25Z</time></trkpt>
<trkpt lat="46.16404166" lon="7.47032217"><ele></ele><time>2014-4-30T14:27:28Z</time></trkpt>
<trkpt lat="46.16386053" lon="7.47055334"><ele></ele><time>2014-4-30T14:27:31Z</time></trkpt>
<trkpt lat="46.16368267" lon="7.47076146"><ele></ele><time>2014-4-30T14:27:34Z</time></trkpt>
<trkpt lat="46.16350950" lon="7.47102323"><ele></ele><time>2014-4-30T14:27:37Z</time></trkpt>
<trkpt lat="46.16324874" lon="7.47117192"><ele></ele><time>2014-4-30T14:27:40Z</time></trkpt>
<trkpt lat="46.16301119" lon="7.47145674"><ele></ele><time>2014-4-30T14:27:43Z</time></trkpt>
<trkpt lat="46.16281204" lon="7.47178766"><ele></ele><time>2014-4-30T14:27:46Z</time></trkpt>
<trkpt lat="46.16265329" lon="7.47211263"><ele></ele><time>2014-4-30T14:27:49Z</time></trkpt>
<trkpt lat="46.16249437" lon="7.47238453"><ele></ele><time>2014-4-30T14:27:52Z</time></trkpt>
<trkpt lat="46.16226495" lon="7.47273088"><ele></ele><time>2014-4-30T14:27:55Z</time></trkpt>
<trkpt lat="46.16214962" lon="7.47297060"><ele></ele><time>2014-4-30T14:27:58Z</time></trkpt>
<trkpt lat="46.16205172" lon="7.47327553"><ele></ele><time>2014-4-30T14:28:1Z</time></trkpt>
<trkpt lat="46.16186178" lon="7.47356236"><ele></ele><time>2014-4-30T14:28:4Z</time></trkpt>
<trkpt lat="46.16162189" lon="7.47367082"><ele></ele><time>2014-4-30T14:28:7Z</time></trkpt>
<trkpt lat="46.16135728" lon="7.47373603"><ele></ele><time>2014-4-30T14:28:10Z</time></trkpt>
<trkpt lat="46.16131679" lon="7.47374919"><ele></ele><time>2014-4-30T14:28:13Z</time></trkpt>
<trkpt lat="46.16120892" lon="7.47382790"><ele></ele><time>2014-4-30T14:28:16Z</time></trkpt>
<trkpt lat="46.16101395" lon="7.47411850"><ele></ele><time>2014-4-30T14:28:19Z</time></trkpt>
<trkpt lat="46.16078253" lon="7.47438932"><ele></ele><time>2014-4-30T14:28:22Z</time></trkpt>
<trkpt lat="46.16061715" lon="7.47470163"><ele></ele><time>2014-4-30T14:28:25Z</time></trkpt>
<trkpt lat="46.16058086" lon="7.47478763"><ele></ele><time>2014-4-30T14:28:28Z</time></trkpt>
<trkpt lat="46.16046628" lon="7.47507303"><ele></ele><time>2014-4-30T14:28:31Z</time></trkpt>
<trkpt lat="46.16046133" lon="7.47509692"><ele></ele><time>2014-4-30T14:28:34Z</time></trkpt>
<trkpt lat="46.16039973" lon="7.47527168"><ele></ele><time>2014-4-30T14:28:37Z</time></trkpt>
<trkpt lat="46.16031348" lon="7.47549682"><ele></ele><time>2014-4-30T14:28:40Z</time></trkpt>
<trkpt lat="46.16019865" lon="7.47589169"><ele></ele><time>2014-4-30T14:28:43Z</time></trkpt>
<trkpt lat="46.16013427" lon="7.47617894"><ele></ele><time>2014-4-30T14:28:46Z</time></trkpt>
<trkpt lat="46.16004040" lon="7.47651933"><ele></ele><time>2014-4-30T14:28:49Z</time></trkpt>
<trkpt lat="46.15983630" lon="7.47671454"><ele></ele><time>2014-4-30T14:28:52Z</time></trkpt>
<trkpt lat="46.15960445" lon="7.47667909"><ele></ele><time>2014-4-30T14:28:55Z</time></trkpt>
<trkpt lat="46.15938795" lon="7.47647222"><ele></ele><time>2014-4-30T14:28:58Z</time></trkpt>
<trkpt lat="46.15925367" lon="7.47638295"><ele></ele><time>2014-4-30T14:29:1Z</time></trkpt>
<trkpt lat="46.15919198" lon="7.47636795"><ele></ele><time>2014-4-30T14:29:4Z</time></trkpt>
<trkpt lat="46.15911210" lon="7.47639226"><ele></ele><time>2014-4-30T14:29:7Z</time></trkpt>
<trkpt lat="46.15897983" lon="7.47643014"><ele></ele><time>2014-4-30T14:29:10Z</time></trkpt>
<trkpt lat="46.15888344" lon="7.47649267"><ele></ele><time>2014-4-30T14:29:13Z</time></trkpt>
<trkpt lat="46.15882167" lon="7.47653609"><ele></ele><time>2014-4-30T14:29:16Z</time></trkpt>
<trkpt lat="46.15856124" lon="7.47664556"><ele></ele><time>2014-4-30T14:29:19Z</time></trkpt>
<trkpt lat="46.15829612" lon="7.47683214"><ele></ele><time>2014-4-30T14:29:22Z</time></trkpt>
<trkpt lat="46.15808775" lon="7.47699022"><ele></ele><time>2014-4-30T14:29:25Z</time></trkpt>
<trkpt lat="46.15806118" lon="7.47701059"><ele></ele><time>2014-4-30T14:29:28Z</time></trkpt>
<trkpt lat="46.15782908" lon="7.47721218"><ele></ele><time>2014-4-30T14:29:31Z</time></trkpt>
<trkpt lat="46.15782036" lon="7.47765935"><ele></ele><time>2014-4-30T14:29:34Z</time></trkpt>
<trkpt lat="46.15776362" lon="7.47799588"><ele></ele><time>2014-4-30T14:29:37Z</time></trkpt>
<trkpt lat="46.15763085" lon="7.47844247"><ele></ele><time>2014-4-30T14:29:40Z</time></trkpt>
<trkpt lat="46.15745349" lon="7.47881739"><ele></ele><time>2014-4-30T14:29:43Z</time></trkpt>
<trkpt lat="46.15726674" lon="7.47929868"><ele></ele><time>2014-4-30T14:29:46Z</time></trkpt>
<trkpt lat="46.15706507" lon="7.47971895"><ele></ele><time>2014-4-30T14:29:49Z</time></trkpt>
<trkpt lat="46.15675243" lon="7.48013696"><ele></ele><time>2014-4-30T14:29:52Z</time></trkpt>
<trkpt lat="46.15655160" lon="7.48069712"><ele></ele><time>2014-4-30T14:29:55Z</time></trkpt>
<trkpt lat="46.15633844" lon="7.48123314"><ele></ele><time>2014-4-30T14:29:58Z</time></trkpt>
<trkpt lat="46.15623468" lon="7.48162106"><ele></ele><time>2014-4-30T14:30:1Z</time></trkpt>
<trkpt lat="46.15593653" lon="7.48195608"><ele></ele><time>2014-4-30T14:30:4Z</time></trkpt>
<trkpt lat="46.15571315" lon="7.48208835"><ele></ele><time>2014-4-30T14:30:7Z</time></trkpt>
<trkpt lat="46.15548994" lon="7.48253418"><ele></ele><time>2014-4-30T14:30:10Z</time></trkpt>
<trkpt lat="46.15527746" lon="7.48291405"><ele></ele><time>2014-4-30T14:30:13Z</time></trkpt>
<trkpt lat="46.15524905" lon="7.48332367"><ele></ele><time>2014-4-30T14:30:16Z</time></trkpt>
<trkpt lat="46.15524997" lon="7.48370622"><ele></ele><time>2014-4-30T14:30:19Z</time></trkpt>
<trkpt lat="46.15522600" lon="7.48402214"><ele></ele><time>2014-4-30T14:30:22Z</time></trkpt>
<trkpt lat="46.15524762" lon="7.48435473"><ele></ele><time>2014-4-30T14:30:25Z</time></trkpt>
<trkpt lat="46.15530269" lon="7.48477726"><ele></ele><time>2014-4-30T14:30:28Z</time></trkpt>
<trkpt lat="46.15530118" lon="7.48479185"><ele></ele><time>2014-4-30T14:30:31Z</time></trkpt>
<trkpt lat="46.15531828" lon="7.48484784"><ele></ele><time>2014-4-30T14:30:34Z</time></trkpt>
<trkpt lat="46.15531585" lon="7.48524279"><ele></ele><time>2014-4-30T14:30:37Z</time></trkpt>
<trkpt lat="46.15514277" lon="7.48567857"><ele></ele><time>2014-4-30T14:30:40Z</time></trkpt>
<trkpt lat="46.15524159" lon="7.48604293"><ele></ele><time>2014-4-30T14:30:43Z</time></trkpt>
<trkpt lat="46.15528895" lon="7.48644945"><ele></ele><time>2014-4-30T14:30:46Z</time></trkpt>
<trkpt lat="46.15513346" lon="7.48681214"><ele></ele><time>2014-4-30T14:30:49Z</time></trkpt>
<trkpt lat="46.15495132" lon="7.48727323"><ele></ele><time>2014-4-30T14:30:52Z</time></trkpt>
<trkpt lat="46.15493992" lon="7.48746567"><ele></ele><time>2014-4-30T14:30:55Z</time></trkpt>
<trkpt lat="46.15502324" lon="7.48814503"><ele></ele><time>2014-4-30T14:30:58Z</time></trkpt>
<trkpt lat="46.15487245" lon="7.48851333"><ele></ele><time>2014-4-30T14:31:1Z</time></trkpt>
<trkpt lat="46.15449694" lon="7.48865825"><ele></ele><time>2014-4-30T14:31:4Z</time></trkpt>
<trkpt lat="46.15425697" lon="7.48890359"><ele></ele><time>2014-4-30T14:31:7Z</time></trkpt>
<trkpt lat="46.15407349" lon="7.48957356"><ele></ele><time>2014-4-30T14:31:10Z</time></trkpt>
<trkpt lat="46.15403099" lon="7.49013305"><ele></ele><time>2014-4-30T14:31:13Z</time></trkpt>
<trkpt lat="46.15381105" lon="7.49041376"><ele></ele><time>2014-4-30T14:31:16Z</time></trkpt>
<trkpt lat="46.15359337" lon="7.49064803"><ele></ele><time>2014-4-30T14:31:19Z</time></trkpt>
<trkpt lat="46.15344518" lon="7.49096026"><ele></ele><time>2014-4-30T14:31:22Z</time></trkpt>
<trkpt lat="46.15323253" lon="7.49122873"><ele></ele><time>2014-4-30T14:31:25Z</time></trkpt>
<trkpt lat="46.15301779" lon="7.49149645"><ele></ele><time>2014-4-30T14:31:28Z</time></trkpt>
<trkpt lat="46.15280153" lon="7.49178143"><ele></ele><time>2014-4-30T14:31:31Z</time></trkpt>
<trkpt lat="46.15265770" lon="7.49194790"><ele></ele><time>2014-4-30T14:31:34Z</time></trkpt>
<trkpt lat="46.15243566" lon="7.49219483"><ele></ele><time>2014-4-30T14:31:37Z</time></trkpt>
<trkpt lat="46.15233726" lon="7.49253413"><ele></ele><time>2014-4-30T14:31:40Z</time></trkpt>
<trkpt lat="46.15223575" lon="7.49295783"><ele></ele><time>2014-4-30T14:31:43Z</time></trkpt>
<trkpt lat="46.15217180" lon="7.49326905"><ele></ele><time>2014-4-30T14:31:46Z</time></trkpt>
<trkpt lat="46.15215688" lon="7.49365395"><ele></ele><time>2014-4-30T14:31:49Z</time></trkpt>
<trkpt lat="46.15216702" lon="7.49398193"><ele></ele><time>2014-4-30T14:31:52Z</time></trkpt>
<trkpt lat="46.15222586" lon="7.49431805"><ele></ele><time>2014-4-30T14:31:55Z</time></trkpt>
<trkpt lat="46.15224497" lon="7.49481434"><ele></ele><time>2014-4-30T14:31:58Z</time></trkpt>
<trkpt lat="46.15229988" lon="7.49510603"><ele></ele><time>2014-4-30T14:32:1Z</time></trkpt>
<trkpt lat="46.15214355" lon="7.49545153"><ele></ele><time>2014-4-30T14:32:4Z</time></trkpt>
<trkpt lat="46.15197809" lon="7.49557215"><ele></ele><time>2014-4-30T14:32:7Z</time></trkpt>
<trkpt lat="46.15188916" lon="7.49582964"><ele></ele><time>2014-4-30T14:32:10Z</time></trkpt>
<trkpt lat="46.15194029" lon="7.49620532"><ele></ele><time>2014-4-30T14:32:13Z</time></trkpt>
<trkpt lat="46.15198212" lon="7.49670547"><ele></ele><time>2014-4-30T14:32:16Z</time></trkpt>
<trkpt lat="46.15200383" lon="7.49719195"><ele></ele><time>2014-4-30T14:32:19Z</time></trkpt>
<trkpt lat="46.15203920" lon="7.49776376"><ele></ele><time>2014-4-30T14:32:22Z</time></trkpt>
<trkpt lat="46.15193484" lon="7.49805789"><ele></ele><time>2014-4-30T14:32:25Z</time></trkpt>
<trkpt lat="46.15192546" lon="7.49826576"><ele></ele><time>2014-4-30T14:32:28Z</time></trkpt>
<trkpt lat="46.15199536" lon="7.49824287"><ele></ele><time>2014-4-30T14:32:31Z</time></trkpt>
<trkpt lat="46.15211019" lon="7.49803383"><ele></ele><time>2014-4-30T14:32:34Z</time></trkpt>
<trkpt lat="46.15222016" lon="7.49758238"><ele></ele><time>2014-4-30T14:32:37Z</time></trkpt>
<trkpt lat="46.15227926" lon="7.49714292"><ele></ele><time>2014-4-30T14:32:40Z</time></trkpt>
<trkpt lat="46.15235989" lon="7.49664746"><ele></ele><time>2014-4-30T14:32:43Z</time></trkpt>
<trkpt lat="46.15240272" lon="7.49626156"><ele></ele><time>2014-4-30T14:32:46Z</time></trkpt>
<trkpt lat="46.15260925" lon="7.49604874"><ele></ele><time>2014-4-30T14:32:49Z</time></trkpt>
<trkpt lat="46.15280388" lon="7.49571087"><ele></ele><time>2014-4-30T14:32:52Z</time></trkpt>
<trkpt lat="46.15301854" lon="7.49523226"><ele></ele><time>2014-4-30T14:32:55Z</time></trkpt>
<trkpt lat="46.15310026" lon="7.49489925"><ele></ele><time>2014-4-30T14:32:58Z</time></trkpt>
<trkpt lat="46.15312767" lon="7.49479556"><ele></ele><time>2014-4-30T14:33:1Z</time></trkpt>
<trkpt lat="46.15318408" lon="7.49433775"><ele></ele><time>2014-4-30T14:33:4Z</time></trkpt>
<trkpt lat="46.15324628" lon="7.49388479"><ele></ele><time>2014-4-30T14:33:7Z</time></trkpt>
<trkpt lat="46.15354685" lon="7.49363048"><ele></ele><time>2014-4-30T14:33:10Z</time></trkpt>
<trkpt lat="46.15382873" lon="7.49345337"><ele></ele><time>2014-4-30T14:33:13Z</time></trkpt>
<trkpt lat="46.15404658" lon="7.49332496"><ele></ele><time>2014-4-30T14:33:16Z</time></trkpt>
<trkpt lat="46.15440616" lon="7.49309069"><ele></ele><time>2014-4-30T14:33:19Z</time></trkpt>
<trkpt lat="46.15479106" lon="7.49293227"><ele></ele><time>2014-4-30T14:33:22Z</time></trkpt>
<trkpt lat="46.15480732" lon="7.49292397"><ele></ele><time>2014-4-30T14:33:25Z</time></trkpt>
<trkpt lat="46.15487589" lon="7.49288885"><ele></ele><time>2014-4-30T14:33:28Z</time></trkpt>
<trkpt lat="46.15528978" lon="7.49268048"><ele></ele><time>2014-4-30T14:33:31Z</time></trkpt>
<trkpt lat="46.15552599" lon="7.49255626"><ele></ele><time>2014-4-30T14:33:34Z</time></trkpt>
<trkpt lat="46.15579848" lon="7.49248409"><ele></ele><time>2014-4-30T14:33:37Z</time></trkpt>
<trkpt lat="46.15581374" lon="7.49255022"><ele></ele><time>2014-4-30T14:33:40Z</time></trkpt>
<trkpt lat="46.15576286" lon="7.49265156"><ele></ele><time>2014-4-30T14:33:43Z</time></trkpt>
<trkpt lat="46.15542733" lon="7.49284845"><ele></ele><time>2014-4-30T14:33:46Z</time></trkpt>
<trkpt lat="46.15531275" lon="7.49297258"><ele></ele><time>2014-4-30T14:33:49Z</time></trkpt>
<trkpt lat="46.15519959" lon="7.49311139"><ele></ele><time>2014-4-30T14:33:52Z</time></trkpt>
<trkpt lat="46.15511125" lon="7.49322513"><ele></ele><time>2014-4-30T14:33:55Z</time></trkpt>
<trkpt lat="46.15500807" lon="7.49333485"><ele></ele><time>2014-4-30T14:33:58Z</time></trkpt>
<trkpt lat="46.15478050" lon="7.49365035"><ele></ele><time>2014-4-30T14:34:1Z</time></trkpt>
<trkpt lat="46.15459794" lon="7.49404966"><ele></ele><time>2014-4-30T14:34:4Z</time></trkpt>
<trkpt lat="46.15441714" lon="7.49458468"><ele></ele><time>2014-4-30T14:34:7Z</time></trkpt>
<trkpt lat="46.15435713" lon="7.49472415"><ele></ele><time>2014-4-30T14:34:10Z</time></trkpt>
<trkpt lat="46.15427096" lon="7.49523276"><ele></ele><time>2014-4-30T14:34:13Z</time></trkpt>
<trkpt lat="46.15430634" lon="7.49565102"><ele></ele><time>2014-4-30T14:34:16Z</time></trkpt>
<trkpt lat="46.15431623" lon="7.49572026"><ele></ele><time>2014-4-30T14:34:19Z</time></trkpt>
<trkpt lat="46.15429963" lon="7.49572126"><ele></ele><time>2014-4-30T14:34:22Z</time></trkpt>
<trkpt lat="46.15429628" lon="7.49571766"><ele></ele><time>2014-4-30T14:34:25Z</time></trkpt>
<trkpt lat="46.15429519" lon="7.49572202"><ele></ele><time>2014-4-30T14:34:28Z</time></trkpt>
<trkpt lat="46.15428764" lon="7.49571724"><ele></ele><time>2014-4-30T14:34:31Z</time></trkpt>
<trkpt lat="46.15430558" lon="7.49573543"><ele></ele><time>2014-4-30T14:34:34Z</time></trkpt>
<trkpt lat="46.15433123" lon="7.49578832"><ele></ele><time>2014-4-30T14:34:37Z</time></trkpt>
<trkpt lat="46.15436610" lon="7.49595847"><ele></ele><time>2014-4-30T14:34:40Z</time></trkpt>
<trkpt lat="46.15437414" lon="7.49603785"><ele></ele><time>2014-4-30T14:34:43Z</time></trkpt>
<trkpt lat="46.15434799" lon="7.49612594"><ele></ele><time>2014-4-30T14:34:46Z</time></trkpt>
<trkpt lat="46.15439912" lon="7.49619802"><ele></ele><time>2014-4-30T14:34:49Z</time></trkpt>
<trkpt lat="46.15446215" lon="7.49628142"><ele></ele><time>2014-4-30T14:34:52Z</time></trkpt>
<trkpt lat="46.15440063" lon="7.49659298"><ele></ele><time>2014-4-30T14:34:55Z</time></trkpt>
<trkpt lat="46.15435302" lon="7.49693722"><ele></ele><time>2014-4-30T14:34:58Z</time></trkpt>
<trkpt lat="46.15435026" lon="7.49720075"><ele></ele><time>2014-4-30T14:35:1Z</time></trkpt>
<trkpt lat="46.15430474" lon="7.49754248"><ele></ele><time>2014-4-30T14:35:4Z</time></trkpt>
<trkpt lat="46.15426577" lon="7.49781204"><ele></ele><time>2014-4-30T14:35:7Z</time></trkpt>
<trkpt lat="46.15426954" lon="7.49783208"><ele></ele><time>2014-4-30T14:35:10Z</time></trkpt>
<trkpt lat="46.15426158" lon="7.49791154"><ele></ele><time>2014-4-30T14:35:13Z</time></trkpt>
<trkpt lat="46.15423216" lon="7.49813533"><ele></ele><time>2014-4-30T14:35:16Z</time></trkpt>
<trkpt lat="46.15421908" lon="7.49820683"><ele></ele><time>2014-4-30T14:35:19Z</time></trkpt>
<trkpt lat="46.15421095" lon="7.49829317"><ele></ele><time>2014-4-30T14:35:22Z</time></trkpt>
<trkpt lat="46.15422185" lon="7.49834388"><ele></ele><time>2014-4-30T14:35:25Z</time></trkpt>
<trkpt lat="46.15420718" lon="7.49852509"><ele></ele><time>2014-4-30T14:35:28Z</time></trkpt>
<trkpt lat="46.15418346" lon="7.49877940"><ele></ele><time>2014-4-30T14:35:31Z</time></trkpt>
<trkpt lat="46.15418497" lon="7.49879155"><ele></ele><time>2014-4-30T14:35:34Z</time></trkpt>
<trkpt lat="46.15416233" lon="7.49897562"><ele></ele><time>2014-4-30T14:35:37Z</time></trkpt>
<trkpt lat="46.15422092" lon="7.49921585"><ele></ele><time>2014-4-30T14:35:40Z</time></trkpt>
<trkpt lat="46.15419293" lon="7.49933269"><ele></ele><time>2014-4-30T14:35:43Z</time></trkpt>
<trkpt lat="46.15407709" lon="7.49951893"><ele></ele><time>2014-4-30T14:35:46Z</time></trkpt>
<trkpt lat="46.15404909" lon="7.49966059"><ele></ele><time>2014-4-30T14:35:49Z</time></trkpt>
<trkpt lat="46.15398573" lon="7.49993149"><ele></ele><time>2014-4-30T14:35:52Z</time></trkpt>
<trkpt lat="46.15397022" lon="7.50000257"><ele></ele><time>2014-4-30T14:35:55Z</time></trkpt>
<trkpt lat="46.15390493" lon="7.50047824"><ele></ele><time>2014-4-30T14:35:58Z</time></trkpt>
<trkpt lat="46.15386117" lon="7.50082777"><ele></ele><time>2014-4-30T14:36:1Z</time></trkpt>
<trkpt lat="46.15374483" lon="7.50120286"><ele></ele><time>2014-4-30T14:36:4Z</time></trkpt>
<trkpt lat="46.15371399" lon="7.50131132"><ele></ele><time>2014-4-30T14:36:7Z</time></trkpt>
<trkpt lat="46.15365649" lon="7.50171189"><ele></ele><time>2014-4-30T14:36:10Z</time></trkpt>
<trkpt lat="46.15359974" lon="7.50196746"><ele></ele><time>2014-4-30T14:36:13Z</time></trkpt>
<trkpt lat="46.15359312" lon="7.50198933"><ele></ele><time>2014-4-30T14:36:16Z</time></trkpt>
<trkpt lat="46.15353344" lon="7.50227625"><ele></ele><time>2014-4-30T14:36:19Z</time></trkpt>
<trkpt lat="46.15350469" lon="7.50254505"><ele></ele><time>2014-4-30T14:36:22Z</time></trkpt>
<trkpt lat="46.15349958" lon="7.50261320"><ele></ele><time>2014-4-30T14:36:25Z</time></trkpt>
<trkpt lat="46.15347938" lon="7.50284177"><ele></ele><time>2014-4-30T14:36:28Z</time></trkpt>
<trkpt lat="46.15349949" lon="7.50290346"><ele></ele><time>2014-4-30T14:36:31Z</time></trkpt>
<trkpt lat="46.15346412" lon="7.50319088"><ele></ele><time>2014-4-30T14:36:34Z</time></trkpt>
<trkpt lat="46.15350486" lon="7.50333614"><ele></ele><time>2014-4-30T14:36:37Z</time></trkpt>
<trkpt lat="46.15353176" lon="7.50349908"><ele></ele><time>2014-4-30T14:36:40Z</time></trkpt>
<trkpt lat="46.15354224" lon="7.50365306"><ele></ele><time>2014-4-30T14:36:43Z</time></trkpt>
<trkpt lat="46.15347762" lon="7.50382514"><ele></ele><time>2014-4-30T14:36:46Z</time></trkpt>
<trkpt lat="46.15345155" lon="7.50395330"><ele></ele><time>2014-4-30T14:36:49Z</time></trkpt>
<trkpt lat="46.15342959" lon="7.50405044"><ele></ele><time>2014-4-30T14:36:52Z</time></trkpt>
<trkpt lat="46.15337812" lon="7.50416284"><ele></ele><time>2014-4-30T14:36:55Z</time></trkpt>
<trkpt lat="46.15328919" lon="7.50424038"><ele></ele><time>2014-4-30T14:36:58Z</time></trkpt>
<trkpt lat="46.15320437" lon="7.50431900"><ele></ele><time>2014-4-30T14:37:1Z</time></trkpt>
<trkpt lat="46.15308853" lon="7.50441698"><ele></ele><time>2014-4-30T14:37:4Z</time></trkpt>
<trkpt lat="46.15300546" lon="7.50461404"><ele></ele><time>2014-4-30T14:37:7Z</time></trkpt>
<trkpt lat="46.15293656" lon="7.50474907"><ele></ele><time>2014-4-30T14:37:10Z</time></trkpt>
<trkpt lat="46.15292324" lon="7.50480440"><ele></ele><time>2014-4-30T14:37:13Z</time></trkpt>
<trkpt lat="46.15288896" lon="7.50495326"><ele></ele><time>2014-4-30T14:37:16Z</time></trkpt>
<trkpt lat="46.15288753" lon="7.50518334"><ele></ele><time>2014-4-30T14:37:19Z</time></trkpt>
<trkpt lat="46.15292827" lon="7.50539046"><ele></ele><time>2014-4-30T14:37:22Z</time></trkpt>
<trkpt lat="46.15293422" lon="7.50542533"><ele></ele><time>2014-4-30T14:37:25Z</time></trkpt>
<trkpt lat="46.15292952" lon="7.50544888"><ele></ele><time>2014-4-30T14:37:28Z</time></trkpt>
<trkpt lat="46.15291796" lon="7.50552457"><ele></ele><time>2014-4-30T14:37:31Z</time></trkpt>
<trkpt lat="46.15291008" lon="7.50578944"><ele></ele><time>2014-4-30T14:37:34Z</time></trkpt>
<trkpt lat="46.15292835" lon="7.50583755"><ele></ele><time>2014-4-30T14:37:37Z</time></trkpt>
<trkpt lat="46.15300563" lon="7.50607903"><ele></ele><time>2014-4-30T14:37:40Z</time></trkpt>
<trkpt lat="46.15308476" lon="7.50633166"><ele></ele><time>2014-4-30T14:37:43Z</time></trkpt>
<trkpt lat="46.15310093" lon="7.50647139"><ele></ele><time>2014-4-30T14:37:46Z</time></trkpt>
<trkpt lat="46.15310496" lon="7.50673659"><ele></ele><time>2014-4-30T14:37:49Z</time></trkpt>
<trkpt lat="46.15309364" lon="7.50686450"><ele></ele><time>2014-4-30T14:37:52Z</time></trkpt>
<trkpt lat="46.15312449" lon="7.50708662"><ele></ele><time>2014-4-30T14:37:55Z</time></trkpt>
<trkpt lat="46.15319188" lon="7.50722819"><ele></ele><time>2014-4-30T14:37:58Z</time></trkpt>
<trkpt lat="46.15326446" lon="7.50741083"><ele></ele><time>2014-4-30T14:38:1Z</time></trkpt>
<trkpt lat="46.15329984" lon="7.50766313"><ele></ele><time>2014-4-30T14:38:4Z</time></trkpt>
<trkpt lat="46.15331316" lon="7.50792892"><ele></ele><time>2014-4-30T14:38:7Z</time></trkpt>
<trkpt lat="46.15331316" lon="7.50795968"><ele></ele><time>2014-4-30T14:38:10Z</time></trkpt>
<trkpt lat="46.15325583" lon="7.50812832"><ele></ele><time>2014-4-30T14:38:13Z</time></trkpt>
<trkpt lat="46.15325768" lon="7.50813846"><ele></ele><time>2014-4-30T14:38:16Z</time></trkpt>
<trkpt lat="46.15326019" lon="7.50814785"><ele></ele><time>2014-4-30T14:38:19Z</time></trkpt>
<trkpt lat="46.15327595" lon="7.50833636"><ele></ele><time>2014-4-30T14:38:22Z</time></trkpt>
<trkpt lat="46.15334393" lon="7.50862847"><ele></ele><time>2014-4-30T14:38:25Z</time></trkpt>
<trkpt lat="46.15340444" lon="7.50896852"><ele></ele><time>2014-4-30T14:38:28Z</time></trkpt>
<trkpt lat="46.15351718" lon="7.50921319"><ele></ele><time>2014-4-30T14:38:31Z</time></trkpt>
<trkpt lat="46.15359253" lon="7.50944462"><ele></ele><time>2014-4-30T14:38:34Z</time></trkpt>
<trkpt lat="46.15365783" lon="7.50971368"><ele></ele><time>2014-4-30T14:38:37Z</time></trkpt>
<trkpt lat="46.15374374" lon="7.50994476"><ele></ele><time>2014-4-30T14:38:40Z</time></trkpt>
<trkpt lat="46.15382957" lon="7.51028440"><ele></ele><time>2014-4-30T14:38:43Z</time></trkpt>
<trkpt lat="46.15393150" lon="7.51055136"><ele></ele><time>2014-4-30T14:38:46Z</time></trkpt>
<trkpt lat="46.15397844" lon="7.51070383"><ele></ele><time>2014-4-30T14:38:49Z</time></trkpt>
<trkpt lat="46.15402856" lon="7.51094288"><ele></ele><time>2014-4-30T14:38:52Z</time></trkpt>
<trkpt lat="46.15407466" lon="7.51117908"><ele></ele><time>2014-4-30T14:38:55Z</time></trkpt>
<trkpt lat="46.15415764" lon="7.51141487"><ele></ele><time>2014-4-30T14:38:58Z</time></trkpt>
<trkpt lat="46.15421925" lon="7.51158477"><ele></ele><time>2014-4-30T14:39:1Z</time></trkpt>
<trkpt lat="46.15426543" lon="7.51172818"><ele></ele><time>2014-4-30T14:39:4Z</time></trkpt>
<trkpt lat="46.15429879" lon="7.51185140"><ele></ele><time>2014-4-30T14:39:7Z</time></trkpt>
<trkpt lat="46.15436526" lon="7.51206606"><ele></ele><time>2014-4-30T14:39:10Z</time></trkpt>
<trkpt lat="46.15439476" lon="7.51217879"><ele></ele><time>2014-4-30T14:39:13Z</time></trkpt>
<trkpt lat="46.15441807" lon="7.51235724"><ele></ele><time>2014-4-30T14:39:16Z</time></trkpt>
<trkpt lat="46.15447766" lon="7.51241466"><ele></ele><time>2014-4-30T14:39:19Z</time></trkpt>
<trkpt lat="46.15454388" lon="7.51244626"><ele></ele><time>2014-4-30T14:39:22Z</time></trkpt>
<trkpt lat="46.15458160" lon="7.51247409"><ele></ele><time>2014-4-30T14:39:25Z</time></trkpt>
<trkpt lat="46.15463457" lon="7.51252363"><ele></ele><time>2014-4-30T14:39:28Z</time></trkpt>
<trkpt lat="46.15463457" lon="7.51261666"><ele></ele><time>2014-4-30T14:39:31Z</time></trkpt>
<trkpt lat="46.15461714" lon="7.51269730"><ele></ele><time>2014-4-30T14:39:34Z</time></trkpt>
<trkpt lat="46.15458872" lon="7.51279453"><ele></ele><time>2014-4-30T14:39:37Z</time></trkpt>
<trkpt lat="46.15458068" lon="7.51284432"><ele></ele><time>2014-4-30T14:39:40Z</time></trkpt>
<trkpt lat="46.15462778" lon="7.51291900"><ele></ele><time>2014-4-30T14:39:43Z</time></trkpt>
<trkpt lat="46.15464429" lon="7.51299628"><ele></ele><time>2014-4-30T14:39:46Z</time></trkpt>
<trkpt lat="46.15466106" lon="7.51305596"><ele></ele><time>2014-4-30T14:39:49Z</time></trkpt>
<trkpt lat="46.15470389" lon="7.51313014"><ele></ele><time>2014-4-30T14:39:52Z</time></trkpt>
<trkpt lat="46.15475477" lon="7.51318923"><ele></ele><time>2014-4-30T14:39:55Z</time></trkpt>
<trkpt lat="46.15479508" lon="7.51322938"><ele></ele><time>2014-4-30T14:39:58Z</time></trkpt>
<trkpt lat="46.15485359" lon="7.51327196"><ele></ele><time>2014-4-30T14:40:1Z</time></trkpt>
<trkpt lat="46.15491059" lon="7.51330792"><ele></ele><time>2014-4-30T14:40:4Z</time></trkpt>
<trkpt lat="46.15497555" lon="7.51338487"><ele></ele><time>2014-4-30T14:40:7Z</time></trkpt>
<trkpt lat="46.15498720" lon="7.51342057"><ele></ele><time>2014-4-30T14:40:10Z</time></trkpt>
<trkpt lat="46.15503489" lon="7.51346366"><ele></ele><time>2014-4-30T14:40:13Z</time></trkpt>
<trkpt lat="46.15503908" lon="7.51346810"><ele></ele><time>2014-4-30T14:40:16Z</time></trkpt>
<trkpt lat="46.15502760" lon="7.51354219"><ele></ele><time>2014-4-30T14:40:19Z</time></trkpt>
<trkpt lat="46.15492660" lon="7.51362509"><ele></ele><time>2014-4-30T14:40:22Z</time></trkpt>
<trkpt lat="46.15486650" lon="7.51370153"><ele></ele><time>2014-4-30T14:40:25Z</time></trkpt>
<trkpt lat="46.15481017" lon="7.51378443"><ele></ele><time>2014-4-30T14:40:28Z</time></trkpt>
<trkpt lat="46.15481780" lon="7.51385283"><ele></ele><time>2014-4-30T14:40:31Z</time></trkpt>
<trkpt lat="46.15490237" lon="7.51389029"><ele></ele><time>2014-4-30T14:40:34Z</time></trkpt>
<trkpt lat="46.15494847" lon="7.51395416"><ele></ele><time>2014-4-30T14:40:37Z</time></trkpt>
<trkpt lat="46.15499994" lon="7.51403673"><ele></ele><time>2014-4-30T14:40:40Z</time></trkpt>
<trkpt lat="46.15505367" lon="7.51412926"><ele></ele><time>2014-4-30T14:40:43Z</time></trkpt>
<trkpt lat="46.15504738" lon="7.51422825"><ele></ele><time>2014-4-30T14:40:46Z</time></trkpt>
<trkpt lat="46.15498167" lon="7.51426899"><ele></ele><time>2014-4-30T14:40:49Z</time></trkpt>
<trkpt lat="46.15490413" lon="7.51433638"><ele></ele><time>2014-4-30T14:40:52Z</time></trkpt>
<trkpt lat="46.15481218" lon="7.51444878"><ele></ele><time>2014-4-30T14:40:55Z</time></trkpt>
<trkpt lat="46.15485183" lon="7.51459873"><ele></ele><time>2014-4-30T14:40:58Z</time></trkpt>
<trkpt lat="46.15488544" lon="7.51472932"><ele></ele><time>2014-4-30T14:41:1Z</time></trkpt>
<trkpt lat="46.15490120" lon="7.51481817"><ele></ele><time>2014-4-30T14:41:4Z</time></trkpt>
<trkpt lat="46.15493179" lon="7.51490735"><ele></ele><time>2014-4-30T14:41:7Z</time></trkpt>
<trkpt lat="46.15495778" lon="7.51500735"><ele></ele><time>2014-4-30T14:41:10Z</time></trkpt>
<trkpt lat="46.15497027" lon="7.51507843"><ele></ele><time>2014-4-30T14:41:13Z</time></trkpt>
<trkpt lat="46.15500245" lon="7.51517558"><ele></ele><time>2014-4-30T14:41:16Z</time></trkpt>
<trkpt lat="46.15503766" lon="7.51527423"><ele></ele><time>2014-4-30T14:41:19Z</time></trkpt>
<trkpt lat="46.15505635" lon="7.51537842"><ele></ele><time>2014-4-30T14:41:22Z</time></trkpt>
<trkpt lat="46.15507345" lon="7.51544690"><ele></ele><time>2014-4-30T14:41:25Z</time></trkpt>
<trkpt lat="46.15509088" lon="7.51553273"><ele></ele><time>2014-4-30T14:41:28Z</time></trkpt>
<trkpt lat="46.15510304" lon="7.51561152"><ele></ele><time>2014-4-30T14:41:31Z</time></trkpt>
<trkpt lat="46.15511745" lon="7.51569710"><ele></ele><time>2014-4-30T14:41:34Z</time></trkpt>
<trkpt lat="46.15514352" lon="7.51577488"><ele></ele><time>2014-4-30T14:41:37Z</time></trkpt>
<trkpt lat="46.15517252" lon="7.51586339"><ele></ele><time>2014-4-30T14:41:40Z</time></trkpt>
<trkpt lat="46.15519767" lon="7.51590857"><ele></ele><time>2014-4-30T14:41:43Z</time></trkpt>
<trkpt lat="46.15525047" lon="7.51599407"><ele></ele><time>2014-4-30T14:41:46Z</time></trkpt>
<trkpt lat="46.15528526" lon="7.51607034"><ele></ele><time>2014-4-30T14:41:49Z</time></trkpt>
<trkpt lat="46.15532792" lon="7.51608736"><ele></ele><time>2014-4-30T14:41:52Z</time></trkpt>
<trkpt lat="46.15536279" lon="7.51613690"><ele></ele><time>2014-4-30T14:41:55Z</time></trkpt>
<trkpt lat="46.15539556" lon="7.51621854"><ele></ele><time>2014-4-30T14:41:58Z</time></trkpt>
<trkpt lat="46.15540227" lon="7.51631266"><ele></ele><time>2014-4-30T14:42:1Z</time></trkpt>
<trkpt lat="46.15533479" lon="7.51635164"><ele></ele><time>2014-4-30T14:42:4Z</time></trkpt>
<trkpt lat="46.15529322" lon="7.51641057"><ele></ele><time>2014-4-30T14:42:7Z</time></trkpt>
<trkpt lat="46.15527646" lon="7.51647444"><ele></ele><time>2014-4-30T14:42:10Z</time></trkpt>
<trkpt lat="46.15525089" lon="7.51661374"><ele></ele><time>2014-4-30T14:42:13Z</time></trkpt>
<trkpt lat="46.15521384" lon="7.51667309"><ele></ele><time>2014-4-30T14:42:16Z</time></trkpt>
<trkpt lat="46.15521108" lon="7.51670192"><ele></ele><time>2014-4-30T14:42:19Z</time></trkpt>
<trkpt lat="46.15518459" lon="7.51678415"><ele></ele><time>2014-4-30T14:42:22Z</time></trkpt>
<trkpt lat="46.15516917" lon="7.51687828"><ele></ele><time>2014-4-30T14:42:25Z</time></trkpt>
<trkpt lat="46.15510865" lon="7.51691700"><ele></ele><time>2014-4-30T14:42:28Z</time></trkpt>
<trkpt lat="46.15499835" lon="7.51687752"><ele></ele><time>2014-4-30T14:42:31Z</time></trkpt>
<trkpt lat="46.15490656" lon="7.51688113"><ele></ele><time>2014-4-30T14:42:34Z</time></trkpt>
<trkpt lat="46.15484764" lon="7.51690962"><ele></ele><time>2014-4-30T14:42:37Z</time></trkpt>
<trkpt lat="46.15483942" lon="7.51700367"><ele></ele><time>2014-4-30T14:42:40Z</time></trkpt>
<trkpt lat="46.15480330" lon="7.51708405"><ele></ele><time>2014-4-30T14:42:43Z</time></trkpt>
<trkpt lat="46.15478855" lon="7.51715463"><ele></ele><time>2014-4-30T14:42:46Z</time></trkpt>
<trkpt lat="46.15476935" lon="7.51724666"><ele></ele><time>2014-4-30T14:42:49Z</time></trkpt>
<trkpt lat="46.15475778" lon="7.51734129"><ele></ele><time>2014-4-30T14:42:52Z</time></trkpt>
<trkpt lat="46.15477027" lon="7.51739586"><ele></ele><time>2014-4-30T14:42:55Z</time></trkpt>
<trkpt lat="46.15476382" lon="7.51745679"><ele></ele><time>2014-4-30T14:42:58Z</time></trkpt>
<trkpt lat="46.15476952" lon="7.51758286"><ele></ele><time>2014-4-30T14:43:1Z</time></trkpt>
<trkpt lat="46.15478176" lon="7.51767833"><ele></ele><time>2014-4-30T14:43:4Z</time></trkpt>
<trkpt lat="46.15479626" lon="7.51777388"><ele></ele><time>2014-4-30T14:43:7Z</time></trkpt>
<trkpt lat="46.15481470" lon="7.51785158"><ele></ele><time>2014-4-30T14:43:10Z</time></trkpt>
<trkpt lat="46.15482325" lon="7.51791989"><ele></ele><time>2014-4-30T14:43:13Z</time></trkpt>
<trkpt lat="46.15484554" lon="7.51801436"><ele></ele><time>2014-4-30T14:43:16Z</time></trkpt>
<trkpt lat="46.15488846" lon="7.51809323"><ele></ele><time>2014-4-30T14:43:19Z</time></trkpt>
<trkpt lat="46.15491210" lon="7.51816506"><ele></ele><time>2014-4-30T14:43:22Z</time></trkpt>
<trkpt lat="46.15494076" lon="7.51824134"><ele></ele><time>2014-4-30T14:43:25Z</time></trkpt>
<trkpt lat="46.15496482" lon="7.51832759"><ele></ele><time>2014-4-30T14:43:28Z</time></trkpt>
<trkpt lat="46.15497647" lon="7.51839657"><ele></ele><time>2014-4-30T14:43:31Z</time></trkpt>
<trkpt lat="46.15499642" lon="7.51848022"><ele></ele><time>2014-4-30T14:43:34Z</time></trkpt>
<trkpt lat="46.15504746" lon="7.51856253"><ele></ele><time>2014-4-30T14:43:37Z</time></trkpt>
<trkpt lat="46.15513774" lon="7.51868307"><ele></ele><time>2014-4-30T14:43:40Z</time></trkpt>
<trkpt lat="46.15521410" lon="7.51879874"><ele></ele><time>2014-4-30T14:43:43Z</time></trkpt>
<trkpt lat="46.15529154" lon="7.51889924"><ele></ele><time>2014-4-30T14:43:46Z</time></trkpt>
<trkpt lat="46.15533899" lon="7.51898725"><ele></ele><time>2014-4-30T14:43:49Z</time></trkpt>
<trkpt lat="46.15536363" lon="7.51904776"><ele></ele><time>2014-4-30T14:43:52Z</time></trkpt>
<trkpt lat="46.15539573" lon="7.51913058"><ele></ele><time>2014-4-30T14:43:55Z</time></trkpt>
<trkpt lat="46.15548106" lon="7.51921188"><ele></ele><time>2014-4-30T14:43:58Z</time></trkpt>
<trkpt lat="46.15555356" lon="7.51930752"><ele></ele><time>2014-4-30T14:44:1Z</time></trkpt>
<trkpt lat="46.15557435" lon="7.51938170"><ele></ele><time>2014-4-30T14:44:4Z</time></trkpt>
<trkpt lat="46.15564794" lon="7.51950776"><ele></ele><time>2014-4-30T14:44:7Z</time></trkpt>
<trkpt lat="46.15570318" lon="7.51961119"><ele></ele><time>2014-4-30T14:44:10Z</time></trkpt>
<trkpt lat="46.15573805" lon="7.51971907"><ele></ele><time>2014-4-30T14:44:13Z</time></trkpt>
<trkpt lat="46.15577099" lon="7.51982963"><ele></ele><time>2014-4-30T14:44:16Z</time></trkpt>
<trkpt lat="46.15577308" lon="7.51985695"><ele></ele><time>2014-4-30T14:44:19Z</time></trkpt>
<trkpt lat="46.15572455" lon="7.52005946"><ele></ele><time>2014-4-30T14:44:22Z</time></trkpt>
<trkpt lat="46.15562825" lon="7.52047839"><ele></ele><time>2014-4-30T14:44:25Z</time></trkpt>
<trkpt lat="46.15545290" lon="7.52088013"><ele></ele><time>2014-4-30T14:44:28Z</time></trkpt>
<trkpt lat="46.15531485" lon="7.52113913"><ele></ele><time>2014-4-30T14:44:31Z</time></trkpt>
<trkpt lat="46.15520395" lon="7.52142018"><ele></ele><time>2014-4-30T14:44:34Z</time></trkpt>
<trkpt lat="46.15499893" lon="7.52176593"><ele></ele><time>2014-4-30T14:44:37Z</time></trkpt>
<trkpt lat="46.15489642" lon="7.52191379"><ele></ele><time>2014-4-30T14:44:40Z</time></trkpt>
<trkpt lat="46.15479785" lon="7.52211856"><ele></ele><time>2014-4-30T14:44:43Z</time></trkpt>
<trkpt lat="46.15474387" lon="7.52228787"><ele></ele><time>2014-4-30T14:44:46Z</time></trkpt>
<trkpt lat="46.15469827" lon="7.52251938"><ele></ele><time>2014-4-30T14:44:49Z</time></trkpt>
<trkpt lat="46.15469065" lon="7.52259716"><ele></ele><time>2014-4-30T14:44:52Z</time></trkpt>
<trkpt lat="46.15465184" lon="7.52303428"><ele></ele><time>2014-4-30T14:44:55Z</time></trkpt>
<trkpt lat="46.15468645" lon="7.52340828"><ele></ele><time>2014-4-30T14:44:58Z</time></trkpt>
<trkpt lat="46.15470498" lon="7.52353024"><ele></ele><time>2014-4-30T14:45:1Z</time></trkpt>
<trkpt lat="46.15468679" lon="7.52385822"><ele></ele><time>2014-4-30T14:45:4Z</time></trkpt>
<trkpt lat="46.15450373" lon="7.52389519"><ele></ele><time>2014-4-30T14:45:7Z</time></trkpt>
<trkpt lat="46.15441186" lon="7.52385370"><ele></ele><time>2014-4-30T14:45:10Z</time></trkpt>
<trkpt lat="46.15422285" lon="7.52379083"><ele></ele><time>2014-4-30T14:45:13Z</time></trkpt>
<trkpt lat="46.15413979" lon="7.52378362"><ele></ele><time>2014-4-30T14:45:16Z</time></trkpt>
<trkpt lat="46.15396234" lon="7.52369234"><ele></ele><time>2014-4-30T14:45:19Z</time></trkpt>
<trkpt lat="46.15385958" lon="7.52360693"><ele></ele><time>2014-4-30T14:45:22Z</time></trkpt>
<trkpt lat="46.15373427" lon="7.52354189"><ele></ele><time>2014-4-30T14:45:25Z</time></trkpt>
<trkpt lat="46.15362355" lon="7.52351683"><ele></ele><time>2014-4-30T14:45:28Z</time></trkpt>
<trkpt lat="46.15350494" lon="7.52350677"><ele></ele><time>2014-4-30T14:45:31Z</time></trkpt>
<trkpt lat="46.15313379" lon="7.52357374"><ele></ele><time>2014-4-30T14:45:34Z</time></trkpt>
<trkpt lat="46.15264630" lon="7.52367759"><ele></ele><time>2014-4-30T14:45:37Z</time></trkpt>
<trkpt lat="46.15261948" lon="7.52376686"><ele></ele><time>2014-4-30T14:45:40Z</time></trkpt>
<trkpt lat="46.15264923" lon="7.52390164"><ele></ele><time>2014-4-30T14:45:43Z</time></trkpt>
<trkpt lat="46.15273003" lon="7.52414094"><ele></ele><time>2014-4-30T14:45:46Z</time></trkpt>
<trkpt lat="46.15283389" lon="7.52438695"><ele></ele><time>2014-4-30T14:45:49Z</time></trkpt>
<trkpt lat="46.15293497" lon="7.52475919"><ele></ele><time>2014-4-30T14:45:52Z</time></trkpt>
<trkpt lat="46.15301276" lon="7.52505918"><ele></ele><time>2014-4-30T14:45:55Z</time></trkpt>
<trkpt lat="46.15302944" lon="7.52518139"><ele></ele><time>2014-4-30T14:45:58Z</time></trkpt>
<trkpt lat="46.15315634" lon="7.52548683"><ele></ele><time>2014-4-30T14:46:1Z</time></trkpt>
<trkpt lat="46.15326857" lon="7.52586527"><ele></ele><time>2014-4-30T14:46:4Z</time></trkpt>
<trkpt lat="46.15326949" lon="7.52592528"><ele></ele><time>2014-4-30T14:46:7Z</time></trkpt>
<trkpt lat="46.15327528" lon="7.52598236"><ele></ele><time>2014-4-30T14:46:10Z</time></trkpt>
<trkpt lat="46.15333412" lon="7.52628160"><ele></ele><time>2014-4-30T14:46:13Z</time></trkpt>
<trkpt lat="46.15347192" lon="7.52648955"><ele></ele><time>2014-4-30T14:46:16Z</time></trkpt>
<trkpt lat="46.15351014" lon="7.52654647"><ele></ele><time>2014-4-30T14:46:19Z</time></trkpt>
<trkpt lat="46.15368373" lon="7.52675199"><ele></ele><time>2014-4-30T14:46:22Z</time></trkpt>
<trkpt lat="46.15379428" lon="7.52694125"><ele></ele><time>2014-4-30T14:46:25Z</time></trkpt>
<trkpt lat="46.15382496" lon="7.52698702"><ele></ele><time>2014-4-30T14:46:28Z</time></trkpt>
<trkpt lat="46.15385757" lon="7.52701635"><ele></ele><time>2014-4-30T14:46:31Z</time></trkpt>
<trkpt lat="46.15401087" lon="7.52714049"><ele></ele><time>2014-4-30T14:46:34Z</time></trkpt>
<trkpt lat="46.15403024" lon="7.52718206"><ele></ele><time>2014-4-30T14:46:37Z</time></trkpt>
<trkpt lat="46.15407474" lon="7.52726840"><ele></ele><time>2014-4-30T14:46:40Z</time></trkpt>
<trkpt lat="46.15414247" lon="7.52744492"><ele></ele><time>2014-4-30T14:46:43Z</time></trkpt>
<trkpt lat="46.15415144" lon="7.52754995"><ele></ele><time>2014-4-30T14:46:46Z</time></trkpt>
<trkpt lat="46.15417155" lon="7.52772303"><ele></ele><time>2014-4-30T14:46:49Z</time></trkpt>
<trkpt lat="46.15416938" lon="7.52799503"><ele></ele><time>2014-4-30T14:46:52Z</time></trkpt>
<trkpt lat="46.15416175" lon="7.52815797"><ele></ele><time>2014-4-30T14:46:55Z</time></trkpt>
<trkpt lat="46.15417683" lon="7.52832142"><ele></ele><time>2014-4-30T14:46:58Z</time></trkpt>
<trkpt lat="46.15419016" lon="7.52856625"><ele></ele><time>2014-4-30T14:47:1Z</time></trkpt>
<trkpt lat="46.15411959" lon="7.52870648"><ele></ele><time>2014-4-30T14:47:4Z</time></trkpt>
<trkpt lat="46.15408698" lon="7.52875317"><ele></ele><time>2014-4-30T14:47:7Z</time></trkpt>
<trkpt lat="46.15394164" lon="7.52891988"><ele></ele><time>2014-4-30T14:47:10Z</time></trkpt>
<trkpt lat="46.15377107" lon="7.52897076"><ele></ele><time>2014-4-30T14:47:13Z</time></trkpt>
<trkpt lat="46.15364366" lon="7.52898510"><ele></ele><time>2014-4-30T14:47:16Z</time></trkpt>
<trkpt lat="46.15349480" lon="7.52914527"><ele></ele><time>2014-4-30T14:47:19Z</time></trkpt>
<trkpt lat="46.15340805" lon="7.52925105"><ele></ele><time>2014-4-30T14:47:22Z</time></trkpt>
<trkpt lat="46.15328349" lon="7.52941852"><ele></ele><time>2014-4-30T14:47:25Z</time></trkpt>
<trkpt lat="46.15316162" lon="7.52964710"><ele></ele><time>2014-4-30T14:47:28Z</time></trkpt>
<trkpt lat="46.15308358" lon="7.53010207"><ele></ele><time>2014-4-30T14:47:31Z</time></trkpt>
<trkpt lat="46.15305768" lon="7.53025169"><ele></ele><time>2014-4-30T14:47:34Z</time></trkpt>
<trkpt lat="46.15304444" lon="7.53049375"><ele></ele><time>2014-4-30T14:47:37Z</time></trkpt>
<trkpt lat="46.15313136" lon="7.53109197"><ele></ele><time>2014-4-30T14:47:40Z</time></trkpt>
<trkpt lat="46.15334149" lon="7.53152238"><ele></ele><time>2014-4-30T14:47:43Z</time></trkpt>
<trkpt lat="46.15348885" lon="7.53190384"><ele></ele><time>2014-4-30T14:47:46Z</time></trkpt>
<trkpt lat="46.15353872" lon="7.53203334"><ele></ele><time>2014-4-30T14:47:49Z</time></trkpt>
<trkpt lat="46.15367208" lon="7.53237977"><ele></ele><time>2014-4-30T14:47:52Z</time></trkpt>
<trkpt lat="46.15375657" lon="7.53255696"><ele></ele><time>2014-4-30T14:47:55Z</time></trkpt>
<trkpt lat="46.15364785" lon="7.53306130"><ele></ele><time>2014-4-30T14:47:58Z</time></trkpt>
<trkpt lat="46.15358398" lon="7.53339733"><ele></ele><time>2014-4-30T14:48:1Z</time></trkpt>
<trkpt lat="46.15357577" lon="7.53347939"><ele></ele><time>2014-4-30T14:48:4Z</time></trkpt>
<trkpt lat="46.15358147" lon="7.53355793"><ele></ele><time>2014-4-30T14:48:7Z</time></trkpt>
<trkpt lat="46.15357325" lon="7.53362373"><ele></ele><time>2014-4-30T14:48:10Z</time></trkpt>
<trkpt lat="46.15350067" lon="7.53368475"><ele></ele><time>2014-4-30T14:48:13Z</time></trkpt>
<trkpt lat="46.15354040" lon="7.53386202"><ele></ele><time>2014-4-30T14:48:16Z</time></trkpt>
<trkpt lat="46.15347225" lon="7.53396864"><ele></ele><time>2014-4-30T14:48:19Z</time></trkpt>
<trkpt lat="46.15321149" lon="7.53426913"><ele></ele><time>2014-4-30T14:48:22Z</time></trkpt>
<trkpt lat="46.15308543" lon="7.53456719"><ele></ele><time>2014-4-30T14:48:25Z</time></trkpt>
<trkpt lat="46.15294428" lon="7.53501856"><ele></ele><time>2014-4-30T14:48:28Z</time></trkpt>
<trkpt lat="46.15267086" lon="7.53531436"><ele></ele><time>2014-4-30T14:48:31Z</time></trkpt>
<trkpt lat="46.15250247" lon="7.53557210"><ele></ele><time>2014-4-30T14:48:34Z</time></trkpt>
<trkpt lat="46.15224204" lon="7.53619655"><ele></ele><time>2014-4-30T14:48:37Z</time></trkpt>
<trkpt lat="46.15208195" lon="7.53631717"><ele></ele><time>2014-4-30T14:48:40Z</time></trkpt>
<trkpt lat="46.15191062" lon="7.53649126"><ele></ele><time>2014-4-30T14:48:43Z</time></trkpt>
<trkpt lat="46.15183543" lon="7.53663417"><ele></ele><time>2014-4-30T14:48:46Z</time></trkpt>
<trkpt lat="46.15180895" lon="7.53678429"><ele></ele><time>2014-4-30T14:48:49Z</time></trkpt>
<trkpt lat="46.15178187" lon="7.53693097"><ele></ele><time>2014-4-30T14:48:52Z</time></trkpt>
<trkpt lat="46.15173276" lon="7.53710959"><ele></ele><time>2014-4-30T14:48:55Z</time></trkpt>
<trkpt lat="46.15166344" lon="7.53742282"><ele></ele><time>2014-4-30T14:48:58Z</time></trkpt>
<trkpt lat="46.15163326" lon="7.53764695"><ele></ele><time>2014-4-30T14:49:1Z</time></trkpt>
<trkpt lat="46.15161315" lon="7.53815993"><ele></ele><time>2014-4-30T14:49:4Z</time></trkpt>
<trkpt lat="46.15172119" lon="7.53871699"><ele></ele><time>2014-4-30T14:49:7Z</time></trkpt>
<trkpt lat="46.15172504" lon="7.53886904"><ele></ele><time>2014-4-30T14:49:10Z</time></trkpt>
<trkpt lat="46.15170593" lon="7.53911329"><ele></ele><time>2014-4-30T14:49:13Z</time></trkpt>
<trkpt lat="46.15180149" lon="7.53919467"><ele></ele><time>2014-4-30T14:49:16Z</time></trkpt>
<trkpt lat="46.15208765" lon="7.53932392"><ele></ele><time>2014-4-30T14:49:19Z</time></trkpt>
<trkpt lat="46.15223735" lon="7.53974243"><ele></ele><time>2014-4-30T14:49:22Z</time></trkpt>
<trkpt lat="46.15214280" lon="7.54009397"><ele></ele><time>2014-4-30T14:49:25Z</time></trkpt>
<trkpt lat="46.15191204" lon="7.54051650"><ele></ele><time>2014-4-30T14:49:28Z</time></trkpt>
<trkpt lat="46.15168054" lon="7.54073979"><ele></ele><time>2014-4-30T14:49:31Z</time></trkpt>
<trkpt lat="46.15140687" lon="7.54085580"><ele></ele><time>2014-4-30T14:49:34Z</time></trkpt>
<trkpt lat="46.15110110" lon="7.54107289"><ele></ele><time>2014-4-30T14:49:37Z</time></trkpt>
<trkpt lat="46.15091393" lon="7.54116635"><ele></ele><time>2014-4-30T14:49:40Z</time></trkpt>
<trkpt lat="46.15067136" lon="7.54121153"><ele></ele><time>2014-4-30T14:49:43Z</time></trkpt>
<trkpt lat="46.15054898" lon="7.54128026"><ele></ele><time>2014-4-30T14:49:46Z</time></trkpt>
<trkpt lat="46.15028344" lon="7.54142686"><ele></ele><time>2014-4-30T14:49:49Z</time></trkpt>
<trkpt lat="46.15000625" lon="7.54155183"><ele></ele><time>2014-4-30T14:49:52Z</time></trkpt>
<trkpt lat="46.14974113" lon="7.54183489"><ele></ele><time>2014-4-30T14:49:55Z</time></trkpt>
<trkpt lat="46.14956134" lon="7.54211007"><ele></ele><time>2014-4-30T14:49:58Z</time></trkpt>
<trkpt lat="46.14966963" lon="7.54214795"><ele></ele><time>2014-4-30T14:50:1Z</time></trkpt>
<trkpt lat="46.15002838" lon="7.54195307"><ele></ele><time>2014-4-30T14:50:4Z</time></trkpt>
<trkpt lat="46.15017397" lon="7.54191988"><ele></ele><time>2014-4-30T14:50:7Z</time></trkpt>
<trkpt lat="46.15019216" lon="7.54203304"><ele></ele><time>2014-4-30T14:50:10Z</time></trkpt>
<trkpt lat="46.15015402" lon="7.54247325"><ele></ele><time>2014-4-30T14:50:13Z</time></trkpt>
<trkpt lat="46.15020826" lon="7.54259588"><ele></ele><time>2014-4-30T14:50:16Z</time></trkpt>
<trkpt lat="46.15018227" lon="7.54285614"><ele></ele><time>2014-4-30T14:50:19Z</time></trkpt>
<trkpt lat="46.15042912" lon="7.54311129"><ele></ele><time>2014-4-30T14:50:22Z</time></trkpt>
<trkpt lat="46.15071938" lon="7.54326224"><ele></ele><time>2014-4-30T14:50:25Z</time></trkpt>
<trkpt lat="46.15068326" lon="7.54352736"><ele></ele><time>2014-4-30T14:50:28Z</time></trkpt>
<trkpt lat="46.15066918" lon="7.54357355"><ele></ele><time>2014-4-30T14:50:31Z</time></trkpt>
<trkpt lat="46.15062458" lon="7.54357380"><ele></ele><time>2014-4-30T14:50:34Z</time></trkpt>
<trkpt lat="46.15060304" lon="7.54354714"><ele></ele><time>2014-4-30T14:50:37Z</time></trkpt>
<trkpt lat="46.15050766" lon="7.54343240"><ele></ele><time>2014-4-30T14:50:40Z</time></trkpt>
<trkpt lat="46.15049835" lon="7.54350222"><ele></ele><time>2014-4-30T14:50:43Z</time></trkpt>
<trkpt lat="46.15060078" lon="7.54375225"><ele></ele><time>2014-4-30T14:50:46Z</time></trkpt>
<trkpt lat="46.15062970" lon="7.54387362"><ele></ele><time>2014-4-30T14:50:49Z</time></trkpt>
<trkpt lat="46.15051864" lon="7.54398158"><ele></ele><time>2014-4-30T14:50:52Z</time></trkpt>
<trkpt lat="46.15013785" lon="7.54397412"><ele></ele><time>2014-4-30T14:50:55Z</time></trkpt>
<trkpt lat="46.14984926" lon="7.54408007"><ele></ele><time>2014-4-30T14:50:58Z</time></trkpt>
<trkpt lat="46.14970945" lon="7.54423848"><ele></ele><time>2014-4-30T14:51:1Z</time></trkpt>
<trkpt lat="46.14970325" lon="7.54445608"><ele></ele><time>2014-4-30T14:51:4Z</time></trkpt>
<trkpt lat="46.14974826" lon="7.54477258"><ele></ele><time>2014-4-30T14:51:7Z</time></trkpt>
<trkpt lat="46.14951013" lon="7.54493393"><ele></ele><time>2014-4-30T14:51:10Z</time></trkpt>
<trkpt lat="46.14950686" lon="7.54499319"><ele></ele><time>2014-4-30T14:51:13Z</time></trkpt>
<trkpt lat="46.14958866" lon="7.54503242"><ele></ele><time>2014-4-30T14:51:16Z</time></trkpt>
<trkpt lat="46.14965136" lon="7.54502320"><ele></ele><time>2014-4-30T14:51:19Z</time></trkpt>
<trkpt lat="46.14992319" lon="7.54485237"><ele></ele><time>2014-4-30T14:51:22Z</time></trkpt>
<trkpt lat="46.15003735" lon="7.54466118"><ele></ele><time>2014-4-30T14:51:25Z</time></trkpt>
<trkpt lat="46.15006107" lon="7.54467124"><ele></ele><time>2014-4-30T14:51:28Z</time></trkpt>
<trkpt lat="46.15007917" lon="7.54475716"><ele></ele><time>2014-4-30T14:51:31Z</time></trkpt>
<trkpt lat="46.15003525" lon="7.54506896"><ele></ele><time>2014-4-30T14:51:34Z</time></trkpt>
<trkpt lat="46.15002905" lon="7.54524054"><ele></ele><time>2014-4-30T14:51:37Z</time></trkpt>
<trkpt lat="46.14989678" lon="7.54547926"><ele></ele><time>2014-4-30T14:51:40Z</time></trkpt>
<trkpt lat="46.14977743" lon="7.54564128"><ele></ele><time>2014-4-30T14:51:43Z</time></trkpt>
<trkpt lat="46.14966335" lon="7.54587455"><ele></ele><time>2014-4-30T14:51:46Z</time></trkpt>
<trkpt lat="46.14954986" lon="7.54600933"><ele></ele><time>2014-4-30T14:51:49Z</time></trkpt>
<trkpt lat="46.14953980" lon="7.54601578"><ele></ele><time>2014-4-30T14:51:52Z</time></trkpt>
<trkpt lat="46.14930066" lon="7.54615040"><ele></ele><time>2014-4-30T14:51:55Z</time></trkpt>
<trkpt lat="46.14908039" lon="7.54622776"><ele></ele><time>2014-4-30T14:51:58Z</time></trkpt>
<trkpt lat="46.14906723" lon="7.54622122"><ele></ele><time>2014-4-30T14:52:1Z</time></trkpt>
<trkpt lat="46.14889188" lon="7.54616557"><ele></ele><time>2014-4-30T14:52:4Z</time></trkpt>
<trkpt lat="46.14885382" lon="7.54615065"><ele></ele><time>2014-4-30T14:52:7Z</time></trkpt>
<trkpt lat="46.14861988" lon="7.54600438"><ele></ele><time>2014-4-30T14:52:10Z</time></trkpt>
<trkpt lat="46.14842492" lon="7.54600095"><ele></ele><time>2014-4-30T14:52:13Z</time></trkpt>
<trkpt lat="46.14826667" lon="7.54599835"><ele></ele><time>2014-4-30T14:52:16Z</time></trkpt>
<trkpt lat="46.14825502" lon="7.54600103"><ele></ele><time>2014-4-30T14:52:19Z</time></trkpt>
<trkpt lat="46.14824270" lon="7.54609172"><ele></ele><time>2014-4-30T14:52:22Z</time></trkpt>
<trkpt lat="46.14828478" lon="7.54616490"><ele></ele><time>2014-4-30T14:52:25Z</time></trkpt>
<trkpt lat="46.14831403" lon="7.54623363"><ele></ele><time>2014-4-30T14:52:28Z</time></trkpt>
<trkpt lat="46.14835929" lon="7.54633547"><ele></ele><time>2014-4-30T14:52:31Z</time></trkpt>
<trkpt lat="46.14864042" lon="7.54650797"><ele></ele><time>2014-4-30T14:52:34Z</time></trkpt>
<trkpt lat="46.14870848" lon="7.54688733"><ele></ele><time>2014-4-30T14:52:37Z</time></trkpt>
<trkpt lat="46.14858292" lon="7.54729687"><ele></ele><time>2014-4-30T14:52:40Z</time></trkpt>
<trkpt lat="46.14835342" lon="7.54761949"><ele></ele><time>2014-4-30T14:52:43Z</time></trkpt>
<trkpt lat="46.14820724" lon="7.54771865"><ele></ele><time>2014-4-30T14:52:46Z</time></trkpt>
<trkpt lat="46.14815067" lon="7.54776718"><ele></ele><time>2014-4-30T14:52:49Z</time></trkpt>
<trkpt lat="46.14813725" lon="7.54778026"><ele></ele><time>2014-4-30T14:52:52Z</time></trkpt>
<trkpt lat="46.14811907" lon="7.54801218"><ele></ele><time>2014-4-30T14:52:55Z</time></trkpt>
<trkpt lat="46.14805277" lon="7.54825702"><ele></ele><time>2014-4-30T14:52:58Z</time></trkpt>
<trkpt lat="46.14801563" lon="7.54814747"><ele></ele><time>2014-4-30T14:53:1Z</time></trkpt>
<trkpt lat="46.14776149" lon="7.54792124"><ele></ele><time>2014-4-30T14:53:4Z</time></trkpt>
<trkpt lat="46.14762043" lon="7.54787145"><ele></ele><time>2014-4-30T14:53:7Z</time></trkpt>
<trkpt lat="46.14769226" lon="7.54806323"><ele></ele><time>2014-4-30T14:53:10Z</time></trkpt>
<trkpt lat="46.14771456" lon="7.54836255"><ele></ele><time>2014-4-30T14:53:13Z</time></trkpt>
<trkpt lat="46.14772654" lon="7.54872716"><ele></ele><time>2014-4-30T14:53:16Z</time></trkpt>
<trkpt lat="46.14782193" lon="7.54903042"><ele></ele><time>2014-4-30T14:53:19Z</time></trkpt>
<trkpt lat="46.14779217" lon="7.54912463"><ele></ele><time>2014-4-30T14:53:22Z</time></trkpt>
<trkpt lat="46.14767793" lon="7.54941003"><ele></ele><time>2014-4-30T14:53:25Z</time></trkpt>
<trkpt lat="46.14766284" lon="7.54972519"><ele></ele><time>2014-4-30T14:53:28Z</time></trkpt>
<trkpt lat="46.14767047" lon="7.54994748"><ele></ele><time>2014-4-30T14:53:31Z</time></trkpt>
<trkpt lat="46.14765479" lon="7.55042056"><ele></ele><time>2014-4-30T14:53:34Z</time></trkpt>
<trkpt lat="46.14761364" lon="7.55077628"><ele></ele><time>2014-4-30T14:53:37Z</time></trkpt>
<trkpt lat="46.14749042" lon="7.55069808"><ele></ele><time>2014-4-30T14:53:40Z</time></trkpt>
<trkpt lat="46.14744005" lon="7.55043455"><ele></ele><time>2014-4-30T14:53:43Z</time></trkpt>
<trkpt lat="46.14726814" lon="7.55023238"><ele></ele><time>2014-4-30T14:53:46Z</time></trkpt>
<trkpt lat="46.14727132" lon="7.55037119"><ele></ele><time>2014-4-30T14:53:49Z</time></trkpt>
<trkpt lat="46.14730200" lon="7.55053639"><ele></ele><time>2014-4-30T14:53:52Z</time></trkpt>
<trkpt lat="46.14727853" lon="7.55107493"><ele></ele><time>2014-4-30T14:53:55Z</time></trkpt>
<trkpt lat="46.14727073" lon="7.55118809"><ele></ele><time>2014-4-30T14:53:58Z</time></trkpt>
<trkpt lat="46.14723897" lon="7.55147802"><ele></ele><time>2014-4-30T14:54:1Z</time></trkpt>
<trkpt lat="46.14703302" lon="7.55150517"><ele></ele><time>2014-4-30T14:54:4Z</time></trkpt>
<trkpt lat="46.14688022" lon="7.55104769"><ele></ele><time>2014-4-30T14:54:7Z</time></trkpt>
<trkpt lat="46.14683169" lon="7.55087326"><ele></ele><time>2014-4-30T14:54:10Z</time></trkpt>
<trkpt lat="46.14662088" lon="7.55094619"><ele></ele><time>2014-4-30T14:54:13Z</time></trkpt>
<trkpt lat="46.14662734" lon="7.55111198"><ele></ele><time>2014-4-30T14:54:16Z</time></trkpt>
<trkpt lat="46.14666590" lon="7.55146058"><ele></ele><time>2014-4-30T14:54:19Z</time></trkpt>
<trkpt lat="46.14644696" lon="7.55194380"><ele></ele><time>2014-4-30T14:54:22Z</time></trkpt>
<trkpt lat="46.14625862" lon="7.55196006"><ele></ele><time>2014-4-30T14:54:25Z</time></trkpt>
<trkpt lat="46.14618335" lon="7.55187674"><ele></ele><time>2014-4-30T14:54:28Z</time></trkpt>
<trkpt lat="46.14606433" lon="7.55216952"><ele></ele><time>2014-4-30T14:54:31Z</time></trkpt>
<trkpt lat="46.14603356" lon="7.55238393"><ele></ele><time>2014-4-30T14:54:34Z</time></trkpt>
<trkpt lat="46.14598436" lon="7.55261058"><ele></ele><time>2014-4-30T14:54:37Z</time></trkpt>
<trkpt lat="46.14587724" lon="7.55263397"><ele></ele><time>2014-4-30T14:54:40Z</time></trkpt>
<trkpt lat="46.14545538" lon="7.55272348"><ele></ele><time>2014-4-30T14:54:43Z</time></trkpt>
<trkpt lat="46.14544088" lon="7.55326940"><ele></ele><time>2014-4-30T14:54:46Z</time></trkpt>
<trkpt lat="46.14551707" lon="7.55379503"><ele></ele><time>2014-4-30T14:54:49Z</time></trkpt>
<trkpt lat="46.14545957" lon="7.55413609"><ele></ele><time>2014-4-30T14:54:52Z</time></trkpt>
<trkpt lat="46.14535555" lon="7.55413516"><ele></ele><time>2014-4-30T14:54:55Z</time></trkpt>
<trkpt lat="46.14524466" lon="7.55403408"><ele></ele><time>2014-4-30T14:54:58Z</time></trkpt>
<trkpt lat="46.14494693" lon="7.55362395"><ele></ele><time>2014-4-30T14:55:1Z</time></trkpt>
<trkpt lat="46.14480260" lon="7.55345816"><ele></ele><time>2014-4-30T14:55:4Z</time></trkpt>
<trkpt lat="46.14459657" lon="7.55312263"><ele></ele><time>2014-4-30T14:55:7Z</time></trkpt>
<trkpt lat="46.14456656" lon="7.55307678"><ele></ele><time>2014-4-30T14:55:10Z</time></trkpt>
<trkpt lat="46.14455382" lon="7.55325607"><ele></ele><time>2014-4-30T14:55:13Z</time></trkpt>
<trkpt lat="46.14458358" lon="7.55335263"><ele></ele><time>2014-4-30T14:55:16Z</time></trkpt>
<trkpt lat="46.14465734" lon="7.55358799"><ele></ele><time>2014-4-30T14:55:19Z</time></trkpt>
<trkpt lat="46.14469095" lon="7.55370878"><ele></ele><time>2014-4-30T14:55:22Z</time></trkpt>
<trkpt lat="46.14472238" lon="7.55381707"><ele></ele><time>2014-4-30T14:55:25Z</time></trkpt>
<trkpt lat="46.14486094" lon="7.55411052"><ele></ele><time>2014-4-30T14:55:28Z</time></trkpt>
<trkpt lat="46.14494869" lon="7.55467705"><ele></ele><time>2014-4-30T14:55:31Z</time></trkpt>
<trkpt lat="46.14487980" lon="7.55507444"><ele></ele><time>2014-4-30T14:55:34Z</time></trkpt>
<trkpt lat="46.14472272" lon="7.55503924"><ele></ele><time>2014-4-30T14:55:37Z</time></trkpt>
<trkpt lat="46.14466824" lon="7.55487939"><ele></ele><time>2014-4-30T14:55:40Z</time></trkpt>
<trkpt lat="46.14457746" lon="7.55481443"><ele></ele><time>2014-4-30T14:55:43Z</time></trkpt>
<trkpt lat="46.14427554" lon="7.55479608"><ele></ele><time>2014-4-30T14:55:46Z</time></trkpt>
<trkpt lat="46.14407614" lon="7.55493044"><ele></ele><time>2014-4-30T14:55:49Z</time></trkpt>
<trkpt lat="46.14398478" lon="7.55527854"><ele></ele><time>2014-4-30T14:55:52Z</time></trkpt>
<trkpt lat="46.14395753" lon="7.55590048"><ele></ele><time>2014-4-30T14:55:55Z</time></trkpt>
<trkpt lat="46.14393499" lon="7.55623927"><ele></ele><time>2014-4-30T14:55:58Z</time></trkpt>
<trkpt lat="46.14391018" lon="7.55660774"><ele></ele><time>2014-4-30T14:56:1Z</time></trkpt>
<trkpt lat="46.14391739" lon="7.55702994"><ele></ele><time>2014-4-30T14:56:4Z</time></trkpt>
<trkpt lat="46.14392099" lon="7.55715642"><ele></ele><time>2014-4-30T14:56:7Z</time></trkpt>
<trkpt lat="46.14396583" lon="7.55750209"><ele></ele><time>2014-4-30T14:56:10Z</time></trkpt>
<trkpt lat="46.14396013" lon="7.55776805"><ele></ele><time>2014-4-30T14:56:13Z</time></trkpt>
<trkpt lat="46.14382803" lon="7.55763813"><ele></ele><time>2014-4-30T14:56:16Z</time></trkpt>
<trkpt lat="46.14368579" lon="7.55720638"><ele></ele><time>2014-4-30T14:56:19Z</time></trkpt>
<trkpt lat="46.14334264" lon="7.55638579"><ele></ele><time>2014-4-30T14:56:22Z</time></trkpt>
<trkpt lat="46.14319587" lon="7.55604146"><ele></ele><time>2014-4-30T14:56:25Z</time></trkpt>
<trkpt lat="46.14308674" lon="7.55576268"><ele></ele><time>2014-4-30T14:56:28Z</time></trkpt>
<trkpt lat="46.14298096" lon="7.55589444"><ele></ele><time>2014-4-30T14:56:31Z</time></trkpt>
<trkpt lat="46.14296713" lon="7.55601212"><ele></ele><time>2014-4-30T14:56:34Z</time></trkpt>
<trkpt lat="46.14291298" lon="7.55625092"><ele></ele><time>2014-4-30T14:56:37Z</time></trkpt>
<trkpt lat="46.14284618" lon="7.55678720"><ele></ele><time>2014-4-30T14:56:40Z</time></trkpt>
<trkpt lat="46.14287208" lon="7.55698535"><ele></ele><time>2014-4-30T14:56:43Z</time></trkpt>
<trkpt lat="46.14285079" lon="7.55717386"><ele></ele><time>2014-4-30T14:56:46Z</time></trkpt>
<trkpt lat="46.14271726" lon="7.55703916"><ele></ele><time>2014-4-30T14:56:49Z</time></trkpt>
<trkpt lat="46.14258869" lon="7.55690983"><ele></ele><time>2014-4-30T14:56:52Z</time></trkpt>
<trkpt lat="46.14237470" lon="7.55685442"><ele></ele><time>2014-4-30T14:56:55Z</time></trkpt>
<trkpt lat="46.14232499" lon="7.55727544"><ele></ele><time>2014-4-30T14:56:58Z</time></trkpt>
<trkpt lat="46.14221980" lon="7.55759739"><ele></ele><time>2014-4-30T14:57:1Z</time></trkpt>
<trkpt lat="46.14216967" lon="7.55768683"><ele></ele><time>2014-4-30T14:57:4Z</time></trkpt>
<trkpt lat="46.14193909" lon="7.55813149"><ele></ele><time>2014-4-30T14:57:7Z</time></trkpt>
<trkpt lat="46.14184915" lon="7.55832947"><ele></ele><time>2014-4-30T14:57:10Z</time></trkpt>
<trkpt lat="46.14180062" lon="7.55844195"><ele></ele><time>2014-4-30T14:57:13Z</time></trkpt>
<trkpt lat="46.14169794" lon="7.55876197"><ele></ele><time>2014-4-30T14:57:16Z</time></trkpt>
<trkpt lat="46.14160457" lon="7.55890606"><ele></ele><time>2014-4-30T14:57:19Z</time></trkpt>
<trkpt lat="46.14155327" lon="7.55862158"><ele></ele><time>2014-4-30T14:57:22Z</time></trkpt>
<trkpt lat="46.14142276" lon="7.55849786"><ele></ele><time>2014-4-30T14:57:25Z</time></trkpt>
<trkpt lat="46.14095673" lon="7.55841572"><ele></ele><time>2014-4-30T14:57:28Z</time></trkpt>
<trkpt lat="46.14078457" lon="7.55844397"><ele></ele><time>2014-4-30T14:57:31Z</time></trkpt>
<trkpt lat="46.14060838" lon="7.55850239"><ele></ele><time>2014-4-30T14:57:34Z</time></trkpt>
<trkpt lat="46.14042649" lon="7.55855788"><ele></ele><time>2014-4-30T14:57:37Z</time></trkpt>
<trkpt lat="46.14002332" lon="7.55871294"><ele></ele><time>2014-4-30T14:57:40Z</time></trkpt>
<trkpt lat="46.13966357" lon="7.55902282"><ele></ele><time>2014-4-30T14:57:43Z</time></trkpt>
<trkpt lat="46.13947632" lon="7.55919934"><ele></ele><time>2014-4-30T14:57:46Z</time></trkpt>
<trkpt lat="46.13918287" lon="7.55984508"><ele></ele><time>2014-4-30T14:57:49Z</time></trkpt>
<trkpt lat="46.13906812" lon="7.56044975"><ele></ele><time>2014-4-30T14:57:52Z</time></trkpt>
<trkpt lat="46.13886829" lon="7.56074639"><ele></ele><time>2014-4-30T14:57:55Z</time></trkpt>
<trkpt lat="46.13858222" lon="7.56077598"><ele></ele><time>2014-4-30T14:57:58Z</time></trkpt>
<trkpt lat="46.13805542" lon="7.56070775"><ele></ele><time>2014-4-30T14:58:1Z</time></trkpt>
<trkpt lat="46.13769164" lon="7.56045319"><ele></ele><time>2014-4-30T14:58:4Z</time></trkpt>
<trkpt lat="46.13741353" lon="7.56031724"><ele></ele><time>2014-4-30T14:58:7Z</time></trkpt>
<trkpt lat="46.13687810" lon="7.56027315"><ele></ele><time>2014-4-30T14:58:10Z</time></trkpt>
<trkpt lat="46.13655925" lon="7.56041698"><ele></ele><time>2014-4-30T14:58:13Z</time></trkpt>
<trkpt lat="46.13644056" lon="7.56055302"><ele></ele><time>2014-4-30T14:58:16Z</time></trkpt>
<trkpt lat="46.13612775" lon="7.56070943"><ele></ele><time>2014-4-30T14:58:19Z</time></trkpt>
<trkpt lat="46.13595483" lon="7.56070750"><ele></ele><time>2014-4-30T14:58:22Z</time></trkpt>
<trkpt lat="46.13553188" lon="7.56102609"><ele></ele><time>2014-4-30T14:58:25Z</time></trkpt>
<trkpt lat="46.13544823" lon="7.56103473"><ele></ele><time>2014-4-30T14:58:28Z</time></trkpt>
<trkpt lat="46.13499275" lon="7.56145307"><ele></ele><time>2014-4-30T14:58:31Z</time></trkpt>
<trkpt lat="46.13477399" lon="7.56175054"><ele></ele><time>2014-4-30T14:58:34Z</time></trkpt>
<trkpt lat="46.13472554" lon="7.56170972"><ele></ele><time>2014-4-30T14:58:37Z</time></trkpt>
<trkpt lat="46.13420787" lon="7.56142046"><ele></ele><time>2014-4-30T14:58:40Z</time></trkpt>
<trkpt lat="46.13377285" lon="7.56118158"><ele></ele><time>2014-4-30T14:58:43Z</time></trkpt>
<trkpt lat="46.13335116" lon="7.56093155"><ele></ele><time>2014-4-30T14:58:46Z</time></trkpt>
<trkpt lat="46.13310205" lon="7.56072032"><ele></ele><time>2014-4-30T14:58:49Z</time></trkpt>
<trkpt lat="46.13269418" lon="7.56047364"><ele></ele><time>2014-4-30T14:58:52Z</time></trkpt>
<trkpt lat="46.13264046" lon="7.56075167"><ele></ele><time>2014-4-30T14:58:55Z</time></trkpt>
<trkpt lat="46.13258933" lon="7.56106222"><ele></ele><time>2014-4-30T14:58:58Z</time></trkpt>
<trkpt lat="46.13245262" lon="7.56115333"><ele></ele><time>2014-4-30T14:59:1Z</time></trkpt>
<trkpt lat="46.13230049" lon="7.56112643"><ele></ele><time>2014-4-30T14:59:4Z</time></trkpt>
<trkpt lat="46.13213427" lon="7.56104294"><ele></ele><time>2014-4-30T14:59:7Z</time></trkpt>
<trkpt lat="46.13184954" lon="7.56072963"><ele></ele><time>2014-4-30T14:59:10Z</time></trkpt>
<trkpt lat="46.13165433" lon="7.56019444"><ele></ele><time>2014-4-30T14:59:13Z</time></trkpt>
<trkpt lat="46.13140857" lon="7.55912466"><ele></ele><time>2014-4-30T14:59:16Z</time></trkpt>
<trkpt lat="46.13134093" lon="7.55867363"><ele></ele><time>2014-4-30T14:59:19Z</time></trkpt>
<trkpt lat="46.13132735" lon="7.55854832"><ele></ele><time>2014-4-30T14:59:22Z</time></trkpt>
<trkpt lat="46.13134244" lon="7.55820357"><ele></ele><time>2014-4-30T14:59:25Z</time></trkpt>
<trkpt lat="46.13127437" lon="7.55778196"><ele></ele><time>2014-4-30T14:59:28Z</time></trkpt>
<trkpt lat="46.13115535" lon="7.55753227"><ele></ele><time>2014-4-30T14:59:31Z</time></trkpt>
<trkpt lat="46.13115787" lon="7.55754568"><ele></ele><time>2014-4-30T14:59:34Z</time></trkpt>
<trkpt lat="46.13116466" lon="7.55756252"><ele></ele><time>2014-4-30T14:59:37Z</time></trkpt>
<trkpt lat="46.13117178" lon="7.55756085"><ele></ele><time>2014-4-30T14:59:40Z</time></trkpt>
<trkpt lat="46.13117874" lon="7.55756496"><ele></ele><time>2014-4-30T14:59:43Z</time></trkpt>
<trkpt lat="46.13118217" lon="7.55756554"><ele></ele><time>2014-4-30T14:59:46Z</time></trkpt>
<trkpt lat="46.13118343" lon="7.55756143"><ele></ele><time>2014-4-30T14:59:49Z</time></trkpt>
<trkpt lat="46.13119240" lon="7.55757552"><ele></ele><time>2014-4-30T14:59:52Z</time></trkpt>
<trkpt lat="46.13119776" lon="7.55758029"><ele></ele><time>2014-4-30T14:59:55Z</time></trkpt>
<trkpt lat="46.13120824" lon="7.55758499"><ele></ele><time>2014-4-30T14:59:58Z</time></trkpt>
<trkpt lat="46.13120363" lon="7.55758708"><ele></ele><time>2014-4-30T15:0:1Z</time></trkpt>
<trkpt lat="46.13118829" lon="7.55758239"><ele></ele><time>2014-4-30T15:0:4Z</time></trkpt>
<trkpt lat="46.13117807" lon="7.55757778"><ele></ele><time>2014-4-30T15:0:7Z</time></trkpt>
<trkpt lat="46.13091605" lon="7.55775137"><ele></ele><time>2014-4-30T15:0:10Z</time></trkpt>
<trkpt lat="46.13091236" lon="7.55775749"><ele></ele><time>2014-4-30T15:0:13Z</time></trkpt>
<trkpt lat="46.13091362" lon="7.55780803"><ele></ele><time>2014-4-30T15:0:16Z</time></trkpt>
<trkpt lat="46.13091295" lon="7.55780895"><ele></ele><time>2014-4-30T15:0:19Z</time></trkpt>
<trkpt lat="46.13091035" lon="7.55781918"><ele></ele><time>2014-4-30T15:0:22Z</time></trkpt>
<trkpt lat="46.13089057" lon="7.55819578"><ele></ele><time>2014-4-30T15:0:25Z</time></trkpt>
<trkpt lat="46.13059997" lon="7.55840993"><ele></ele><time>2014-4-30T15:0:28Z</time></trkpt>
<trkpt lat="46.13052143" lon="7.55841614"><ele></ele><time>2014-4-30T15:0:31Z</time></trkpt>
<trkpt lat="46.13022806" lon="7.55858939"><ele></ele><time>2014-4-30T15:0:34Z</time></trkpt>
<trkpt lat="46.13019839" lon="7.55867229"><ele></ele><time>2014-4-30T15:0:37Z</time></trkpt>
<trkpt lat="46.13009068" lon="7.55917562"><ele></ele><time>2014-4-30T15:0:40Z</time></trkpt>
<trkpt lat="46.13008163" lon="7.55982254"><ele></ele><time>2014-4-30T15:0:43Z</time></trkpt>
<trkpt lat="46.13008968" lon="7.55994977"><ele></ele><time>2014-4-30T15:0:46Z</time></trkpt>
<trkpt lat="46.13012706" lon="7.56016796"><ele></ele><time>2014-4-30T15:0:49Z</time></trkpt>
<trkpt lat="46.13035874" lon="7.56055864"><ele></ele><time>2014-4-30T15:0:52Z</time></trkpt>
<trkpt lat="46.13044834" lon="7.56077866"><ele></ele><time>2014-4-30T15:0:55Z</time></trkpt>
<trkpt lat="46.13029369" lon="7.56074019"><ele></ele><time>2014-4-30T15:0:58Z</time></trkpt>
<trkpt lat="46.13014399" lon="7.56070683"><ele></ele><time>2014-4-30T15:1:1Z</time></trkpt>
<trkpt lat="46.12989035" lon="7.56044095"><ele></ele><time>2014-4-30T15:1:4Z</time></trkpt>
<trkpt lat="46.12959799" lon="7.56021422"><ele></ele><time>2014-4-30T15:1:7Z</time></trkpt>
<trkpt lat="46.12933673" lon="7.56016050"><ele></ele><time>2014-4-30T15:1:10Z</time></trkpt>
<trkpt lat="46.12904328" lon="7.56049678"><ele></ele><time>2014-4-30T15:1:13Z</time></trkpt>
<trkpt lat="46.12911846" lon="7.56083834"><ele></ele><time>2014-4-30T15:1:16Z</time></trkpt>
<trkpt lat="46.12922776" lon="7.56095493"><ele></ele><time>2014-4-30T15:1:19Z</time></trkpt>
<trkpt lat="46.12969900" lon="7.56129608"><ele></ele><time>2014-4-30T15:1:22Z</time></trkpt>
<trkpt lat="46.12990326" lon="7.56162574"><ele></ele><time>2014-4-30T15:1:25Z</time></trkpt>
<trkpt lat="46.12995246" lon="7.56175725"><ele></ele><time>2014-4-30T15:1:28Z</time></trkpt>
<trkpt lat="46.13006797" lon="7.56201943"><ele></ele><time>2014-4-30T15:1:31Z</time></trkpt>
<trkpt lat="46.13024826" lon="7.56243518"><ele></ele><time>2014-4-30T15:1:34Z</time></trkpt>
<trkpt lat="46.13044239" lon="7.56279225"><ele></ele><time>2014-4-30T15:1:37Z</time></trkpt>
<trkpt lat="46.13087674" lon="7.56313548"><ele></ele><time>2014-4-30T15:1:40Z</time></trkpt>
<trkpt lat="46.13108167" lon="7.56338476"><ele></ele><time>2014-4-30T15:1:43Z</time></trkpt>
<trkpt lat="46.13124344" lon="7.56357713"><ele></ele><time>2014-4-30T15:1:46Z</time></trkpt>
<trkpt lat="46.13132768" lon="7.56358526"><ele></ele><time>2014-4-30T15:1:49Z</time></trkpt>
<trkpt lat="46.13151443" lon="7.56359925"><ele></ele><time>2014-4-30T15:1:52Z</time></trkpt>
<trkpt lat="46.13171342" lon="7.56366665"><ele></ele><time>2014-4-30T15:1:55Z</time></trkpt>
<trkpt lat="46.13189707" lon="7.56377016"><ele></ele><time>2014-4-30T15:1:58Z</time></trkpt>
<trkpt lat="46.13215682" lon="7.56395356"><ele></ele><time>2014-4-30T15:2:1Z</time></trkpt>
<trkpt lat="46.13254666" lon="7.56415908"><ele></ele><time>2014-4-30T15:2:4Z</time></trkpt>
<trkpt lat="46.13283835" lon="7.56431096"><ele></ele><time>2014-4-30T15:2:7Z</time></trkpt>
<trkpt lat="46.13299903" lon="7.56437366"><ele></ele><time>2014-4-30T15:2:10Z</time></trkpt>
<trkpt lat="46.13331394" lon="7.56465127"><ele></ele><time>2014-4-30T15:2:13Z</time></trkpt>
<trkpt lat="46.13346959" lon="7.56471070"><ele></ele><time>2014-4-30T15:2:16Z</time></trkpt>
<trkpt lat="46.13376967" lon="7.56476652"><ele></ele><time>2014-4-30T15:2:19Z</time></trkpt>
<trkpt lat="46.13409924" lon="7.56486056"><ele></ele><time>2014-4-30T15:2:22Z</time></trkpt>
<trkpt lat="46.13430594" lon="7.56491203"><ele></ele><time>2014-4-30T15:2:25Z</time></trkpt>
<trkpt lat="46.13460719" lon="7.56500524"><ele></ele><time>2014-4-30T15:2:28Z</time></trkpt>
<trkpt lat="46.13478933" lon="7.56508159"><ele></ele><time>2014-4-30T15:2:31Z</time></trkpt>
<trkpt lat="46.13502117" lon="7.56520246"><ele></ele><time>2014-4-30T15:2:34Z</time></trkpt>
<trkpt lat="46.13526450" lon="7.56529148"><ele></ele><time>2014-4-30T15:2:37Z</time></trkpt>
<trkpt lat="46.13548544" lon="7.56536080"><ele></ele><time>2014-4-30T15:2:40Z</time></trkpt>
<trkpt lat="46.13555753" lon="7.56540639"><ele></ele><time>2014-4-30T15:2:43Z</time></trkpt>
<trkpt lat="46.13551428" lon="7.56546247"><ele></ele><time>2014-4-30T15:2:46Z</time></trkpt>
<trkpt lat="46.13545124" lon="7.56544436"><ele></ele><time>2014-4-30T15:2:49Z</time></trkpt>
<trkpt lat="46.13530297" lon="7.56541125"><ele></ele><time>2014-4-30T15:2:52Z</time></trkpt>
<trkpt lat="46.13498379" lon="7.56545518"><ele></ele><time>2014-4-30T15:2:55Z</time></trkpt>
<trkpt lat="46.13470232" lon="7.56550337"><ele></ele><time>2014-4-30T15:2:58Z</time></trkpt>
<trkpt lat="46.13445455" lon="7.56549424"><ele></ele><time>2014-4-30T15:3:1Z</time></trkpt>
<trkpt lat="46.13439806" lon="7.56548158"><ele></ele><time>2014-4-30T15:3:4Z</time></trkpt>
<trkpt lat="46.13433444" lon="7.56553707"><ele></ele><time>2014-4-30T15:3:7Z</time></trkpt>
<trkpt lat="46.13440225" lon="7.56559038"><ele></ele><time>2014-4-30T15:3:10Z</time></trkpt>
<trkpt lat="46.13475379" lon="7.56576120"><ele></ele><time>2014-4-30T15:3:13Z</time></trkpt>
<trkpt lat="46.13493676" lon="7.56586120"><ele></ele><time>2014-4-30T15:3:16Z</time></trkpt>
<trkpt lat="46.13512930" lon="7.56601660"><ele></ele><time>2014-4-30T15:3:19Z</time></trkpt>
<trkpt lat="46.13533239" lon="7.56616713"><ele></ele><time>2014-4-30T15:3:22Z</time></trkpt>
<trkpt lat="46.13551302" lon="7.56632606"><ele></ele><time>2014-4-30T15:3:25Z</time></trkpt>
<trkpt lat="46.13579172" lon="7.56648062"><ele></ele><time>2014-4-30T15:3:28Z</time></trkpt>
<trkpt lat="46.13590278" lon="7.56651498"><ele></ele><time>2014-4-30T15:3:31Z</time></trkpt>
<trkpt lat="46.13642958" lon="7.56684959"><ele></ele><time>2014-4-30T15:3:34Z</time></trkpt>
<trkpt lat="46.13684314" lon="7.56705017"><ele></ele><time>2014-4-30T15:3:37Z</time></trkpt>
<trkpt lat="46.13703676" lon="7.56712636"><ele></ele><time>2014-4-30T15:3:40Z</time></trkpt>
<trkpt lat="46.13716350" lon="7.56718327"><ele></ele><time>2014-4-30T15:3:43Z</time></trkpt>
<trkpt lat="46.13732259" lon="7.56728327"><ele></ele><time>2014-4-30T15:3:46Z</time></trkpt>
<trkpt lat="46.13715420" lon="7.56734295"><ele></ele><time>2014-4-30T15:3:49Z</time></trkpt>
<trkpt lat="46.13702293" lon="7.56730188"><ele></ele><time>2014-4-30T15:3:52Z</time></trkpt>
<trkpt lat="46.13694373" lon="7.56745468"><ele></ele><time>2014-4-30T15:3:55Z</time></trkpt>
<trkpt lat="46.13722519" lon="7.56754462"><ele></ele><time>2014-4-30T15:3:58Z</time></trkpt>
<trkpt lat="46.13736567" lon="7.56749282"><ele></ele><time>2014-4-30T15:4:1Z</time></trkpt>
<trkpt lat="46.13769332" lon="7.56733976"><ele></ele><time>2014-4-30T15:4:4Z</time></trkpt>
<trkpt lat="46.13788258" lon="7.56727606"><ele></ele><time>2014-4-30T15:4:7Z</time></trkpt>
<trkpt lat="46.13804284" lon="7.56720574"><ele></ele><time>2014-4-30T15:4:10Z</time></trkpt>
<trkpt lat="46.13830285" lon="7.56727120"><ele></ele><time>2014-4-30T15:4:13Z</time></trkpt>
<trkpt lat="46.13811225" lon="7.56743398"><ele></ele><time>2014-4-30T15:4:16Z</time></trkpt>
<trkpt lat="46.13809339" lon="7.56746884"><ele></ele><time>2014-4-30T15:4:19Z</time></trkpt>
<trkpt lat="46.13829698" lon="7.56746734"><ele></ele><time>2014-4-30T15:4:22Z</time></trkpt>
<trkpt lat="46.13845750" lon="7.56707422"><ele></ele><time>2014-4-30T15:4:25Z</time></trkpt>
<trkpt lat="46.13859789" lon="7.56702226"><ele></ele><time>2014-4-30T15:4:28Z</time></trkpt>
<trkpt lat="46.13863276" lon="7.56702879"><ele></ele><time>2014-4-30T15:4:31Z</time></trkpt>
<trkpt lat="46.13885899" lon="7.56709585"><ele></ele><time>2014-4-30T15:4:34Z</time></trkpt>
<trkpt lat="46.13889528" lon="7.56710666"><ele></ele><time>2014-4-30T15:4:37Z</time></trkpt>
<trkpt lat="46.13895136" lon="7.56715913"><ele></ele><time>2014-4-30T15:4:40Z</time></trkpt>
<trkpt lat="46.13901548" lon="7.56721077"><ele></ele><time>2014-4-30T15:4:43Z</time></trkpt>
<trkpt lat="46.13908740" lon="7.56723415"><ele></ele><time>2014-4-30T15:4:46Z</time></trkpt>
<trkpt lat="46.13924984" lon="7.56716165"><ele></ele><time>2014-4-30T15:4:49Z</time></trkpt>
<trkpt lat="46.13931597" lon="7.56711840"><ele></ele><time>2014-4-30T15:4:52Z</time></trkpt>
<trkpt lat="46.13943592" lon="7.56710214"><ele></ele><time>2014-4-30T15:4:55Z</time></trkpt>
<trkpt lat="46.13956919" lon="7.56712519"><ele></ele><time>2014-4-30T15:4:58Z</time></trkpt>
<trkpt lat="46.13990463" lon="7.56731956"><ele></ele><time>2014-4-30T15:5:1Z</time></trkpt>
<trkpt lat="46.13996264" lon="7.56734613"><ele></ele><time>2014-4-30T15:5:4Z</time></trkpt>
<trkpt lat="46.14007562" lon="7.56737379"><ele></ele><time>2014-4-30T15:5:7Z</time></trkpt>
<trkpt lat="46.14020043" lon="7.56738712"><ele></ele><time>2014-4-30T15:5:10Z</time></trkpt>
<trkpt lat="46.14041207" lon="7.56733566"><ele></ele><time>2014-4-30T15:5:13Z</time></trkpt>
<trkpt lat="46.14048139" lon="7.56731763"><ele></ele><time>2014-4-30T15:5:16Z</time></trkpt>
<trkpt lat="46.14040252" lon="7.56747236"><ele></ele><time>2014-4-30T15:5:19Z</time></trkpt>
<trkpt lat="46.14022817" lon="7.56763422"><ele></ele><time>2014-4-30T15:5:22Z</time></trkpt>
<trkpt lat="46.14016087" lon="7.56768568"><ele></ele><time>2014-4-30T15:5:25Z</time></trkpt>
<trkpt lat="46.13996716" lon="7.56777579"><ele></ele><time>2014-4-30T15:5:28Z</time></trkpt>
<trkpt lat="46.13973490" lon="7.56777436"><ele></ele><time>2014-4-30T15:5:31Z</time></trkpt>
<trkpt lat="46.13968218" lon="7.56776079"><ele></ele><time>2014-4-30T15:5:34Z</time></trkpt>
<trkpt lat="46.13976767" lon="7.56789414"><ele></ele><time>2014-4-30T15:5:37Z</time></trkpt>
<trkpt lat="46.13989382" lon="7.56796279"><ele></ele><time>2014-4-30T15:5:40Z</time></trkpt>
<trkpt lat="46.14019532" lon="7.56803454"><ele></ele><time>2014-4-30T15:5:43Z</time></trkpt>
<trkpt lat="46.14037972" lon="7.56800009"><ele></ele><time>2014-4-30T15:5:46Z</time></trkpt>
<trkpt lat="46.14044988" lon="7.56797763"><ele></ele><time>2014-4-30T15:5:49Z</time></trkpt>
<trkpt lat="46.14045465" lon="7.56803345"><ele></ele><time>2014-4-30T15:5:52Z</time></trkpt>
<trkpt lat="46.14031426" lon="7.56814644"><ele></ele><time>2014-4-30T15:5:55Z</time></trkpt>
<trkpt lat="46.14002466" lon="7.56830133"><ele></ele><time>2014-4-30T15:5:58Z</time></trkpt>
<trkpt lat="46.13975066" lon="7.56832447"><ele></ele><time>2014-4-30T15:6:1Z</time></trkpt>
<trkpt lat="46.13970045" lon="7.56831483"><ele></ele><time>2014-4-30T15:6:4Z</time></trkpt>
<trkpt lat="46.13962619" lon="7.56833008"><ele></ele><time>2014-4-30T15:6:7Z</time></trkpt>
<trkpt lat="46.13966256" lon="7.56838214"><ele></ele><time>2014-4-30T15:6:10Z</time></trkpt>
<trkpt lat="46.13991553" lon="7.56851214"><ele></ele><time>2014-4-30T15:6:13Z</time></trkpt>
<trkpt lat="46.14021242" lon="7.56860275"><ele></ele><time>2014-4-30T15:6:16Z</time></trkpt>
<trkpt lat="46.14036874" lon="7.56857215"><ele></ele><time>2014-4-30T15:6:19Z</time></trkpt>
<trkpt lat="46.14036513" lon="7.56865547"><ele></ele><time>2014-4-30T15:6:22Z</time></trkpt>
<trkpt lat="46.13981746" lon="7.56886980"><ele></ele><time>2014-4-30T15:6:25Z</time></trkpt>
<trkpt lat="46.13972778" lon="7.56888245"><ele></ele><time>2014-4-30T15:6:28Z</time></trkpt>
<trkpt lat="46.13939459" lon="7.56885437"><ele></ele><time>2014-4-30T15:6:31Z</time></trkpt>
<trkpt lat="46.13913274" lon="7.56895496"><ele></ele><time>2014-4-30T15:6:34Z</time></trkpt>
<trkpt lat="46.13902386" lon="7.56901539"><ele></ele><time>2014-4-30T15:6:37Z</time></trkpt>
<trkpt lat="46.13891599" lon="7.56909208"><ele></ele><time>2014-4-30T15:6:40Z</time></trkpt>
<trkpt lat="46.13900819" lon="7.56933918"><ele></ele><time>2014-4-30T15:6:43Z</time></trkpt>
<trkpt lat="46.13913685" lon="7.56938076"><ele></ele><time>2014-4-30T15:6:46Z</time></trkpt>
<trkpt lat="46.13907600" lon="7.56969189"><ele></ele><time>2014-4-30T15:6:49Z</time></trkpt>
<trkpt lat="46.13890526" lon="7.56989658"><ele></ele><time>2014-4-30T15:6:52Z</time></trkpt>
<trkpt lat="46.13867057" lon="7.56995592"><ele></ele><time>2014-4-30T15:6:55Z</time></trkpt>
<trkpt lat="46.13832414" lon="7.56998224"><ele></ele><time>2014-4-30T15:6:58Z</time></trkpt>
<trkpt lat="46.13825633" lon="7.57001719"><ele></ele><time>2014-4-30T15:7:1Z</time></trkpt>
<trkpt lat="46.13799876" lon="7.57016488"><ele></ele><time>2014-4-30T15:7:4Z</time></trkpt>
<trkpt lat="46.13763456" lon="7.57030293"><ele></ele><time>2014-4-30T15:7:7Z</time></trkpt>
<trkpt lat="46.13777655" lon="7.57045297"><ele></ele><time>2014-4-30T15:7:10Z</time></trkpt>
<trkpt lat="46.13790236" lon="7.57053863"><ele></ele><time>2014-4-30T15:7:13Z</time></trkpt>
<trkpt lat="46.13804234" lon="7.57069596"><ele></ele><time>2014-4-30T15:7:16Z</time></trkpt>
<trkpt lat="46.13825683" lon="7.57110986"><ele></ele><time>2014-4-30T15:7:19Z</time></trkpt>
<trkpt lat="46.13834510" lon="7.57125068"><ele></ele><time>2014-4-30T15:7:22Z</time></trkpt>
<trkpt lat="46.13837485" lon="7.57128395"><ele></ele><time>2014-4-30T15:7:25Z</time></trkpt>
<trkpt lat="46.13852774" lon="7.57137163"><ele></ele><time>2014-4-30T15:7:28Z</time></trkpt>
<trkpt lat="46.13856537" lon="7.57138252"><ele></ele><time>2014-4-30T15:7:31Z</time></trkpt>
<trkpt lat="46.13862899" lon="7.57139795"><ele></ele><time>2014-4-30T15:7:34Z</time></trkpt>
<trkpt lat="46.13874198" lon="7.57132502"><ele></ele><time>2014-4-30T15:7:37Z</time></trkpt>
<trkpt lat="46.13893476" lon="7.57119209"><ele></ele><time>2014-4-30T15:7:40Z</time></trkpt>
<trkpt lat="46.13905764" lon="7.57110768"><ele></ele><time>2014-4-30T15:7:43Z</time></trkpt>
<trkpt lat="46.13911187" lon="7.57101607"><ele></ele><time>2014-4-30T15:7:46Z</time></trkpt>
<trkpt lat="46.13914750" lon="7.57079663"><ele></ele><time>2014-4-30T15:7:49Z</time></trkpt>
<trkpt lat="46.13933726" lon="7.57049245"><ele></ele><time>2014-4-30T15:7:52Z</time></trkpt>
<trkpt lat="46.13977849" lon="7.57021844"><ele></ele><time>2014-4-30T15:7:55Z</time></trkpt>
<trkpt lat="46.13981587" lon="7.57022196"><ele></ele><time>2014-4-30T15:7:58Z</time></trkpt>
<trkpt lat="46.13997127" lon="7.57021325"><ele></ele><time>2014-4-30T15:8:1Z</time></trkpt>
<trkpt lat="46.14004025" lon="7.57020487"><ele></ele><time>2014-4-30T15:8:4Z</time></trkpt>
<trkpt lat="46.14026355" lon="7.57031903"><ele></ele><time>2014-4-30T15:8:7Z</time></trkpt>
<trkpt lat="46.14029682" lon="7.57037854"><ele></ele><time>2014-4-30T15:8:10Z</time></trkpt>
<trkpt lat="46.14034938" lon="7.57049077"><ele></ele><time>2014-4-30T15:8:13Z</time></trkpt>
<trkpt lat="46.14050092" lon="7.57054886"><ele></ele><time>2014-4-30T15:8:16Z</time></trkpt>
<trkpt lat="46.14066512" lon="7.57052279"><ele></ele><time>2014-4-30T15:8:19Z</time></trkpt>
<trkpt lat="46.14078457" lon="7.57042925"><ele></ele><time>2014-4-30T15:8:22Z</time></trkpt>
<trkpt lat="46.14083226" lon="7.57036387"><ele></ele><time>2014-4-30T15:8:25Z</time></trkpt>
<trkpt lat="46.14113795" lon="7.57014980"><ele></ele><time>2014-4-30T15:8:28Z</time></trkpt>
<trkpt lat="46.14143115" lon="7.57018223"><ele></ele><time>2014-4-30T15:8:31Z</time></trkpt>
<trkpt lat="46.14178587" lon="7.57024879"><ele></ele><time>2014-4-30T15:8:34Z</time></trkpt>
<trkpt lat="46.14205769" lon="7.57026413"><ele></ele><time>2014-4-30T15:8:37Z</time></trkpt>
<trkpt lat="46.14240697" lon="7.57032213"><ele></ele><time>2014-4-30T15:8:40Z</time></trkpt>
<trkpt lat="46.14253948" lon="7.57036840"><ele></ele><time>2014-4-30T15:8:43Z</time></trkpt>
<trkpt lat="46.14273788" lon="7.57064936"><ele></ele><time>2014-4-30T15:8:46Z</time></trkpt>
<trkpt lat="46.14276747" lon="7.57071247"><ele></ele><time>2014-4-30T15:8:49Z</time></trkpt>
<trkpt lat="46.14276387" lon="7.57076545"><ele></ele><time>2014-4-30T15:8:52Z</time></trkpt>
<trkpt lat="46.14280879" lon="7.57090358"><ele></ele><time>2014-4-30T15:8:55Z</time></trkpt>
<trkpt lat="46.14314885" lon="7.57105387"><ele></ele><time>2014-4-30T15:8:58Z</time></trkpt>
<trkpt lat="46.14352939" lon="7.57102478"><ele></ele><time>2014-4-30T15:9:1Z</time></trkpt>
<trkpt lat="46.14360684" lon="7.57104649"><ele></ele><time>2014-4-30T15:9:4Z</time></trkpt>
<trkpt lat="46.14396860" lon="7.57106988"><ele></ele><time>2014-4-30T15:9:7Z</time></trkpt>
<trkpt lat="46.14413029" lon="7.57103157"><ele></ele><time>2014-4-30T15:9:10Z</time></trkpt>
<trkpt lat="46.14431075" lon="7.57100735"><ele></ele><time>2014-4-30T15:9:13Z</time></trkpt>
<trkpt lat="46.14440597" lon="7.57098556"><ele></ele><time>2014-4-30T15:9:16Z</time></trkpt>
<trkpt lat="46.14460018" lon="7.57095546"><ele></ele><time>2014-4-30T15:9:19Z</time></trkpt>
<trkpt lat="46.14498373" lon="7.57096234"><ele></ele><time>2014-4-30T15:9:22Z</time></trkpt>
<trkpt lat="46.14505992" lon="7.57096427"><ele></ele><time>2014-4-30T15:9:25Z</time></trkpt>
<trkpt lat="46.14520996" lon="7.57100106"><ele></ele><time>2014-4-30T15:9:28Z</time></trkpt>
<trkpt lat="46.14567356" lon="7.57090769"><ele></ele><time>2014-4-30T15:9:31Z</time></trkpt>
<trkpt lat="46.14576115" lon="7.57087818"><ele></ele><time>2014-4-30T15:9:34Z</time></trkpt>
<trkpt lat="46.14579912" lon="7.57087483"><ele></ele><time>2014-4-30T15:9:37Z</time></trkpt>
<trkpt lat="46.14609886" lon="7.57088288"><ele></ele><time>2014-4-30T15:9:40Z</time></trkpt>
<trkpt lat="46.14644009" lon="7.57066905"><ele></ele><time>2014-4-30T15:9:43Z</time></trkpt>
<trkpt lat="46.14672842" lon="7.57070275"><ele></ele><time>2014-4-30T15:9:46Z</time></trkpt>
<trkpt lat="46.14683043" lon="7.57066243"><ele></ele><time>2014-4-30T15:9:49Z</time></trkpt>
<trkpt lat="46.14696982" lon="7.57063628"><ele></ele><time>2014-4-30T15:9:52Z</time></trkpt>
<trkpt lat="46.14700109" lon="7.57061147"><ele></ele><time>2014-4-30T15:9:55Z</time></trkpt>
<trkpt lat="46.14706454" lon="7.57056445"><ele></ele><time>2014-4-30T15:9:58Z</time></trkpt>
<trkpt lat="46.14713578" lon="7.57054584"><ele></ele><time>2014-4-30T15:10:1Z</time></trkpt>
<trkpt lat="46.14725414" lon="7.57044316"><ele></ele><time>2014-4-30T15:10:4Z</time></trkpt>
<trkpt lat="46.14729093" lon="7.57041056"><ele></ele><time>2014-4-30T15:10:7Z</time></trkpt>
<trkpt lat="46.14745212" lon="7.57027142"><ele></ele><time>2014-4-30T15:10:10Z</time></trkpt>
<trkpt lat="46.14759075" lon="7.57022683"><ele></ele><time>2014-4-30T15:10:13Z</time></trkpt>
<trkpt lat="46.14766552" lon="7.57017310"><ele></ele><time>2014-4-30T15:10:16Z</time></trkpt>
<trkpt lat="46.14769243" lon="7.57015809"><ele></ele><time>2014-4-30T15:10:19Z</time></trkpt>
<trkpt lat="46.14777599" lon="7.57003195"><ele></ele><time>2014-4-30T15:10:22Z</time></trkpt>
<trkpt lat="46.14780416" lon="7.57000814"><ele></ele><time>2014-4-30T15:10:25Z</time></trkpt>
<trkpt lat="46.14782989" lon="7.57000688"><ele></ele><time>2014-4-30T15:10:28Z</time></trkpt>
<trkpt lat="46.14794447" lon="7.56998442"><ele></ele><time>2014-4-30T15:10:31Z</time></trkpt>
<trkpt lat="46.14796442" lon="7.56997487"><ele></ele><time>2014-4-30T15:10:34Z</time></trkpt>
<trkpt lat="46.14801270" lon="7.56997688"><ele></ele><time>2014-4-30T15:10:37Z</time></trkpt>
<trkpt lat="46.14806039" lon="7.57000295"><ele></ele><time>2014-4-30T15:10:40Z</time></trkpt>
<trkpt lat="46.14810188" lon="7.56995399"><ele></ele><time>2014-4-30T15:10:43Z</time></trkpt>
<trkpt lat="46.14811253" lon="7.56987445"><ele></ele><time>2014-4-30T15:10:46Z</time></trkpt>
<trkpt lat="46.14826064" lon="7.56992533"><ele></ele><time>2014-4-30T15:10:49Z</time></trkpt>
<trkpt lat="46.14834244" lon="7.56991150"><ele></ele><time>2014-4-30T15:10:52Z</time></trkpt>
<trkpt lat="46.14843825" lon="7.56990496"><ele></ele><time>2014-4-30T15:10:55Z</time></trkpt>
<trkpt lat="46.14870270" lon="7.56969273"><ele></ele><time>2014-4-30T15:10:58Z</time></trkpt>
<trkpt lat="46.14886774" lon="7.56963297"><ele></ele><time>2014-4-30T15:11:1Z</time></trkpt>
<trkpt lat="46.14901274" lon="7.56961017"><ele></ele><time>2014-4-30T15:11:4Z</time></trkpt>
<trkpt lat="46.14904594" lon="7.56960237"><ele></ele><time>2014-4-30T15:11:7Z</time></trkpt>
<trkpt lat="46.14926336" lon="7.56940540"><ele></ele><time>2014-4-30T15:11:10Z</time></trkpt>
<trkpt lat="46.14934257" lon="7.56918554"><ele></ele><time>2014-4-30T15:11:13Z</time></trkpt>
<trkpt lat="46.14943586" lon="7.56901924"><ele></ele><time>2014-4-30T15:11:16Z</time></trkpt>
<trkpt lat="46.14963862" lon="7.56891103"><ele></ele><time>2014-4-30T15:11:19Z</time></trkpt>
<trkpt lat="46.14988564" lon="7.56878279"><ele></ele><time>2014-4-30T15:11:22Z</time></trkpt>
<trkpt lat="46.15010868" lon="7.56874943"><ele></ele><time>2014-4-30T15:11:25Z</time></trkpt>
<trkpt lat="46.15015889" lon="7.56867148"><ele></ele><time>2014-4-30T15:11:28Z</time></trkpt>
<trkpt lat="46.15025855" lon="7.56846654"><ele></ele><time>2014-4-30T15:11:31Z</time></trkpt>
<trkpt lat="46.15048067" lon="7.56847107"><ele></ele><time>2014-4-30T15:11:34Z</time></trkpt>
<trkpt lat="46.15077236" lon="7.56847174"><ele></ele><time>2014-4-30T15:11:37Z</time></trkpt>
<trkpt lat="46.15103488" lon="7.56832732"><ele></ele><time>2014-4-30T15:11:40Z</time></trkpt>
<trkpt lat="46.15116505" lon="7.56831659"><ele></ele><time>2014-4-30T15:11:43Z</time></trkpt>
<trkpt lat="46.15125113" lon="7.56838247"><ele></ele><time>2014-4-30T15:11:46Z</time></trkpt>
<trkpt lat="46.15141349" lon="7.56836822"><ele></ele><time>2014-4-30T15:11:49Z</time></trkpt>
<trkpt lat="46.15147057" lon="7.56825549"><ele></ele><time>2014-4-30T15:11:52Z</time></trkpt>
<trkpt lat="46.15155523" lon="7.56822992"><ele></ele><time>2014-4-30T15:11:55Z</time></trkpt>
<trkpt lat="46.15163444" lon="7.56824040"><ele></ele><time>2014-4-30T15:11:58Z</time></trkpt>
<trkpt lat="46.15172806" lon="7.56829597"><ele></ele><time>2014-4-30T15:12:1Z</time></trkpt>
<trkpt lat="46.15195018" lon="7.56833763"><ele></ele><time>2014-4-30T15:12:4Z</time></trkpt>
<trkpt lat="46.15214028" lon="7.56842799"><ele></ele><time>2014-4-30T15:12:7Z</time></trkpt>
<trkpt lat="46.15241714" lon="7.56845229"><ele></ele><time>2014-4-30T15:12:10Z</time></trkpt>
<trkpt lat="46.15297789" lon="7.56834995"><ele></ele><time>2014-4-30T15:12:13Z</time></trkpt>
<trkpt lat="46.15321602" lon="7.56831508"><ele></ele><time>2014-4-30T15:12:16Z</time></trkpt>
<trkpt lat="46.15350109" lon="7.56812372"><ele></ele><time>2014-4-30T15:12:19Z</time></trkpt>
<trkpt lat="46.15369219" lon="7.56800193"><ele></ele><time>2014-4-30T15:12:22Z</time></trkpt>
<trkpt lat="46.15383888" lon="7.56781954"><ele></ele><time>2014-4-30T15:12:25Z</time></trkpt>
<trkpt lat="46.15389906" lon="7.56767814"><ele></ele><time>2014-4-30T15:12:28Z</time></trkpt>
<trkpt lat="46.15415068" lon="7.56746910"><ele></ele><time>2014-4-30T15:12:31Z</time></trkpt>
<trkpt lat="46.15420743" lon="7.56738905"><ele></ele><time>2014-4-30T15:12:34Z</time></trkpt>
<trkpt lat="46.15430558" lon="7.56730163"><ele></ele><time>2014-4-30T15:12:37Z</time></trkpt>
<trkpt lat="46.15433525" lon="7.56727028"><ele></ele><time>2014-4-30T15:12:40Z</time></trkpt>
<trkpt lat="46.15450834" lon="7.56718646"><ele></ele><time>2014-4-30T15:12:43Z</time></trkpt>
<trkpt lat="46.15507118" lon="7.56680248"><ele></ele><time>2014-4-30T15:12:46Z</time></trkpt>
<trkpt lat="46.15511963" lon="7.56675546"><ele></ele><time>2014-4-30T15:12:49Z</time></trkpt>
<trkpt lat="46.15529079" lon="7.56662219"><ele></ele><time>2014-4-30T15:12:52Z</time></trkpt>
<trkpt lat="46.15533052" lon="7.56658556"><ele></ele><time>2014-4-30T15:12:55Z</time></trkpt>
<trkpt lat="46.15547804" lon="7.56647089"><ele></ele><time>2014-4-30T15:12:58Z</time></trkpt>
<trkpt lat="46.15556790" lon="7.56638045"><ele></ele><time>2014-4-30T15:13:1Z</time></trkpt>
<trkpt lat="46.15568893" lon="7.56613822"><ele></ele><time>2014-4-30T15:13:4Z</time></trkpt>
<trkpt lat="46.15582706" lon="7.56589330"><ele></ele><time>2014-4-30T15:13:7Z</time></trkpt>
<trkpt lat="46.15599688" lon="7.56568065"><ele></ele><time>2014-4-30T15:13:10Z</time></trkpt>
<trkpt lat="46.15629142" lon="7.56544227"><ele></ele><time>2014-4-30T15:13:13Z</time></trkpt>
<trkpt lat="46.15638915" lon="7.56531847"><ele></ele><time>2014-4-30T15:13:16Z</time></trkpt>
<trkpt lat="46.15646937" lon="7.56506332"><ele></ele><time>2014-4-30T15:13:19Z</time></trkpt>
<trkpt lat="46.15656853" lon="7.56473685"><ele></ele><time>2014-4-30T15:13:22Z</time></trkpt>
<trkpt lat="46.15669560" lon="7.56436494"><ele></ele><time>2014-4-30T15:13:25Z</time></trkpt>
<trkpt lat="46.15677238" lon="7.56418716"><ele></ele><time>2014-4-30T15:13:28Z</time></trkpt>
<trkpt lat="46.15679936" lon="7.56408826"><ele></ele><time>2014-4-30T15:13:31Z</time></trkpt>
<trkpt lat="46.15681537" lon="7.56403847"><ele></ele><time>2014-4-30T15:13:34Z</time></trkpt>
<trkpt lat="46.15684706" lon="7.56392850"><ele></ele><time>2014-4-30T15:13:37Z</time></trkpt>
<trkpt lat="46.15690649" lon="7.56390679"><ele></ele><time>2014-4-30T15:13:40Z</time></trkpt>
<trkpt lat="46.15688805" lon="7.56399513"><ele></ele><time>2014-4-30T15:13:43Z</time></trkpt>
<trkpt lat="46.15684245" lon="7.56421155"><ele></ele><time>2014-4-30T15:13:46Z</time></trkpt>
<trkpt lat="46.15680632" lon="7.56442043"><ele></ele><time>2014-4-30T15:13:49Z</time></trkpt>
<trkpt lat="46.15676383" lon="7.56464263"><ele></ele><time>2014-4-30T15:13:52Z</time></trkpt>
<trkpt lat="46.15676416" lon="7.56469754"><ele></ele><time>2014-4-30T15:13:55Z</time></trkpt>
<trkpt lat="46.15692560" lon="7.56472754"><ele></ele><time>2014-4-30T15:13:58Z</time></trkpt>
<trkpt lat="46.15700087" lon="7.56464406"><ele></ele><time>2014-4-30T15:14:1Z</time></trkpt>
<trkpt lat="46.15714034" lon="7.56445857"><ele></ele><time>2014-4-30T15:14:4Z</time></trkpt>
<trkpt lat="46.15721318" lon="7.56433795"><ele></ele><time>2014-4-30T15:14:7Z</time></trkpt>
<trkpt lat="46.15725718" lon="7.56426796"><ele></ele><time>2014-4-30T15:14:10Z</time></trkpt>
<trkpt lat="46.15732047" lon="7.56419295"><ele></ele><time>2014-4-30T15:14:13Z</time></trkpt>
<trkpt lat="46.15743480" lon="7.56407065"><ele></ele><time>2014-4-30T15:14:16Z</time></trkpt>
<trkpt lat="46.15758969" lon="7.56391643"><ele></ele><time>2014-4-30T15:14:19Z</time></trkpt>
<trkpt lat="46.15774627" lon="7.56378734"><ele></ele><time>2014-4-30T15:14:22Z</time></trkpt>
<trkpt lat="46.15777653" lon="7.56375147"><ele></ele><time>2014-4-30T15:14:25Z</time></trkpt>
<trkpt lat="46.15790167" lon="7.56360797"><ele></ele><time>2014-4-30T15:14:28Z</time></trkpt>
<trkpt lat="46.15802815" lon="7.56345710"><ele></ele><time>2014-4-30T15:14:31Z</time></trkpt>
<trkpt lat="46.15810786" lon="7.56338468"><ele></ele><time>2014-4-30T15:14:34Z</time></trkpt>
<trkpt lat="46.15827190" lon="7.56325250"><ele></ele><time>2014-4-30T15:14:37Z</time></trkpt>
<trkpt lat="46.15844607" lon="7.56310179"><ele></ele><time>2014-4-30T15:14:40Z</time></trkpt>
<trkpt lat="46.15847734" lon="7.56307279"><ele></ele><time>2014-4-30T15:14:43Z</time></trkpt>
<trkpt lat="46.15853425" lon="7.56302099"><ele></ele><time>2014-4-30T15:14:46Z</time></trkpt>
<trkpt lat="46.15874824" lon="7.56286693"><ele></ele><time>2014-4-30T15:14:49Z</time></trkpt>
<trkpt lat="46.15887942" lon="7.56273994"><ele></ele><time>2014-4-30T15:14:52Z</time></trkpt>
<trkpt lat="46.15901504" lon="7.56266953"><ele></ele><time>2014-4-30T15:14:55Z</time></trkpt>
<trkpt lat="46.15904865" lon="7.56264389"><ele></ele><time>2014-4-30T15:14:58Z</time></trkpt>
<trkpt lat="46.15917748" lon="7.56253174"><ele></ele><time>2014-4-30T15:15:1Z</time></trkpt>
<trkpt lat="46.15920346" lon="7.56249963"><ele></ele><time>2014-4-30T15:15:4Z</time></trkpt>
<trkpt lat="46.15925233" lon="7.56244507"><ele></ele><time>2014-4-30T15:15:7Z</time></trkpt>
<trkpt lat="46.15933372" lon="7.56238363"><ele></ele><time>2014-4-30T15:15:10Z</time></trkpt>
<trkpt lat="46.15942223" lon="7.56231733"><ele></ele><time>2014-4-30T15:15:13Z</time></trkpt>
<trkpt lat="46.15955785" lon="7.56223493"><ele></ele><time>2014-4-30T15:15:16Z</time></trkpt>
<trkpt lat="46.15948903" lon="7.56244968"><ele></ele><time>2014-4-30T15:15:19Z</time></trkpt>
<trkpt lat="46.15942609" lon="7.56261815"><ele></ele><time>2014-4-30T15:15:22Z</time></trkpt>
<trkpt lat="46.15937194" lon="7.56279300"><ele></ele><time>2014-4-30T15:15:25Z</time></trkpt>
<trkpt lat="46.15933112" lon="7.56288537"><ele></ele><time>2014-4-30T15:15:28Z</time></trkpt>
<trkpt lat="46.15946825" lon="7.56286534"><ele></ele><time>2014-4-30T15:15:31Z</time></trkpt>
<trkpt lat="46.15954997" lon="7.56282158"><ele></ele><time>2014-4-30T15:15:34Z</time></trkpt>
<trkpt lat="46.15966086" lon="7.56276827"><ele></ele><time>2014-4-30T15:15:37Z</time></trkpt>
<trkpt lat="46.15974644" lon="7.56272159"><ele></ele><time>2014-4-30T15:15:40Z</time></trkpt>
<trkpt lat="46.15985272" lon="7.56272913"><ele></ele><time>2014-4-30T15:15:43Z</time></trkpt>
<trkpt lat="46.15980210" lon="7.56281094"><ele></ele><time>2014-4-30T15:15:46Z</time></trkpt>
<trkpt lat="46.15975432" lon="7.56286542"><ele></ele><time>2014-4-30T15:15:49Z</time></trkpt>
<trkpt lat="46.15967335" lon="7.56300456"><ele></ele><time>2014-4-30T15:15:52Z</time></trkpt>
<trkpt lat="46.15964670" lon="7.56311319"><ele></ele><time>2014-4-30T15:15:55Z</time></trkpt>
<trkpt lat="46.15960093" lon="7.56326473"><ele></ele><time>2014-4-30T15:15:58Z</time></trkpt>
<trkpt lat="46.15963329" lon="7.56331377"><ele></ele><time>2014-4-30T15:16:1Z</time></trkpt>
<trkpt lat="46.15977008" lon="7.56318938"><ele></ele><time>2014-4-30T15:16:4Z</time></trkpt>
<trkpt lat="46.15993059" lon="7.56317220"><ele></ele><time>2014-4-30T15:16:7Z</time></trkpt>
<trkpt lat="46.16007719" lon="7.56315367"><ele></ele><time>2014-4-30T15:16:10Z</time></trkpt>
<trkpt lat="46.16006613" lon="7.56319860"><ele></ele><time>2014-4-30T15:16:13Z</time></trkpt>
<trkpt lat="46.16000586" lon="7.56326993"><ele></ele><time>2014-4-30T15:16:16Z</time></trkpt>
<trkpt lat="46.15995104" lon="7.56334780"><ele></ele><time>2014-4-30T15:16:19Z</time></trkpt>
<trkpt lat="46.15987058" lon="7.56361116"><ele></ele><time>2014-4-30T15:16:22Z</time></trkpt>
<trkpt lat="46.15985826" lon="7.56366212"><ele></ele><time>2014-4-30T15:16:25Z</time></trkpt>
<trkpt lat="46.15975432" lon="7.56384585"><ele></ele><time>2014-4-30T15:16:28Z</time></trkpt>
<trkpt lat="46.15988013" lon="7.56386664"><ele></ele><time>2014-4-30T15:16:31Z</time></trkpt>
<trkpt lat="46.15991668" lon="7.56385733"><ele></ele><time>2014-4-30T15:16:34Z</time></trkpt>
<trkpt lat="46.16005456" lon="7.56379975"><ele></ele><time>2014-4-30T15:16:37Z</time></trkpt>
<trkpt lat="46.16009312" lon="7.56378056"><ele></ele><time>2014-4-30T15:16:40Z</time></trkpt>
<trkpt lat="46.16028892" lon="7.56370294"><ele></ele><time>2014-4-30T15:16:43Z</time></trkpt>
<trkpt lat="46.16032915" lon="7.56370998"><ele></ele><time>2014-4-30T15:16:46Z</time></trkpt>
<trkpt lat="46.16036804" lon="7.56372062"><ele></ele><time>2014-4-30T15:16:49Z</time></trkpt>
<trkpt lat="46.16035564" lon="7.56387753"><ele></ele><time>2014-4-30T15:16:52Z</time></trkpt>
<trkpt lat="46.16023905" lon="7.56417098"><ele></ele><time>2014-4-30T15:16:55Z</time></trkpt>
<trkpt lat="46.16018792" lon="7.56428154"><ele></ele><time>2014-4-30T15:16:58Z</time></trkpt>
<trkpt lat="46.16007392" lon="7.56454255"><ele></ele><time>2014-4-30T15:17:1Z</time></trkpt>
<trkpt lat="46.15999756" lon="7.56474146"><ele></ele><time>2014-4-30T15:17:4Z</time></trkpt>
<trkpt lat="46.15996278" lon="7.56494673"><ele></ele><time>2014-4-30T15:17:7Z</time></trkpt>
<trkpt lat="46.15992062" lon="7.56508419"><ele></ele><time>2014-4-30T15:17:10Z</time></trkpt>
<trkpt lat="46.15989137" lon="7.56519777"><ele></ele><time>2014-4-30T15:17:13Z</time></trkpt>
<trkpt lat="46.15985557" lon="7.56534135"><ele></ele><time>2014-4-30T15:17:16Z</time></trkpt>
<trkpt lat="46.15976882" lon="7.56560354"><ele></ele><time>2014-4-30T15:17:19Z</time></trkpt>
<trkpt lat="46.15987343" lon="7.56579297"><ele></ele><time>2014-4-30T15:17:22Z</time></trkpt>
<trkpt lat="46.15995825" lon="7.56587553"><ele></ele><time>2014-4-30T15:17:25Z</time></trkpt>
<trkpt lat="46.16024978" lon="7.56606957"><ele></ele><time>2014-4-30T15:17:28Z</time></trkpt>
<trkpt lat="46.16043535" lon="7.56615414"><ele></ele><time>2014-4-30T15:17:31Z</time></trkpt>
<trkpt lat="46.16070667" lon="7.56620184"><ele></ele><time>2014-4-30T15:17:34Z</time></trkpt>
<trkpt lat="46.16086920" lon="7.56622019"><ele></ele><time>2014-4-30T15:17:37Z</time></trkpt>
<trkpt lat="46.16109459" lon="7.56626688"><ele></ele><time>2014-4-30T15:17:40Z</time></trkpt>
<trkpt lat="46.16133054" lon="7.56628272"><ele></ele><time>2014-4-30T15:17:43Z</time></trkpt>
<trkpt lat="46.16143749" lon="7.56630284"><ele></ele><time>2014-4-30T15:17:46Z</time></trkpt>
<trkpt lat="46.16154855" lon="7.56632078"><ele></ele><time>2014-4-30T15:17:49Z</time></trkpt>
<trkpt lat="46.16171594" lon="7.56632589"><ele></ele><time>2014-4-30T15:17:52Z</time></trkpt>
<trkpt lat="46.16186849" lon="7.56633620"><ele></ele><time>2014-4-30T15:17:55Z</time></trkpt>
<trkpt lat="46.16203872" lon="7.56637844"><ele></ele><time>2014-4-30T15:17:58Z</time></trkpt>
<trkpt lat="46.16227518" lon="7.56644365"><ele></ele><time>2014-4-30T15:18:1Z</time></trkpt>
<trkpt lat="46.16242739" lon="7.56649705"><ele></ele><time>2014-4-30T15:18:4Z</time></trkpt>
<trkpt lat="46.16263359" lon="7.56662562"><ele></ele><time>2014-4-30T15:18:7Z</time></trkpt>
<trkpt lat="46.16269025" lon="7.56663904"><ele></ele><time>2014-4-30T15:18:10Z</time></trkpt>
<trkpt lat="46.16279435" lon="7.56665999"><ele></ele><time>2014-4-30T15:18:13Z</time></trkpt>
<trkpt lat="46.16292779" lon="7.56667055"><ele></ele><time>2014-4-30T15:18:16Z</time></trkpt>
<trkpt lat="46.16300164" lon="7.56666929"><ele></ele><time>2014-4-30T15:18:19Z</time></trkpt>
<trkpt lat="46.16314740" lon="7.56663376"><ele></ele><time>2014-4-30T15:18:22Z</time></trkpt>
<trkpt lat="46.16335435" lon="7.56657835"><ele></ele><time>2014-4-30T15:18:25Z</time></trkpt>
<trkpt lat="46.16361553" lon="7.56653518"><ele></ele><time>2014-4-30T15:18:28Z</time></trkpt>
<trkpt lat="46.16374536" lon="7.56650425"><ele></ele><time>2014-4-30T15:18:31Z</time></trkpt>
<trkpt lat="46.16381485" lon="7.56648598"><ele></ele><time>2014-4-30T15:18:34Z</time></trkpt>
<trkpt lat="46.16407955" lon="7.56647618"><ele></ele><time>2014-4-30T15:18:37Z</time></trkpt>
<trkpt lat="46.16434827" lon="7.56649084"><ele></ele><time>2014-4-30T15:18:40Z</time></trkpt>
<trkpt lat="46.16460820" lon="7.56648422"><ele></ele><time>2014-4-30T15:18:43Z</time></trkpt>
<trkpt lat="46.16476142" lon="7.56646402"><ele></ele><time>2014-4-30T15:18:46Z</time></trkpt>
<trkpt lat="46.16487877" lon="7.56648213"><ele></ele><time>2014-4-30T15:18:49Z</time></trkpt>
<trkpt lat="46.16501908" lon="7.56647215"><ele></ele><time>2014-4-30T15:18:52Z</time></trkpt>
<trkpt lat="46.16506074" lon="7.56648338"><ele></ele><time>2014-4-30T15:18:55Z</time></trkpt>
<trkpt lat="46.16519879" lon="7.56657726"><ele></ele><time>2014-4-30T15:18:58Z</time></trkpt>
<trkpt lat="46.16532133" lon="7.56667625"><ele></ele><time>2014-4-30T15:19:1Z</time></trkpt>
<trkpt lat="46.16543029" lon="7.56677063"><ele></ele><time>2014-4-30T15:19:4Z</time></trkpt>
<trkpt lat="46.16582584" lon="7.56684238"><ele></ele><time>2014-4-30T15:19:7Z</time></trkpt>
<trkpt lat="46.16625449" lon="7.56707188"><ele></ele><time>2014-4-30T15:19:10Z</time></trkpt>
<trkpt lat="46.16640008" lon="7.56713382"><ele></ele><time>2014-4-30T15:19:13Z</time></trkpt>
<trkpt lat="46.16655573" lon="7.56720750"><ele></ele><time>2014-4-30T15:19:16Z</time></trkpt>
<trkpt lat="46.16676302" lon="7.56735066"><ele></ele><time>2014-4-30T15:19:19Z</time></trkpt>
<trkpt lat="46.16701925" lon="7.56763229"><ele></ele><time>2014-4-30T15:19:22Z</time></trkpt>
<trkpt lat="46.16712889" lon="7.56776732"><ele></ele><time>2014-4-30T15:19:25Z</time></trkpt>
<trkpt lat="46.16723986" lon="7.56789255"><ele></ele><time>2014-4-30T15:19:28Z</time></trkpt>
<trkpt lat="46.16739677" lon="7.56809162"><ele></ele><time>2014-4-30T15:19:31Z</time></trkpt>
<trkpt lat="46.16750414" lon="7.56820897"><ele></ele><time>2014-4-30T15:19:34Z</time></trkpt>
<trkpt lat="46.16769190" lon="7.56838893"><ele></ele><time>2014-4-30T15:19:37Z</time></trkpt>
<trkpt lat="46.16774177" lon="7.56844056"><ele></ele><time>2014-4-30T15:19:40Z</time></trkpt>
<trkpt lat="46.16784906" lon="7.56853284"><ele></ele><time>2014-4-30T15:19:43Z</time></trkpt>
<trkpt lat="46.16789474" lon="7.56856536"><ele></ele><time>2014-4-30T15:19:46Z</time></trkpt>
<trkpt lat="46.16809406" lon="7.56878816"><ele></ele><time>2014-4-30T15:19:49Z</time></trkpt>
<trkpt lat="46.16814989" lon="7.56884725"><ele></ele><time>2014-4-30T15:19:52Z</time></trkpt>
<trkpt lat="46.16827662" lon="7.56895747"><ele></ele><time>2014-4-30T15:19:55Z</time></trkpt>
<trkpt lat="46.16839346" lon="7.56905168"><ele></ele><time>2014-4-30T15:19:58Z</time></trkpt>
<trkpt lat="46.16857770" lon="7.56918789"><ele></ele><time>2014-4-30T15:20:1Z</time></trkpt>
<trkpt lat="46.16881457" lon="7.56930037"><ele></ele><time>2014-4-30T15:20:4Z</time></trkpt>
<trkpt lat="46.16898414" lon="7.56936667"><ele></ele><time>2014-4-30T15:20:7Z</time></trkpt>
<trkpt lat="46.16916276" lon="7.56942459"><ele></ele><time>2014-4-30T15:20:10Z</time></trkpt>
<trkpt lat="46.16928597" lon="7.56946072"><ele></ele><time>2014-4-30T15:20:13Z</time></trkpt>
<trkpt lat="46.16961085" lon="7.56947983"><ele></ele><time>2014-4-30T15:20:16Z</time></trkpt>
<trkpt lat="46.16978830" lon="7.56948167"><ele></ele><time>2014-4-30T15:20:19Z</time></trkpt>
<trkpt lat="46.17001662" lon="7.56941454"><ele></ele><time>2014-4-30T15:20:22Z</time></trkpt>
<trkpt lat="46.17020790" lon="7.56947924"><ele></ele><time>2014-4-30T15:20:25Z</time></trkpt>
<trkpt lat="46.17025450" lon="7.56956206"><ele></ele><time>2014-4-30T15:20:28Z</time></trkpt>
<trkpt lat="46.17050554" lon="7.56990823"><ele></ele><time>2014-4-30T15:20:31Z</time></trkpt>
<trkpt lat="46.17063965" lon="7.57001074"><ele></ele><time>2014-4-30T15:20:34Z</time></trkpt>
<trkpt lat="46.17089890" lon="7.57021048"><ele></ele><time>2014-4-30T15:20:37Z</time></trkpt>
<trkpt lat="46.17099294" lon="7.57036387"><ele></ele><time>2014-4-30T15:20:40Z</time></trkpt>
<trkpt lat="46.17110878" lon="7.57085413"><ele></ele><time>2014-4-30T15:20:43Z</time></trkpt>
<trkpt lat="46.17144573" lon="7.57129242"><ele></ele><time>2014-4-30T15:20:46Z</time></trkpt>
<trkpt lat="46.17161865" lon="7.57142929"><ele></ele><time>2014-4-30T15:20:49Z</time></trkpt>
<trkpt lat="46.17242550" lon="7.57196129"><ele></ele><time>2014-4-30T15:20:52Z</time></trkpt>
<trkpt lat="46.17279698" lon="7.57199608"><ele></ele><time>2014-4-30T15:20:55Z</time></trkpt>
<trkpt lat="46.17304659" lon="7.57178796"><ele></ele><time>2014-4-30T15:20:58Z</time></trkpt>
</trkseg></trk></gpx>